[[{"header":{"parameterUnit":"m.s-1","parameterCategory":1,"la1":30.6,"la2":29.2853,"lo1":-89.7004,"lo2":-87.6739,"dy":0.0162,"dx":0.0183,"nx":112,"ny":82,"refTime":"2026-03-21T12:00:00:Z","depth":0,"parameterNumber":2,"parameterNumberName":"U-component_of_WINDS"},"data":[0.0,0.0,0.0,0.0,0.0,0.0,0.0,0.0,0.0,0.0,0.0,0.0,0.0,0.0,0.0,0.0,0.0,0.0,0.0,0.0,0.0,0.0,0.0,0.0,0.0,0.0,0.0,0.0,0.0,0.0,0.0,0.0,0.0,0.0,0.0,0.0,0.0,0.0,0.0,0.0,0.0,0.0,0.0,0.0,0.0,0.0,0.0,0.0,0.0,0.0,0.0,0.0,0.0,0.0,0.0,0.0,0.0,0.0,0.0,0.0,0.0,0.0,0.0,0.0,0.0,0.0,0.0,0.0,0.0,0.0,0.0,0.0,0.0,0.0,0.0,0.0,0.0,0.0,0.0,0.0,0.0,0.0,0.0,0.0,0.0,0.0,0.0,0.0,0.0,0.0,0.0,-3.1006,-3.2762,-3.3317,-3.2125,-3.0546,-2.9232,-2.8369,0.0,0.0,0.0,0.0,0.0,0.0,0.0,0.0,0.0,0.0,0.0,0.0,0.0,0.0,0.0,0.0,0.0,0.0,0.0,0.0,0.0,0.0,0.0,0.0,0.0,0.0,0.0,0.0,0.0,0.0,0.0,0.0,0.0,0.0,0.0,0.0,0.0,0.0,0.0,0.0,0.0,0.0,0.0,0.0,0.0,0.0,0.0,0.0,0.0,0.0,0.0,0.0,0.0,0.0,0.0,0.0,0.0,0.0,0.0,0.0,0.0,0.0,0.0,0.0,0.0,0.0,0.0,0.0,0.0,0.0,0.0,0.0,0.0,0.0,0.0,0.0,0.0,0.0,0.0,0.0,0.0,0.0,0.0,0.0,0.0,0.0,0.0,0.0,0.0,0.0,0.0,0.0,0.0,0.0,0.0,0.0,0.0,0.0,0.0,0.0,0.0,0.0,0.0,0.0,-3.0243,-3.2739,-3.4579,-3.4656,-3.2281,-3.1165,-3.0214,-2.9338,0.0,0.0,0.0,0.0,0.0,0.0,0.0,0.0,0.0,0.0,0.0,0.0,0.0,0.0,0.0,0.0,0.0,0.0,0.0,0.0,0.0,0.0,0.0,0.0,0.0,0.0,0.0,0.0,0.0,0.0,0.0,0.0,0.0,0.0,0.0,0.0,0.0,0.0,0.0,0.0,0.0,0.0,0.0,0.0,0.0,0.0,0.0,0.0,0.0,0.0,0.0,0.0,0.0,0.0,0.0,0.0,0.0,0.0,0.0,0.0,0.0,0.0,0.0,0.0,0.0,0.0,0.0,0.0,0.0,0.0,0.0,0.0,0.0,0.0,0.0,0.0,0.0,0.0,0.0,0.0,0.0,0.0,0.0,0.0,0.0,0.0,0.0,0.0,0.0,0.0,0.0,0.0,0.0,0.0,0.0,0.0,0.0,0.0,0.0,0.0,0.0,0.0,0.0,-3.067,-3.2784,-3.3976,-3.5248,-3.5128,-3.2989,-3.2012,-3.0732,-2.8903,-2.7916,0.0,0.0,0.0,0.0,0.0,0.0,0.0,0.0,0.0,0.0,0.0,0.0,0.0,0.0,0.0,0.0,0.0,0.0,0.0,0.0,0.0,0.0,0.0,0.0,0.0,0.0,0.0,0.0,0.0,0.0,0.0,0.0,0.0,0.0,0.0,0.0,0.0,0.0,0.0,0.0,0.0,0.0,0.0,0.0,0.0,0.0,0.0,0.0,0.0,0.0,0.0,0.0,0.0,0.0,0.0,0.0,0.0,0.0,0.0,0.0,0.0,0.0,0.0,0.0,0.0,0.0,0.0,0.0,0.0,0.0,0.0,0.0,0.0,0.0,0.0,0.0,0.0,0.0,0.0,0.0,0.0,0.0,0.0,0.0,0.0,0.0,0.0,0.0,0.0,0.0,0.0,0.0,0.0,0.0,0.0,0.0,0.0,0.0,0.0,0.0,0.0,0.0,-3.3318,-3.539,-3.5601,-3.6226,-3.5812,-3.3866,-3.2714,-3.1066,-2.8669,-2.7992,0.0,0.0,0.0,0.0,0.0,0.0,0.0,0.0,0.0,0.0,0.0,0.0,0.0,0.0,0.0,0.0,0.0,0.0,0.0,0.0,0.0,0.0,0.0,0.0,0.0,0.0,0.0,0.0,0.0,0.0,0.0,0.0,0.0,0.0,0.0,0.0,0.0,0.0,0.0,0.0,0.0,0.0,0.0,0.0,0.0,0.0,0.0,0.0,0.0,0.0,0.0,0.0,0.0,0.0,0.0,0.0,0.0,0.0,0.0,0.0,0.0,0.0,0.0,0.0,0.0,0.0,0.0,0.0,0.0,0.0,0.0,0.0,0.0,0.0,0.0,0.0,0.0,0.0,0.0,0.0,0.0,0.0,0.0,0.0,0.0,0.0,0.0,0.0,0.0,0.0,0.0,0.0,0.0,0.0,0.0,0.0,0.0,0.0,0.0,0.0,0.0,0.0,-3.5468,-3.7421,-3.8237,-3.8374,-3.7375,-3.4824,-3.3066,-3.1337,-2.9524,-2.7753,0.0,0.0,0.0,0.0,0.0,0.0,0.0,0.0,0.0,0.0,0.0,0.0,0.0,0.0,0.0,0.0,0.0,0.0,0.0,0.0,0.0,0.0,0.0,0.0,0.0,0.0,0.0,0.0,0.0,0.0,0.0,0.0,0.0,0.0,0.0,0.0,0.0,0.0,0.0,0.0,0.0,0.0,0.0,0.0,0.0,0.0,0.0,0.0,0.0,0.0,0.0,0.0,0.0,0.0,0.0,0.0,0.0,0.0,0.0,0.0,0.0,0.0,0.0,0.0,0.0,0.0,0.0,0.0,0.0,0.0,0.0,0.0,0.0,0.0,0.0,0.0,0.0,0.0,0.0,0.0,0.0,0.0,0.0,0.0,0.0,0.0,0.0,0.0,0.0,0.0,0.0,0.0,0.0,0.0,0.0,0.0,0.0,0.0,0.0,0.0,0.0,0.0,-3.5351,-3.7226,0.0,-3.7456,-3.673,-3.4102,-3.2792,-3.1126,-2.8831,0.0,0.0,0.0,0.0,0.0,0.0,0.0,0.0,0.0,0.0,0.0,0.0,0.0,0.0,0.0,0.0,0.0,0.0,0.0,0.0,0.0,0.0,0.0,0.0,0.0,0.0,0.0,0.0,0.0,0.0,0.0,0.0,0.0,0.0,0.0,0.0,0.0,0.0,0.0,0.0,0.0,0.0,0.0,0.0,0.0,0.0,0.0,0.0,0.0,0.0,0.0,0.0,0.0,0.0,0.0,0.0,0.0,0.0,0.0,0.0,0.0,0.0,0.0,0.0,0.0,0.0,0.0,0.0,0.0,0.0,0.0,0.0,0.0,0.0,0.0,0.0,0.0,0.0,0.0,0.0,0.0,0.0,0.0,0.0,0.0,0.0,0.0,0.0,0.0,0.0,0.0,0.0,0.0,0.0,0.0,0.0,0.0,0.0,0.0,0.0,0.0,0.0,-3.2636,-3.5488,-3.7285,0.0,-3.728,-3.6359,-3.4004,-3.2519,-3.0698,-2.8354,0.0,0.0,0.0,0.0,0.0,0.0,0.0,0.0,0.0,0.0,0.0,0.0,0.0,0.0,0.0,0.0,0.0,0.0,0.0,0.0,0.0,0.0,0.0,0.0,0.0,0.0,0.0,0.0,0.0,0.0,0.0,0.0,0.0,0.0,0.0,0.0,0.0,0.0,0.0,0.0,0.0,0.0,0.0,0.0,0.0,0.0,0.0,0.0,0.0,0.0,0.0,0.0,0.0,0.0,0.0,0.0,0.0,0.0,0.0,0.0,0.0,0.0,0.0,0.0,0.0,0.0,0.0,0.0,0.0,0.0,0.0,0.0,0.0,0.0,0.0,0.0,0.0,0.0,0.0,0.0,0.0,0.0,0.0,0.0,0.0,0.0,0.0,0.0,0.0,0.0,0.0,0.0,0.0,0.0,0.0,0.0,0.0,0.0,0.0,0.0,0.0,0.0,-3.4217,-3.6191,-3.7929,-3.9663,-3.8296,-3.6574,-3.4824,-3.2285,-3.0035,0.0,0.0,0.0,0.0,0.0,0.0,0.0,0.0,0.0,0.0,0.0,0.0,0.0,0.0,0.0,0.0,0.0,0.0,0.0,0.0,0.0,0.0,0.0,0.0,0.0,0.0,0.0,0.0,0.0,0.0,0.0,0.0,0.0,0.0,0.0,0.0,0.0,0.0,0.0,0.0,0.0,0.0,0.0,0.0,0.0,0.0,0.0,0.0,0.0,0.0,0.0,0.0,0.0,0.0,0.0,0.0,0.0,0.0,0.0,0.0,0.0,0.0,0.0,0.0,0.0,0.0,0.0,0.0,0.0,0.0,0.0,0.0,0.0,0.0,0.0,0.0,0.0,0.0,0.0,0.0,0.0,0.0,0.0,0.0,0.0,0.0,0.0,0.0,0.0,0.0,0.0,0.0,0.0,0.0,0.0,0.0,0.0,0.0,0.0,0.0,0.0,0.0,0.0,-3.164,-3.4043,-3.5664,-3.6186,-3.5776,-3.5011,-3.3886,-3.1426,-2.9218,-2.7452,0.0,0.0,0.0,0.0,0.0,0.0,0.0,0.0,0.0,0.0,0.0,0.0,0.0,0.0,0.0,0.0,0.0,0.0,0.0,0.0,0.0,0.0,0.0,0.0,0.0,0.0,0.0,0.0,0.0,0.0,0.0,0.0,0.0,0.0,0.0,0.0,0.0,0.0,0.0,0.0,0.0,0.0,0.0,0.0,0.0,0.0,0.0,0.0,0.0,0.0,0.0,0.0,0.0,0.0,0.0,0.0,0.0,0.0,0.0,0.0,0.0,0.0,0.0,0.0,0.0,0.0,0.0,0.0,0.0,0.0,0.0,0.0,0.0,0.0,0.0,0.0,0.0,0.0,0.0,0.0,0.0,0.0,0.0,0.0,0.0,0.0,0.0,0.0,0.0,0.0,0.0,0.0,0.0,0.0,0.0,0.0,0.0,0.0,0.0,0.0,0.0,0.0,-3.0566,-3.2812,-3.4316,-3.4663,-3.4389,-3.3683,-3.2461,-3.0665,-2.8712,-2.6619,0.0,0.0,0.0,0.0,0.0,0.0,0.0,0.0,0.0,0.0,0.0,0.0,0.0,0.0,0.0,0.0,0.0,0.0,0.0,0.0,0.0,0.0,0.0,0.0,0.0,0.0,0.0,0.0,0.0,0.0,0.0,0.0,0.0,0.0,0.0,0.0,0.0,0.0,0.0,0.0,0.0,0.0,0.0,0.0,0.0,0.0,0.0,0.0,0.0,0.0,0.0,0.0,0.0,0.0,0.0,0.0,0.0,0.0,0.0,0.0,0.0,0.0,0.0,0.0,0.0,0.0,0.0,0.0,0.0,0.0,0.0,0.0,0.0,0.0,0.0,0.0,0.0,0.0,0.0,0.0,0.0,0.0,0.0,0.0,0.0,0.0,0.0,0.0,0.0,0.0,0.0,0.0,0.0,0.0,0.0,0.0,0.0,0.0,0.0,0.0,0.0,0.0,-3.0332,-3.2187,-3.3574,-3.4371,-3.3687,-3.2532,-3.094,-2.9925,-2.8286,-2.5747,0.0,0.0,0.0,0.0,0.0,0.0,0.0,0.0,0.0,0.0,0.0,0.0,0.0,0.0,0.0,0.0,0.0,0.0,0.0,0.0,0.0,0.0,0.0,0.0,0.0,0.0,0.0,0.0,0.0,0.0,0.0,0.0,0.0,0.0,0.0,0.0,0.0,0.0,0.0,0.0,0.0,0.0,0.0,0.0,0.0,0.0,0.0,0.0,0.0,0.0,0.0,0.0,0.0,0.0,0.0,0.0,0.0,0.0,0.0,0.0,-2.7439,-2.6167,0.0,0.0,0.0,0.0,0.0,0.0,0.0,0.0,0.0,0.0,0.0,0.0,0.0,0.0,0.0,0.0,0.0,0.0,0.0,0.0,0.0,0.0,0.0,0.0,0.0,0.0,0.0,0.0,0.0,0.0,0.0,0.0,0.0,0.0,0.0,0.0,0.0,0.0,0.0,0.0,-2.8611,-3.0915,-3.246,-3.2637,-3.1914,-3.1289,-3.0915,-2.8842,-2.6731,-2.4796,-2.3679,0.0,0.0,0.0,0.0,0.0,0.0,0.0,0.0,0.0,0.0,0.0,0.0,0.0,0.0,0.0,0.0,0.0,0.0,0.0,0.0,0.0,0.0,0.0,0.0,0.0,0.0,0.0,0.0,0.0,0.0,0.0,0.0,0.0,0.0,0.0,0.0,0.0,0.0,0.0,0.0,0.0,0.0,0.0,0.0,0.0,0.0,0.0,0.0,0.0,0.0,0.0,0.0,0.0,0.0,0.0,0.0,0.0,0.0,0.0,-2.9681,-2.8255,0.0,0.0,0.0,0.0,0.0,0.0,0.0,0.0,0.0,0.0,0.0,0.0,0.0,0.0,0.0,0.0,0.0,0.0,0.0,0.0,0.0,0.0,0.0,0.0,0.0,0.0,0.0,0.0,0.0,0.0,0.0,0.0,0.0,0.0,0.0,0.0,0.0,0.0,0.0,0.0,-2.8034,-3.0116,-3.1422,-3.1428,-3.0688,-3.003,-2.9646,-2.7969,-2.6035,-2.3904,-2.2982,0.0,0.0,0.0,0.0,0.0,0.0,0.0,0.0,0.0,0.0,0.0,0.0,0.0,0.0,0.0,0.0,0.0,0.0,0.0,0.0,0.0,0.0,0.0,0.0,0.0,0.0,0.0,0.0,0.0,0.0,0.0,0.0,0.0,0.0,0.0,0.0,0.0,0.0,0.0,0.0,0.0,0.0,0.0,0.0,0.0,0.0,0.0,0.0,0.0,0.0,0.0,0.0,0.0,-3.1071,-3.1985,-3.2786,-3.2945,-3.3474,-3.4237,-3.2789,-3.1333,-2.9961,-2.9961,0.0,0.0,0.0,0.0,0.0,0.0,0.0,0.0,0.0,0.0,0.0,0.0,0.0,0.0,0.0,0.0,0.0,0.0,0.0,0.0,0.0,0.0,-3.0249,-3.0249,-3.0132,-2.9469,-2.746,0.0,0.0,0.0,0.0,0.0,0.0,0.0,0.0,0.0,0.0,0.0,-2.7987,-2.9663,-3.0701,-3.0694,-2.9782,-2.8916,-2.8256,-2.7255,-2.572,-2.3476,-2.2557,-2.1714,0.0,0.0,0.0,0.0,0.0,0.0,0.0,0.0,0.0,0.0,0.0,0.0,0.0,0.0,0.0,0.0,0.0,0.0,0.0,0.0,0.0,0.0,0.0,0.0,0.0,0.0,0.0,0.0,0.0,0.0,0.0,0.0,-2.3301,-2.3436,0.0,0.0,0.0,0.0,0.0,0.0,0.0,0.0,0.0,0.0,0.0,0.0,0.0,-2.9195,-2.9238,-3.0801,-3.1659,-3.1793,-3.3412,-3.4642,-3.5501,-3.6266,-3.7088,-3.7908,-3.7676,0.0,-3.1835,-3.1835,0.0,0.0,0.0,0.0,0.0,0.0,0.0,0.0,0.0,0.0,0.0,0.0,0.0,0.0,0.0,0.0,0.0,0.0,0.0,0.0,0.0,0.0,-3.2818,-3.2818,-3.2231,-3.18,-3.2216,-2.9924,-2.7793,-2.7792,-2.6464,-2.533,0.0,0.0,0.0,0.0,0.0,0.0,-2.7989,-2.9627,-3.0691,-3.0709,-2.9232,-2.825,-2.8197,-2.6705,-2.5336,-2.4289,-2.3417,-2.2578,-2.1758,-2.0898,0.0,0.0,0.0,0.0,0.0,0.0,0.0,0.0,0.0,0.0,0.0,0.0,0.0,0.0,0.0,0.0,0.0,0.0,0.0,0.0,0.0,0.0,0.0,0.0,0.0,0.0,0.0,0.0,0.0,-2.2321,-2.3276,-2.376,-2.4935,-2.5698,0.0,0.0,0.0,0.0,0.0,0.0,0.0,0.0,0.0,-2.8437,-3.0097,-3.0975,-3.0991,-3.2219,-3.3075,-3.358,-3.5337,-3.6626,-3.7486,-3.8369,-3.921,-3.9953,-3.9,-3.781,-3.6404,-3.4941,-3.3301,-3.164,0.0,0.0,0.0,0.0,-3.0935,-3.1678,-3.1171,-3.0761,-3.0215,-2.8886,0.0,0.0,0.0,0.0,0.0,0.0,0.0,-2.9934,-3.1166,-3.272,-3.3965,-3.3965,-3.3689,-3.3397,-3.332,-3.2121,-3.0784,-2.9826,-2.8249,-2.6897,-2.6391,-2.4873,0.0,0.0,0.0,-2.7117,-2.8481,-2.9769,-3.0548,-3.0574,-2.9063,-2.8064,-2.8136,-2.6559,-2.5206,-2.4386,-2.3997,-2.3187,-2.1843,-2.1413,-2.0772,0.0,0.0,0.0,0.0,0.0,0.0,0.0,0.0,0.0,0.0,0.0,0.0,0.0,0.0,0.0,0.0,0.0,0.0,0.0,0.0,0.0,0.0,0.0,0.0,0.0,0.0,0.0,0.0,-2.258,-2.3419,-2.4298,-2.5177,-2.5706,0.0,0.0,0.0,0.0,0.0,0.0,-2.667,-2.8137,-2.9369,-3.0208,-3.1884,-3.276,-3.2779,-3.3633,-3.4392,-3.5057,-3.6579,-3.775,-3.863,-3.9494,-4.0336,-4.1021,-3.9777,-3.9486,-3.972,-3.7557,-3.5761,-3.4257,-3.2773,-3.2832,-3.3574,-3.2323,-3.2655,-3.3672,-3.3222,-3.2927,-3.253,-3.1276,-3.0589,-3.0059,-2.9181,0.0,0.0,0.0,0.0,-3.1607,-3.2435,-3.3727,-3.4816,-3.4816,-3.4816,-3.4637,-3.4012,-3.3654,-3.3033,-3.1617,-3.0108,-2.8791,-2.7899,-2.6469,0.0,0.0,0.0,-2.7668,-2.919,-3.0158,-3.081,-3.1089,-2.9636,-2.8659,-2.8713,-2.6934,-2.555,-2.4977,-2.4523,-2.3607,-2.2094,-2.1822,-2.1011,-1.9566,0.0,0.0,0.0,0.0,0.0,0.0,0.0,0.0,0.0,0.0,0.0,0.0,0.0,0.0,0.0,0.0,0.0,0.0,0.0,0.0,0.0,0.0,0.0,0.0,0.0,0.0,0.0,0.0,0.0,-2.4292,-2.5171,0.0,0.0,0.0,0.0,-2.6801,-2.6903,-2.7666,-2.9325,-3.0266,-3.1145,-3.1941,-3.366,-3.4576,-3.457,-3.5426,-3.5895,-3.5953,-3.6852,-3.775,-3.863,-3.9497,-4.0338,-4.1099,-4.1008,-4.056,-3.9838,-3.8861,-3.7924,-3.7006,-3.6091,-3.5291,-3.4627,-3.4531,-3.4551,-3.4744,-3.5454,-3.5168,-3.4454,-3.4382,-3.3234,-3.1726,-3.0845,-3.0589,0.0,0.0,-3.2421,-3.3289,-3.4154,-3.4996,-3.5643,-3.5643,-3.5643,-3.5612,-3.5508,-3.4774,-3.3936,-3.3219,-3.2338,-3.1406,-3.0472,0.0,-2.8579,-2.7775,-2.8293,-2.9111,-3.0024,-3.0957,-3.186,-3.2686,-3.1341,-3.0369,-3.038,-2.8083,-2.6649,-2.6667,-2.5114,-2.3822,-2.2965,-2.2141,-2.1301,-2.0441,-1.9581,0.0,0.0,0.0,0.0,0.0,0.0,0.0,0.0,0.0,0.0,0.0,0.0,0.0,0.0,0.0,0.0,0.0,0.0,0.0,0.0,0.0,0.0,0.0,0.0,0.0,0.0,0.0,0.0,-2.5201,-2.6494,0.0,-2.7377,-2.7363,-2.7503,-2.7815,-2.8831,-2.9711,-3.0335,-3.2251,-3.348,-3.3751,-3.4923,-3.5546,-3.5543,-3.5836,-3.5992,-3.6012,-3.6872,-3.7458,-3.781,-3.9198,-3.9999,-4.0292,-4.0861,-4.094,-4.0648,-4.0335,-3.9067,-3.7216,-3.6338,-3.5813,-3.5462,-3.4919,-3.5053,-3.5572,-3.5814,-3.5697,-3.5339,-3.4736,-3.3767,-3.2788,-3.2477,-3.2376,-3.2428,-3.2693,-3.3379,-3.4102,-3.4381,-3.4652,-3.4853,-3.4812,-3.437,-3.3936,-3.3876,-3.3526,-3.3153,-3.2916,-3.2659,-3.2358,-3.1981,-3.1181,-3.0635,-3.0817,-3.0102,-3.0053,-3.1508,-3.1557,-3.1807,-3.2678,-3.1801,-3.0919,-3.0342,-2.8494,-2.7126,-2.6641,-2.5505,-2.424,-2.286,-2.2543,-2.1511,-1.9643,-1.9294,-1.8733,0.0,0.0,0.0,0.0,0.0,0.0,0.0,0.0,0.0,0.0,0.0,0.0,0.0,0.0,0.0,0.0,0.0,0.0,0.0,0.0,0.0,0.0,0.0,0.0,0.0,0.0,-2.5814,-2.6109,-2.7402,-2.8286,-2.831,-2.8296,-2.8417,-2.8713,-3.0021,-3.1054,-3.1659,-3.3593,-3.4822,-3.5135,-3.5699,-3.5992,-3.5992,-3.5992,-3.5992,-3.6012,-3.6872,-3.7437,-3.7746,-3.9167,-3.9966,-4.0278,-4.0846,-4.0924,-4.065,-4.0652,-3.9322,-3.725,-3.6923,-3.6633,-3.6305,-3.5431,-3.5465,-3.5956,-3.5868,-3.5817,-3.5698,-3.5064,-3.4503,-3.4076,-3.4076,-3.4076,-3.4072,-3.4017,-3.4425,-3.4797,-3.4452,-3.4373,-3.4279,-3.3942,-3.3394,-3.2922,-3.2859,-3.2474,-3.2161,-3.2152,-3.2474,-3.2626,-3.226,-3.1718,-3.1396,-3.1588,-3.0591,-3.0349,-3.1775,-3.155,-3.1597,-3.2466,-3.1844,-3.1137,-3.0546,-2.872,-2.7389,-2.6867,-2.5751,-2.4512,-2.3131,-2.2863,-2.1846,-1.9903,-1.933,-1.8764,-1.8244,0.0,0.0,0.0,0.0,0.0,0.0,0.0,0.0,0.0,0.0,0.0,0.0,0.0,0.0,0.0,0.0,0.0,0.0,0.0,0.0,0.0,0.0,0.0,-2.4406,-2.5178,-2.6052,-2.6899,-2.7722,-2.8275,-2.8367,-2.8388,-2.8743,-2.9611,-3.0431,-3.1601,-3.3279,-3.4217,-3.5096,-3.5934,-3.5953,-3.5973,-3.5992,-3.5992,-3.5992,-3.6012,-3.6872,-3.7707,-3.8497,-3.9384,-4.0255,-4.1054,-4.1091,-4.0606,-3.9806,-3.9791,-3.8775,-3.7271,-3.8063,-3.7878,-3.7043,-3.6213,-3.5897,-3.5875,-3.5749,-3.5658,-3.5598,-3.5598,-3.5598,-3.5598,-3.5598,-3.5578,-3.5559,-3.5559,-3.554,-3.5327,-3.4478,-3.4247,-3.4004,-3.3164,-3.2859,-3.2734,-3.2637,-3.1819,-3.1083,-3.105,-3.1843,-3.2222,-3.1333,-3.1202,-3.0894,-2.9914,-2.9718,0.0,-3.0819,-3.0941,-3.127,-3.2185,-3.1577,-3.1109,-3.1071,-2.8855,-2.7468,-2.7478,-2.5937,-2.4645,-2.3822,-2.3108,-2.2307,-2.1396,-1.9776,-1.8931,-1.8923,0.0,0.0,0.0,0.0,0.0,0.0,0.0,0.0,0.0,0.0,0.0,0.0,0.0,0.0,0.0,0.0,0.0,0.0,0.0,0.0,0.0,-2.51,-2.5072,-2.4475,-2.5642,-2.6654,-2.6909,-2.8244,-2.94,-3.0047,-3.01,-3.0461,-3.134,-3.2203,-3.2616,-3.2461,-3.3886,-3.4803,-3.5057,-3.5057,-3.5369,-3.5992,-3.5992,-3.5992,-3.6012,-3.6872,-3.7391,-3.7607,-3.9068,-3.9856,-4.0129,-4.0752,-4.0557,-3.9803,-3.9747,-3.8702,-3.7156,-3.7377,-3.694,-3.6161,-3.5924,-3.5791,-3.5749,-3.5703,-3.5665,-3.5598,-3.5598,-3.5598,-3.5598,-3.5598,-3.5154,-3.4652,-3.4652,-3.4208,-3.3668,-3.3417,-3.2916,-3.2403,-3.2119,-3.1923,-3.1599,-3.0891,-3.0813,-3.0696,-3.0058,-3.0076,-3.0367,-3.0885,-3.1469,-3.1751,-3.1485,-3.032,0.0,-3.1376,-3.042,-3.0176,-3.1648,-3.1646,-3.1264,-3.0578,-2.9395,-2.8222,-2.7073,-2.6101,-2.496,-2.3561,-2.3366,-2.2571,-2.1075,-2.0064,-1.9528,0.0,0.0,0.0,0.0,0.0,0.0,0.0,0.0,0.0,0.0,0.0,0.0,0.0,0.0,0.0,0.0,0.0,0.0,0.0,0.0,0.0,0.0,-2.5593,-2.5446,-2.497,-2.6065,-2.6905,-2.6901,-2.8439,-2.9554,-2.9695,-3.0353,-3.0833,-3.0998,-3.2487,-3.3176,-3.2671,-3.394,-3.4878,-3.5232,-3.4881,-3.5115,-3.5992,-3.5641,-3.5641,-3.6012,-3.65,-3.6902,-3.7249,-3.8589,-3.9198,-3.9231,-3.9692,-3.9432,-3.8669,-3.8627,-3.7786,-3.656,0.0,0.0,0.0,0.0,-3.5687,-3.565,-3.5662,-3.5602,-3.5567,-3.5567,-3.5567,-3.5496,-3.5111,-3.4667,-3.4186,-3.3819,-3.3357,-3.2875,-3.2548,-3.2355,-3.2164,-3.1757,-3.1742,-3.1654,-3.1063,-3.048,-2.9927,-2.9392,-2.8907,0.0,-2.9405,-3.0302,-3.0914,-3.0847,-2.9946,-2.9585,-3.042,-2.962,-2.9354,-3.0323,-3.0457,-3.0254,-2.9729,-2.8968,0.0,0.0,0.0,-2.4969,-2.3381,-2.2997,0.0,0.0,0.0,0.0,0.0,0.0,0.0,0.0,-2.2985,-2.3879,0.0,0.0,0.0,0.0,0.0,0.0,0.0,0.0,0.0,0.0,0.0,0.0,0.0,0.0,0.0,0.0,-2.5812,-2.5856,-2.5749,-2.6403,-2.6857,-2.6753,-2.8198,-2.8932,-2.8245,-2.9532,-3.0151,-2.9535,-3.173,-3.3066,-3.2978,0.0,0.0,0.0,0.0,-3.4822,-3.5699,-3.494,-3.4998,-3.5856,-3.5953,-3.6412,-3.723,-3.8082,-3.8491,-3.8471,-3.8415,-3.7887,-3.709,-3.7085,-3.6581,-3.5875,-3.6605,-3.6419,-3.5751,-3.5847,-3.5886,-3.588,-3.5861,0.0,0.0,-3.5788,-3.5788,-3.5615,-3.4757,-3.4417,-3.4167,-3.3295,-3.2987,-3.2737,-3.2019,-3.2365,-3.2692,-3.1896,-3.2137,-3.2466,-3.2222,-3.0751,-2.9423,-2.917,-2.8431,-2.782,-2.7729,-2.8574,-2.9206,-2.9078,-2.8971,-2.8865,-2.8773,-2.8664,-2.8634,-2.8725,-2.8743,0.0,-2.8725,-2.8076,-2.7358,-2.6637,-2.5866,-2.4801,-2.3351,-2.2459,-2.1609,-2.0827,-2.0739,-2.0726,-2.0836,-2.305,-2.4173,-2.4299,-2.4645,-2.5151,0.0,0.0,0.0,0.0,0.0,0.0,0.0,0.0,0.0,0.0,0.0,0.0,0.0,0.0,0.0,-2.6426,-2.717,-2.7371,-2.6679,-2.6705,-2.6573,-2.5921,-2.6718,-2.7533,-2.8071,-2.8407,-2.8838,-2.9379,-3.0585,-3.0994,-3.0295,-3.1744,-3.2685,-3.2841,-3.2692,-3.3027,-3.3884,-3.3748,-3.41,-3.4959,-3.566,0.0,-3.723,-3.806,-3.842,-3.8427,-3.8358,-3.7815,-3.7012,-3.6958,-3.6764,-3.6523,-3.6749,-3.6723,-3.6646,-3.736,-3.763,-3.7604,-3.7545,-3.7523,-3.7526,-3.7526,-3.7526,-3.7353,-3.6488,-3.575,0.0,-3.418,-3.343,-3.2865,-3.2705,-3.2769,-3.2812,-3.2497,-3.2855,-3.3072,-3.2226,-3.1978,-3.1531,-3.0149,-2.9611,-2.9181,-2.8529,-2.8682,-2.8868,-2.8779,-2.8137,-2.7857,-2.8407,-2.7818,-2.7592,-2.8259,-2.8367,-2.8362,-2.8313,-2.8223,-2.7857,-2.7109,-2.5873,-2.4774,-2.3875,-2.2966,-2.2369,-2.2133,-2.1492,-2.1503,-2.2211,-2.3169,-2.4271,-2.5488,-2.5877,-2.6418,0.0,0.0,0.0,0.0,0.0,0.0,0.0,0.0,0.0,0.0,0.0,-2.4322,-2.4257,0.0,-2.606,-2.6083,-2.714,-2.7652,-2.6762,-2.6675,-2.6405,-2.5641,-2.6262,-2.6745,-2.6753,-2.7538,-2.8249,-2.8709,-2.9985,-3.0754,-3.0804,-3.1631,-3.2303,-3.2744,-3.2337,-3.2515,-3.3396,-3.3396,-3.3846,-3.4705,-3.5135,-3.5789,-3.6608,-3.6971,-3.7128,-3.7102,-3.7033,-3.6726,-3.6288,-3.6223,-3.6408,-3.6757,-3.7215,-3.7403,-3.7441,-3.7884,-3.8057,-3.8057,-3.7998,-3.8003,-3.8007,-3.8007,-3.8007,-3.7834,-3.6962,-3.6423,-3.5923,-3.5084,-3.4545,-3.409,-3.3621,-3.3777,-3.3907,-3.3334,-3.3629,-3.3895,-3.329,-3.2804,-3.2117,-3.0802,-3.0052,-2.9345,-2.8537,-2.8458,-2.8505,-2.8531,-2.8155,-2.7957,-2.8224,-2.7812,-2.7623,-2.7957,-2.8007,-2.7993,-2.795,-2.7634,-2.7166,-2.6504,-2.5386,-2.4417,-2.3685,-2.2769,-2.2268,-2.2205,-2.1836,-2.2075,-2.295,-2.3963,-2.5229,-2.6714,-2.7069,-2.752,0.0,0.0,0.0,0.0,0.0,0.0,0.0,0.0,-2.4179,-2.3811,-2.4723,-2.5334,-2.4557,-2.5889,-2.6762,-2.576,-2.7239,-2.8096,-2.6899,-2.6929,-2.6713,-2.5779,-2.6112,-2.6123,-2.543,-2.6638,-2.7578,-2.7787,-2.9289,-3.0595,-3.1534,-3.1746,-3.2175,-3.2876,-3.2215,-3.2277,-3.3141,-3.3143,-3.3671,-3.4705,-3.4705,-3.5145,-3.5984,-3.5921,-3.5859,-3.5795,-3.5718,-3.5648,-3.5587,-3.5528,-3.5977,-3.6788,-3.7661,-3.8104,-3.8277,-3.843,-3.8488,-3.8488,-3.8488,-3.8488,-3.8488,-3.8488,-3.8488,-3.8334,-3.7469,-3.7219,-3.7026,-3.6212,-3.5981,-3.5762,-3.4836,-3.5009,-3.5187,-3.4229,-3.429,-3.4517,-3.4305,-3.3405,-3.232,-3.1202,-3.0226,-2.9287,-2.83,-2.8126,-2.8182,-2.8345,-2.8371,-2.8286,-2.8112,-2.7996,-2.7879,-2.7745,-2.7657,-2.7595,-2.7595,-2.7064,-2.6451,-2.58,-2.4971,-2.4108,-2.3218,-2.2512,-2.2113,-2.2065,-2.2241,-2.2745,-2.3603,-2.4878,-2.6176,-2.7461,-2.7961,-2.8356,-2.4033,-2.3523,-2.2817,-2.2041,-2.2426,-2.3395,0.0,0.0,-2.4616,-2.6079,-2.5917,-2.5445,-2.5217,-2.716,-2.8261,-2.6562,-2.8983,-3.0259,-2.7892,-2.8248,-2.8133,-2.6496,-2.574,-2.534,-2.5238,-2.5452,-2.5928,-2.6721,-2.7771,-2.8764,-2.9651,-3.0485,-3.0997,-3.1098,-3.0999,-3.1358,-3.2236,-3.2243,-3.3066,-3.4705,-3.4705,-3.5126,-3.5906,-3.5902,-3.5853,-3.5791,-3.567,-3.5579,-3.5508,-3.5494,-3.5968,-3.6788,-3.7661,-3.8469,-3.9246,-3.9958,-4.0227,-4.0227,-4.0227,-4.0227,-4.0227,-4.0227,-4.0227,-4.0073,-3.9265,-3.9015,-3.8834,-3.7969,-3.7719,-3.7493,-3.6554,-3.6291,-3.5994,-3.4946,-3.4603,-3.445,-3.4185,-3.3787,-3.2966,-3.1229,-3.0571,-2.9772,-2.8141,-2.7847,-2.7936,-2.8182,-2.8223,-2.8168,-2.8042,-2.785,-2.7672,-2.7557,-2.7371,-2.726,-2.726,-2.7173,-2.6793,-2.6014,-2.5256,-2.423,-2.2816,-2.2665,-2.2617,-2.2604,-2.32,-2.3909,-2.4728,-2.5478,-2.6198,-2.6906,-2.8022,-2.8696,-2.4326,0.0,0.0,0.0,-2.3369,-2.3968,-2.517,-2.5901,-2.6419,-2.6648,-2.7166,-2.7571,-2.7467,-2.8676,-2.9281,0.0,-2.9786,-3.0613,-2.8577,-2.8591,-2.8553,-2.7825,-2.7064,-2.6408,-2.5941,-2.5954,-2.6595,-2.8019,-2.8533,-2.9187,-3.0058,-3.0505,-3.0755,-3.0808,-3.1293,-3.1737,-3.2098,-3.3117,-3.3979,-3.4705,-3.5213,-3.5633,-3.5964,-3.5921,-3.5813,-3.5689,-3.5626,-3.5554,-3.55,-3.55,-3.6269,-3.7488,-3.7853,-3.8815,-4.0035,-4.0381,-4.0496,-4.0496,-4.0496,-4.0496,-4.0496,-4.0496,-4.0496,-4.0439,-4.0092,-3.9996,-3.9919,-3.9554,-3.9457,-3.9127,-3.7724,-3.7169,-3.6606,-3.5095,-3.4524,-3.4269,-3.4086,-3.382,-3.3203,-3.1848,-3.1264,-3.0446,-2.8742,-2.8275,-2.7866,-2.7096,-2.7134,-2.7211,-2.7026,-2.6464,-2.5959,-2.5656,-2.5563,-2.5687,-2.6113,-2.5772,-2.5348,-2.4979,-2.4298,-2.3413,-2.2329,-2.232,-2.2538,-2.298,-2.326,-2.399,-2.5193,-2.5325,-2.6168,-2.769,-2.7797,-2.8221,-2.3974,0.0,0.0,-2.3792,-2.4097,-2.4656,-2.5528,-2.666,-2.7345,-2.6683,-2.7517,-2.8259,-2.7931,-2.8874,-2.9418,-2.8518,-2.9951,-3.0665,-2.9236,-2.9036,-2.8874,-2.8419,-2.7899,-2.7259,-2.6448,-2.6656,-2.7474,-2.9033,-2.9215,-2.9621,-3.0496,-3.0632,-3.082,-3.1117,-3.1763,-3.2329,-3.2812,-3.4067,-3.4814,-3.5073,-3.5699,-3.5985,-3.5964,-3.5906,-3.5772,-3.5607,-3.5602,-3.5554,-3.55,-3.55,-3.6212,-3.7353,-3.7815,-3.8738,-3.9881,-4.0323,-4.0496,-4.0496,-4.0496,-4.0496,-4.0496,-4.0496,-4.0496,-4.0496,-4.0496,-4.0496,-4.0496,-4.05,-4.0492,-4.0092,-3.8309,-3.7613,-3.6926,-3.5109,-3.4435,-3.4161,-3.4011,-3.3748,-3.3237,-3.2195,-3.1609,-3.0733,-2.8984,-2.8447,-2.7733,-2.6141,-2.593,-2.5915,-2.5814,-2.512,-2.4452,-2.3909,-2.4044,-2.4462,-2.518,-2.4596,-2.4313,-2.4647,-2.3663,-2.2712,-2.1915,-2.1926,-2.2321,-2.3071,-2.3229,-2.4081,-2.5643,-2.5395,-2.6246,-2.8095,-2.745,-2.7583,0.0,0.0,-2.3906,-2.3056,-2.4062,-2.5486,-2.6366,-2.6592,-2.66,-2.6447,-2.6456,-2.6173,-2.5195,-2.7062,-2.8433,-2.7492,-2.9463,-3.0812,-2.9979,-2.9853,-2.9271,-2.7714,-2.7523,-2.7191,0.0,-2.7128,-2.8046,-2.8945,-2.9075,-2.9487,-3.0369,-3.0532,-3.1015,-3.1932,-3.2043,-3.2907,-3.4606,-3.4665,-3.5123,-3.5962,-3.5989,-3.5965,-3.5903,-3.5836,-3.5727,-3.5607,-3.5602,-3.5554,-3.55,-3.55,-3.5538,-3.5731,-3.7373,-3.8027,-3.8277,-3.99,-4.0496,-4.0496,-4.0496,-4.0496,-4.0496,-4.0496,-4.0496,-4.0496,-4.0496,-4.0496,-4.0508,-4.0499,-4.0502,-4.0065,-3.819,-3.7519,-3.6843,-3.5031,-3.4404,-3.4148,-3.3947,-3.3648,-3.3067,-3.1923,-3.1339,-3.0385,-2.8459,-2.7998,-2.7352,-2.5664,-2.4776,-2.4337,-2.4521,-2.4257,-2.3702,-2.2849,-2.3375,-2.408,-2.4752,-2.4195,-2.4392,-2.5752,-2.3883,-2.2374,-2.1653,-2.1603,-2.1979,-2.2813,-2.3325,-2.447,-2.6274,-2.6074,-2.6535,-2.7625,-2.7078,-2.6885,0.0,0.0,-2.3837,-2.3531,-2.3816,-2.4403,-2.5278,-2.632,-2.712,-2.702,-2.7888,-2.8725,-2.8911,-2.9187,-2.9264,-2.8935,-2.9647,-2.9954,-2.9158,-2.9531,-2.9499,-2.8427,-2.8332,0.0,0.0,0.0,0.0,-2.8932,-2.9564,-3.004,-3.0389,-3.0477,-3.0703,-3.1068,-3.2207,-3.3138,-3.3766,-3.4922,-3.5646,-3.5931,-3.598,-3.5955,-3.5895,-3.5833,-3.5756,-3.5659,-3.5623,-3.5554,-3.55,-3.55,-3.5808,-3.6404,-3.7546,-3.8354,-3.8996,-4.0092,-4.0496,-4.0496,-4.0496,-4.0496,-4.0496,-4.0496,-4.0496,-4.0496,-4.0496,-4.0496,-4.0508,-4.0499,-4.0405,-4.0012,-3.8747,-3.8134,-3.7542,-3.6344,-3.5901,-3.5526,-3.4779,-3.4338,-3.3728,-3.2565,-3.1845,-3.0833,-2.9003,-2.8353,-2.7205,-2.4542,-2.3686,-2.3166,-2.2698,-2.2433,-2.2147,-2.1809,-2.2004,-2.2443,-2.3159,-2.2524,-2.2442,-2.3329,-2.2197,-2.1376,-2.1087,-2.1552,-2.2196,-2.3056,-2.3488,-2.4452,-2.5904,-2.5618,-2.6037,-2.7116,-2.6591,-2.6384,0.0,-2.3559,-2.3764,-2.3727,-2.3871,-2.4192,-2.4735,-2.5934,-2.6915,-2.6827,-2.7681,-2.8598,-2.9062,-2.8932,-2.8763,-2.8771,-2.9323,-2.9574,-2.907,-2.9517,-2.9501,-2.8376,-2.829,-2.7891,0.0,0.0,0.0,-2.8899,-2.9774,-3.0286,-3.0322,-3.0395,-3.0598,-3.097,-3.2385,-3.3308,-3.3685,-3.5133,-3.5897,-3.5931,-3.5662,-3.5502,-3.5453,-3.5079,-3.4878,-3.4796,-3.4747,-3.4665,-3.4577,-3.4577,-3.5064,-3.5892,-3.6776,-3.7815,-3.8931,-3.9765,-4.0246,-4.0496,-4.0496,-4.0496,-4.0496,-4.0496,-4.0496,-4.0496,-4.0496,-4.0496,-4.05,-4.0438,-4.0288,-3.9919,-3.8922,-3.8384,-3.7866,-3.6881,-3.6549,-3.6141,-3.5056,-3.4528,-3.3934,-3.2745,-3.1967,-3.0916,-2.9122,-2.7736,-2.6106,-2.3839,-2.3047,-2.2438,-2.1655,-2.1677,-2.1632,-2.1325,-2.1536,-2.1989,-2.2734,-2.1795,-2.1503,-2.2329,-2.1367,-2.0712,-2.0596,-2.1271,-2.2142,-2.3214,-2.3646,-2.4565,-2.6017,-2.5727,-2.6027,-2.6857,-2.629,-2.5936,-2.276,-2.3107,-2.3724,-2.3656,-2.4221,-2.4775,-2.4782,-2.548,-2.6098,-2.592,-2.6005,-2.6072,0.0,0.0,-2.7092,-2.7089,-2.8529,-2.9626,-2.9624,-2.9787,-2.929,0.0,0.0,0.0,0.0,0.0,0.0,-2.8824,0.0,-3.0199,-3.0207,-3.0266,-3.071,-3.1603,-3.251,-3.3427,-3.4317,-3.5298,-3.5858,-3.5976,-3.511,-3.4683,-3.4651,-3.3729,-3.3265,-3.3188,-3.3132,-3.3043,-3.2968,-3.2968,-3.3487,-3.4359,-3.5269,-3.6596,-3.8104,-3.9015,-3.9842,-4.0496,-4.0496,-4.0496,-4.0496,-4.0496,-4.0496,-4.0496,-4.0496,-4.0496,-4.0465,-4.0323,-4.0186,-3.984,-3.8731,-3.8289,-3.7845,-3.6772,-3.6449,-3.6054,-3.4885,-3.4389,-3.3798,-3.2494,-3.1641,-3.0581,-2.8767,-2.6264,-2.4274,-2.3593,-2.288,-2.2135,-2.139,-2.194,-2.2135,-2.1423,-2.2021,-2.275,-2.3431,-2.2084,-2.1661,-2.276,-2.1428,-2.0469,-2.022,-2.0906,-2.1925,-2.3284,-2.3753,-2.482,-2.6546,-2.6297,-2.6369,-2.6736,-2.6122,-2.5536,-2.4129,-2.4162,-2.4276,-2.4201,-2.431,-2.4435,-2.4488,-2.5595,-2.6451,-2.5873,-2.6721,-2.7363,0.0,0.0,0.0,-2.7028,-2.7942,0.0,-2.8725,-2.9368,0.0,0.0,0.0,-2.7991,-2.6951,-2.7846,0.0,0.0,-2.9629,-3.0145,-3.0207,-3.0267,-3.0407,-3.0642,-3.2133,-3.3053,-3.3351,-3.4923,-3.5768,-3.5836,-3.5012,-3.4625,-3.4586,-3.3654,-3.318,-3.3128,-3.3103,-3.3398,-3.3878,-3.3878,-3.4372,-3.5308,-3.6796,-3.7623,-3.818,-3.965,-4.0323,-4.0496,-4.0496,-4.0496,-4.0496,-4.0496,-4.0496,-4.0496,-4.0496,-4.0492,-4.0455,-4.0279,-4.0011,-3.9705,-3.9251,-3.888,-3.8541,-3.8191,-3.7875,-3.735,-3.6291,-3.5704,-3.4868,-3.3134,-3.0808,-2.8871,-2.8056,-2.6002,-2.4274,-2.3593,-2.288,-2.2135,-2.139,-2.194,-2.2329,-2.2135,-2.2783,-2.3301,-2.348,-2.29,-2.2352,-2.1965,-2.1778,-2.1328,-2.0535,-2.1618,-2.2666,-2.358,-2.3606,-2.4298,-2.5682,-2.5009,-2.5146,-2.6039,-2.5441,-2.5092,-2.4148,-2.4257,-2.4588,-2.489,-2.493,-2.4912,-2.4958,-2.5671,-2.62,-2.5792,-2.6108,0.0,0.0,0.0,0.0,0.0,0.0,0.0,-2.8333,-2.8872,-2.8931,0.0,-2.8425,0.0,-2.7589,-2.826,-2.8768,0.0,-2.9607,-3.0123,-3.014,-3.0226,-3.026,-3.026,-3.1584,-3.2494,-3.2956,-3.4364,-3.4933,-3.4618,-3.3775,-3.3363,-3.3332,-3.2434,-3.2182,-3.2498,-3.2491,-3.3132,-3.4205,-3.4205,-3.4911,-3.6115,-3.7065,-3.7877,-3.8631,-3.9581,-4.0142,-4.0452,-4.0452,-4.0452,-4.046,-4.0481,-4.0496,-4.0489,-4.0468,-4.0447,-4.037,-4.0129,-3.9843,-3.9544,-3.9298,-3.8974,-3.8686,-3.8451,-3.817,-3.768,-3.6559,-3.5737,-3.4587,-3.2454,-3.0075,-2.8246,-2.7786,-2.6199,-2.4644,-2.3642,-2.3105,-2.2408,-2.1391,-2.2215,-2.301,-2.3301,-2.369,-2.4079,-2.4385,-2.3788,-2.3217,-2.2819,-2.2766,-2.2414,-2.1633,-2.2612,-2.3496,-2.4169,-2.4107,-2.4561,-2.556,-2.4785,-2.4893,-2.5778,-2.5173,-2.494,-2.3651,-2.394,-2.4666,-2.5467,-2.5662,-2.568,-2.5671,-2.569,-2.5652,-2.5541,0.0,0.0,-2.5365,0.0,-2.5847,-2.6674,0.0,-2.7298,-2.8259,-2.8442,-2.8219,-2.7544,-2.8296,-2.8532,-2.7733,-2.8389,-2.8889,-2.8936,-2.9657,-3.0101,-3.0101,-3.0164,-3.0249,-3.0357,-3.1109,-3.1947,-3.2883,-3.3716,-3.3779,-3.3074,-3.2305,-3.1894,-3.1763,-3.0989,-3.1021,-3.1697,-3.1705,-3.2723,-3.4379,-3.4379,-3.5353,-3.6885,-3.6993,-3.7913,-3.9207,-3.9314,-3.9808,-4.0407,-4.0407,-4.0407,-4.0405,-4.0468,-4.05,-4.0465,-4.0394,-4.0306,-4.0196,-3.9927,-3.967,-3.937,-3.9059,-3.8788,-3.8499,-3.8069,-3.7827,-3.7363,-3.6196,-3.5072,-3.3575,-3.1257,-2.9515,-2.8229,-2.7656,-2.6455,-2.513,-2.3706,-2.3377,-2.2824,-2.1488,-2.257,-2.3688,-2.427,-2.456,-2.4996,-2.564,-2.4844,-2.4339,-2.4431,-2.41,-2.3659,-2.3109,-2.3696,-2.4336,-2.4926,-2.4829,-2.5061,-2.5636,-2.5022,-2.5036,-2.5611,-2.5105,-2.4913,-2.4164,-2.4238,-2.4533,-2.5328,-2.5522,-2.556,-2.5597,-2.5625,0.0,0.0,0.0,-2.4284,-2.4432,-2.4994,0.0,-2.5717,0.0,0.0,0.0,0.0,-2.8402,0.0,0.0,0.0,0.0,0.0,0.0,0.0,-2.9962,-3.0098,-3.0101,-3.0164,-3.0491,-3.1178,-3.1379,-3.1947,-3.2891,-3.3051,-3.3095,-3.3012,-3.2811,-3.2368,-3.1703,-3.1509,-3.1523,-3.17,-3.1703,-3.3064,-3.5269,-3.5269,-3.6257,-3.7846,-3.8501,-3.8946,-3.9284,-3.9953,-4.0281,-4.0407,-4.0407,-4.0407,-4.0407,-4.0405,-4.0413,-4.0396,-4.0279,-4.011,-3.9931,-3.9717,-3.9427,-3.9129,-3.8892,-3.8525,-3.8135,-3.7897,-3.745,-3.6823,-3.5931,-3.4252,-3.2525,-3.115,-2.9535,-2.8064,-2.7039,-2.6166,-2.513,-2.3706,-2.3377,-2.2984,-2.2047,-2.2706,-2.3301,-2.3414,-2.4965,-2.6034,-2.6162,-2.6287,-2.6051,-2.5265,-2.5347,-2.5009,-2.4101,-2.4587,-2.5126,-2.5604,-2.4972,-2.4671,-2.474,-2.4547,-2.4547,-2.4715,-2.4727,-2.4737,-2.5032,-2.4717,-2.4606,-2.5403,-2.5607,-2.5607,-2.5634,0.0,0.0,0.0,0.0,-2.3391,-2.2969,0.0,0.0,0.0,0.0,0.0,0.0,0.0,0.0,0.0,0.0,0.0,0.0,0.0,0.0,-2.9897,-2.998,-3.0061,-3.0098,-3.0157,-3.0376,-3.0758,-3.1257,-3.1726,-3.217,-3.2584,-3.2816,-3.2831,-3.2804,-3.2363,-3.1597,-3.1558,-3.1801,-3.2263,-3.2262,-3.3971,-3.6749,-3.6749,-3.7748,-3.9284,-3.9663,-3.9791,-3.9813,-4.0208,-4.0354,-4.0355,-4.0355,-4.0355,-4.0346,-4.0272,-4.0281,-4.0261,-4.009,-3.9897,-3.9679,-3.9464,-3.921,-3.8931,-3.8713,-3.835,-3.7966,-3.765,-3.683,-3.5871,-3.4948,-3.3539,-3.1995,-3.0526,-2.9089,-2.7797,-2.6762,-2.597,-2.4981,-2.3566,-2.3237,-2.2732,-2.1561,-2.2304,-2.324,-2.4042,-2.5326,-2.6417,-2.7132,-2.7274,-2.719,-2.6918,-2.693,-2.6651,-2.6033,-2.6199,-2.635,-2.6426,-2.5622,-2.5142,-2.4969,-2.4597,-2.4612,-2.4969,-2.4708,-2.4614,-2.5708,-2.5113,-2.4685,-2.5503,-2.5708,-2.5699,-2.569,-2.4865,0.0,0.0,0.0,0.0,0.0,0.0,0.0,0.0,0.0,0.0,0.0,0.0,0.0,0.0,0.0,0.0,0.0,0.0,0.0,-2.9897,-2.9956,-3.003,-3.0102,-3.015,-3.0211,-3.0211,-3.0854,-3.1312,-3.1503,-3.2126,-3.2527,-3.2699,-3.289,-3.2451,-3.1484,-3.1675,-3.2137,-3.28,-3.2785,-3.4619,-3.7603,-3.7767,-3.8708,-4.0086,-4.025,-4.0317,-4.0271,-4.0262,-4.0253,-4.0253,-4.0244,-4.0225,-4.0167,-3.9848,-3.9936,-4.0062,-3.9675,-3.9406,-3.9139,-3.8745,-3.8489,-3.8309,-3.8248,-3.7931,-3.7559,-3.7247,-3.6219,-3.5082,-3.424,-3.3121,-3.1712,-2.9896,-2.8659,-2.755,-2.6434,-2.5686,-2.4761,-2.3355,-2.3026,-2.2396,-2.0918,-2.1855,-2.3152,-2.4485,-2.5548,-2.6572,-2.7643,-2.7818,-2.8015,-2.8249,-2.8122,-2.7915,-2.765,-2.7514,-2.731,-2.6997,-2.6294,-2.5744,-2.532,-2.4924,-2.4924,-2.5294,-2.4841,-2.4571,-2.5708,-2.5113,-2.4685,-2.5503,-2.5708,-2.569,-2.5625,0.0,0.0,0.0,-2.1598,-2.0662,-2.1388,0.0,0.0,0.0,0.0,0.0,0.0,0.0,0.0,0.0,0.0,0.0,0.0,0.0,0.0,-2.9897,-2.9956,-3.0019,-3.0094,-3.0164,-3.0211,-3.0211,-3.0287,-3.0701,-3.1484,-3.158,-3.1973,-3.2718,-3.3509,-3.3012,-3.1439,-3.2222,-3.2672,-3.28,-3.2748,-3.4205,-3.6678,-3.7343,-3.8146,-3.9033,-3.9823,-4.0166,-4.0206,-4.0128,-4.0127,-4.0117,-4.0057,-3.9986,-3.9778,-3.8934,-3.9223,-3.974,-3.8749,-3.8259,-3.7865,-3.6993,-3.6643,-3.6655,-3.7171,-3.6883,-3.6451,-3.64,-3.5694,-3.4943,-3.4606,-3.3258,-3.1569,-2.9694,-2.8558,-2.7384,-2.5692,-2.5252,-2.463,-2.314,-2.281,-2.2182,-2.0716,-2.1641,-2.27,-2.3381,-2.5357,-2.6701,-2.6811,-2.7868,-2.8439,-2.822,-2.8186,-2.8063,-2.779,-2.765,-2.7382,-2.6927,-2.6596,-2.5967,-2.5033,-2.5525,-2.5511,-2.5047,-2.5108,-2.4824,-2.5838,-2.5466,-2.5187,-2.502,-2.4956,-2.4884,-2.4783,0.0,0.0,-2.2035,-2.1005,-2.0101,-1.9957,-2.0816,0.0,0.0,0.0,0.0,0.0,0.0,0.0,0.0,0.0,0.0,0.0,0.0,0.0,-2.9782,-2.9806,-2.9839,-2.9916,-3.0057,-3.0164,-3.0204,-3.0211,-3.0854,-3.2203,-3.2222,-3.289,-3.4208,-3.456,-3.3834,-3.2183,-3.2546,-3.242,-3.1984,-3.2443,-3.3739,-3.5598,-3.633,-3.7368,-3.8542,-3.8977,-3.9507,-4.0017,-3.9986,-3.9975,-3.9965,-3.9859,-3.9739,-3.9503,-3.8556,-3.847,-3.8527,-3.7661,-3.7242,-3.6948,-3.6514,-3.6277,-3.619,-3.6222,-3.6111,-3.6063,-3.6257,-3.5631,-3.4877,-3.4498,-3.3114,-3.1383,-2.9527,-2.8314,-2.7239,-2.6094,-2.537,-2.4697,-2.4014,-2.3537,-2.2714,-2.1237,-2.1835,-2.2477,-2.2675,-2.4585,-2.6189,-2.704,-2.7504,-2.783,-2.7934,-2.7965,-2.7915,-2.7815,-2.7675,-2.7433,-2.7045,-2.6774,-2.6263,-2.5528,-2.5767,-2.5767,-2.5542,-2.5603,-2.5246,-2.62,-2.6052,-2.5866,-2.5031,-2.4764,-2.4589,0.0,0.0,-2.1562,-2.1394,-2.0496,-1.9622,-1.93,-2.0255,-2.1288,0.0,0.0,0.0,0.0,0.0,0.0,0.0,0.0,0.0,0.0,0.0,-2.9401,-2.957,-2.958,-2.9598,-2.9654,-2.9794,-2.9934,-3.0113,-3.0128,-3.0829,-3.2268,-3.2313,-3.3169,-3.4846,-3.4846,-3.4235,-3.3081,-3.3054,-3.2714,-3.2145,-3.267,-3.3628,-3.4868,-3.5585,-3.6509,-3.7534,-3.8141,-3.8814,-3.9463,-3.9687,-3.9792,-3.9724,-3.9352,-3.9138,-3.8833,-3.766,-3.7195,-3.696,-3.6107,-3.594,-3.5984,-3.5634,-3.5535,-3.5475,-3.5062,-3.5173,-3.5519,-3.5904,-3.5431,-3.4836,-3.4522,-3.3189,-3.1482,-2.9646,-2.8493,-2.7495,-2.6474,-2.5833,-2.5335,-2.4875,-2.4228,-2.3297,-2.1861,-2.209,-2.2346,-2.2305,-2.3748,-2.5342,-2.6949,-2.7203,-2.7396,-2.777,-2.784,-2.7815,-2.774,-2.7575,-2.7331,-2.7045,-2.6747,-2.6365,-2.5893,-2.5893,-2.5893,-2.5907,-2.5903,-2.5588,-2.6888,-2.6888,-2.6674,-2.581,-2.5493,-2.5157,0.0,-2.2698,-2.1374,-2.1316,-1.9971,-1.9047,-1.9836,-2.0118,-2.0742,-2.2328,0.0,0.0,0.0,0.0,0.0,0.0,0.0,0.0,0.0,0.0,-2.852,-2.9258,-2.9304,-2.9306,-2.9309,-2.9309,-2.9495,-2.9888,-2.9964,-3.041,-3.1313,-3.1379,-3.2294,-3.4014,-3.4014,-3.3995,-3.3968,-3.3928,-3.384,-3.3771,-3.3648,-3.3986,-3.4658,-3.5341,-3.5565,-3.569,-3.743,-3.8184,-3.8418,-3.9214,-3.9495,-3.937,-3.8446,-3.8026,-3.762,-3.5893,-3.5283,-3.5041,-3.3963,-3.427,-3.4844,-3.3968,-3.4011,-3.4189,-3.3583,-3.3965,-3.4641,-3.5088,-3.4945,-3.4726,-3.4775,-3.3621,-3.2032,-3.0079,-2.92,-2.8273,-2.6574,-2.6724,-2.6671,-2.5475,-2.4733,-2.381,-2.2455,-2.2305,-2.2305,-2.2305,-2.2902,-2.4133,-2.6142,-2.6995,-2.7507,-2.777,-2.793,-2.788,-2.7625,-2.7361,-2.71,-2.6901,-2.6522,-2.6163,-2.5893,-2.5893,-2.5893,-2.5907,-2.5903,-2.5796,-2.5273,-2.5514,-2.5726,-2.4856,-2.4587,-2.4278,-2.3346,-2.2192,-2.1162,-2.0544,-1.9557,-1.8868,-1.9119,-2.0152,-2.1128,-2.1634,0.0,0.0,0.0,0.0,0.0,0.0,0.0,0.0,0.0,0.0,-2.8305,-2.9038,-2.9082,-2.9115,-2.9152,-2.9163,-2.9304,-2.9626,-2.9734,-3.0263,-3.1214,-3.1297,-3.1939,-3.3119,-3.3719,-3.3681,-3.3138,-3.3601,-3.3468,-3.286,-3.3232,-3.3404,-3.3492,-3.421,-3.477,-3.5242,-3.5919,-3.6935,-3.7983,-3.7697,-3.794,-3.8273,-3.7323,-3.6915,-3.6611,-3.5409,-3.4887,-3.455,-3.3604,-3.364,-3.3876,-3.3352,-3.3156,-3.3118,-3.3283,-3.3433,-3.3703,-3.4308,-3.4219,-3.3901,-3.3523,-3.2702,-3.1643,-3.0245,-2.9409,-2.8707,-2.7928,-2.7423,-2.7017,-2.6756,-2.5749,-2.465,-2.3779,-2.3271,-2.2978,-2.2978,-2.3163,-2.3933,-2.5481,-2.622,-2.671,-2.7037,-2.747,-2.76,-2.7265,-2.713,-2.6922,-2.6628,-2.6416,-2.6163,-2.5893,-2.5893,-2.6106,-2.6433,-2.6356,-2.6252,0.0,-2.5298,-2.5712,-2.4805,-2.4295,-2.3775,-2.2835,-2.1686,-2.0661,-2.011,-1.935,-1.8886,-1.9189,-2.0113,-2.1004,-2.1578,0.0,0.0,0.0,0.0,0.0,0.0,0.0,0.0,0.0,-2.7989,-2.805,-2.8791,-2.8846,-2.8858,-2.8905,-2.8917,-2.8996,-2.9193,-2.9426,-2.9898,-3.0588,-3.0665,-3.1184,-3.2137,-3.2678,-3.2983,-3.3092,-3.3501,-3.3516,-3.3251,-3.3548,-3.3545,0.0,-3.3776,-3.4176,-3.4559,-3.4731,-3.5491,-3.6411,-3.5905,-3.6226,-3.6793,-3.5858,-3.568,-3.565,-3.4694,-3.4093,-3.3663,-3.3053,-3.3006,-3.3086,-3.2718,-3.2454,-3.2336,-3.2556,-3.2546,-3.2659,-3.3375,-3.3351,-3.3096,-3.2844,-3.2252,-3.149,-3.041,-2.9854,-2.9356,-2.8688,-2.827,-2.7867,-2.7458,-2.6441,-2.5379,-2.4425,-2.3717,-2.3302,-2.3302,-2.3302,-2.3748,-2.4841,-2.5499,-2.6138,-2.6768,-2.7188,-2.732,-2.7214,-2.6985,-2.675,-2.651,-2.627,-2.6069,-2.5893,-2.6132,-2.6521,-2.7029,-2.6662,-2.6449,0.0,-2.5797,-2.6198,-2.5314,-2.4455,-2.3552,-2.2623,-2.1163,0.0,-1.993,-1.9314,-1.9029,-1.977,-1.9992,-2.0545,-2.1971,0.0,0.0,0.0,0.0,0.0,0.0,0.0,0.0,-2.8632,-2.7978,-2.7798,-2.8545,-2.86,-2.86,-2.86,-2.86,-2.8637,-2.8694,-2.9056,-2.9365,-2.9551,-2.9635,-3.0157,-3.1071,-3.1128,-3.2019,-3.3573,-3.3506,-3.3878,-3.455,-3.4351,-3.4173,-3.3985,-3.3921,-3.3873,-3.382,-3.3942,-3.402,-3.4079,-3.4005,-3.4491,-3.5056,-3.4197,-3.4357,-3.4742,-3.3698,-3.2981,-3.245,-3.216,-3.2298,-3.2471,-3.2092,-3.1931,-3.182,-3.1557,-3.1498,-3.1669,-3.2352,-3.2363,-3.2306,-3.2622,-3.219,-3.1482,-3.0584,-3.0447,-3.0107,-2.8962,-2.9155,-2.9014,-2.7667,-2.6857,-2.5918,-2.4625,-2.3825,-2.3363,-2.3363,-2.3363,-2.3625,-2.4256,-2.4896,-2.5761,-2.6814,-2.6957,-2.7122,-2.7348,-2.6956,-2.6698,-2.6582,-2.621,-2.6034,-2.6034,-2.6638,-2.7173,-2.757,-2.6892,-2.6521,-2.2986,0.0,-2.4527,-2.4205,-2.3516,-2.2666,0.0,-2.0712,-1.9823,0.0,0.0,0.0,0.0,0.0,0.0,0.0,0.0,0.0,0.0,0.0,0.0,0.0,0.0,0.0,-2.7779,-2.752,-2.7694,-2.8545,-2.86,-2.86,-2.86,-2.86,-2.8637,-2.8694,-2.8785,-2.8966,-2.9222,-2.9326,-2.9559,-2.9917,-3.0584,-3.1449,-3.2494,-3.3031,-3.3642,-3.4281,-3.4136,-3.3985,-3.386,-3.3815,-3.3802,-3.3807,-3.3834,-3.3865,-3.38,-3.318,-3.3456,-3.4044,-3.3209,-3.3435,-3.3872,-3.2493,-3.1813,-3.1317,-3.0196,-3.0888,-3.2038,-3.1875,-3.1765,-3.1635,-3.1519,-3.1498,-3.1532,-3.172,-3.1623,-3.1501,-3.1446,-3.126,-3.1011,-3.0704,-3.0443,-3.0081,-2.9496,-2.9297,-2.895,-2.8276,-2.7149,-2.6272,-2.5949,-2.4825,-2.4071,-2.4071,-2.4071,-2.4133,-2.4302,-2.4896,-2.5413,-2.5669,-2.6612,-2.7072,-2.687,-2.7104,-2.7205,-2.7189,-2.7301,-2.7369,-2.7369,-2.7945,-2.8019,-2.757,-2.736,-2.694,-2.1926,-2.2809,-2.3458,-2.3699,-2.2862,-2.1856,-2.1269,0.0,0.0,0.0,0.0,0.0,0.0,0.0,0.0,0.0,0.0,0.0,0.0,0.0,0.0,0.0,0.0,-2.7725,0.0,-2.7848,-2.8028,-2.8551,-2.86,-2.86,-2.86,-2.86,-2.8612,-2.8644,-2.8644,-2.8773,-2.9045,-2.913,-2.923,-2.9377,-2.9853,-3.0742,-3.1968,-3.2329,-3.3094,-3.4099,-3.3998,-3.3895,-3.3807,-3.3807,-3.3807,-3.3752,-3.3385,-3.3256,-3.3146,-3.2357,-3.2559,-3.317,-3.2708,-3.294,-3.3208,-3.1885,-3.124,-3.0733,-2.9468,-2.9792,-3.0551,-3.053,-3.0458,-3.0469,-3.0787,-3.0853,-3.0938,-3.1278,-3.1327,-3.1232,-3.1131,-3.0995,-3.0875,-3.0654,-3.0401,-3.0022,-2.9477,-2.9182,-2.8763,-2.8052,-2.7057,-2.6272,-2.5933,-2.4964,-2.4302,-2.4302,-2.4594,-2.4758,-2.4758,-2.541,-2.581,-2.581,-2.6727,-2.7291,-2.7291,-2.7679,-2.7824,-2.7682,-2.7565,-2.7623,-2.7841,-2.8083,-2.7956,-2.756,-2.7261,-2.6744,-2.1352,-2.2024,-2.2676,-2.3484,-2.2463,-2.1237,-2.1098,0.0,0.0,0.0,0.0,0.0,0.0,0.0,0.0,0.0,0.0,0.0,0.0,0.0,0.0,0.0,0.0,0.0,-2.8345,-2.8367,-2.8432,-2.8574,-2.8587,-2.86,-2.86,-2.8587,-2.8574,-2.8562,-2.8562,-2.8687,-2.891,-2.8934,-2.8996,-2.9123,-2.9123,-2.9961,-3.154,-3.1612,-3.2422,-3.3775,-3.3852,-3.386,-3.3793,-3.3793,-3.372,-3.3542,-3.2978,-3.2612,-3.2318,-3.1763,-3.197,-3.2567,-3.2602,-3.2734,-3.2737,-3.1442,-3.08,-3.0282,-2.909,-2.8692,-2.8654,-2.8654,-2.8908,-2.9314,-2.9939,-3.0173,-3.0391,-3.1019,-3.1151,-3.1151,-3.1151,-3.1052,-3.0858,-3.0576,-3.0305,-2.9913,-2.925,-2.8997,-2.8592,-2.7697,-2.698,-2.6287,-2.5542,-2.4887,-2.4425,-2.4317,-2.4804,-2.5189,-2.5281,-2.5964,-2.6426,-2.6534,-2.7088,-2.7631,-2.8126,-2.8445,-2.8458,-2.8181,-2.7595,-2.7495,-2.7898,-2.7597,-2.744,-2.7384,-2.6833,-2.623,-2.1152,-2.155,-2.1912,-2.3282,-2.2364,-2.1102,0.0,0.0,0.0,0.0,0.0,0.0,0.0,0.0,0.0,0.0,0.0,0.0,0.0,0.0,0.0,0.0,0.0,-2.7936,-2.8126,-2.8246,-2.838,-2.8523,-2.8574,-2.86,-2.86,-2.8549,-2.8497,-2.8419,-2.8419,-2.8445,-2.8484,-2.8612,-2.8694,-2.8779,-2.8779,-2.9326,-3.0393,-3.1066,-3.1885,-3.286,-3.3508,-3.378,-3.3712,-3.3712,-3.3282,-3.2661,-3.3227,-3.2611,-3.148,-3.2032,-3.2324,-3.2498,-3.2878,-3.2852,-3.234,-3.0466,-2.9729,-2.9282,-2.7572,-2.7063,-2.7046,-2.7046,-2.8433,-2.9973,-3.0074,-3.0487,-3.0881,-3.0998,-3.0992,-3.0952,-3.0952,-3.0834,-3.0692,-3.0531,-3.0156,-2.9744,-2.9335,-2.9021,-2.8677,-2.8306,-2.7673,-2.698,-2.6234,-2.5558,-2.4927,-2.4364,-2.4394,-2.4666,-2.525,-2.5911,-2.6573,-2.7211,-2.7334,-2.783,-2.8809,-2.8907,-2.8938,-2.8924,-2.8072,-2.7741,-2.7983,-2.7213,-2.6824,-2.6799,-2.6389,-2.5884,-2.0454,-2.0926,-2.1372,-2.242,-2.212,-2.1545,-2.1359,0.0,0.0,0.0,0.0,0.0,0.0,0.0,0.0,0.0,0.0,0.0,0.0,0.0,0.0,0.0,0.0,-2.7639,-2.7908,-2.8017,-2.8197,-2.8479,-2.8536,-2.8562,-2.86,-2.8497,-2.8375,-2.8233,-2.8268,-2.8268,-2.8233,-2.8401,-2.8562,-2.8694,-2.8657,-2.9112,-3.0007,-3.0352,-3.1177,-3.2393,-3.2771,-3.313,-3.3426,-3.3426,-3.2925,-3.2216,-3.3034,-3.2604,-3.1681,-3.2481,-3.2708,-3.264,-3.2769,-3.2587,-3.2039,-3.056,-2.9951,-2.9529,-2.8246,-2.7785,-2.7647,-2.7244,-2.7972,-2.8956,-2.9397,-3.0251,-3.1056,-3.122,-3.1216,-3.1111,-3.0897,-3.0563,-3.0284,-3.0156,-2.9962,-2.9661,-2.925,-2.899,-2.874,-2.8444,-2.7827,-2.7272,-2.6949,-2.5958,-2.5173,-2.4866,-2.4835,-2.5096,-2.5788,-2.648,-2.7196,-2.7904,-2.7863,-2.825,-2.9226,-2.8921,-2.8742,-2.8782,-2.7899,-2.717,-2.6703,-2.6007,-2.5534,-2.529,-2.4875,-2.44,-1.9838,-2.0279,-2.0769,-2.161,0.0,-2.1838,-2.1645,0.0,0.0,0.0,0.0,0.0,0.0,0.0,0.0,0.0,0.0,0.0,0.0,-2.6352,-2.6842,-2.7053,-2.7164,-2.7352,-2.7624,-2.7757,-2.7986,-2.8349,-2.8221,-2.8157,-2.8222,-2.7931,-2.7674,-2.7468,-2.7535,-2.7535,-2.7468,-2.7674,-2.8067,-2.8687,-2.8587,-2.8895,-2.9507,-2.9615,-3.0319,-3.1491,-3.1856,-3.2208,-3.2511,-3.2675,-3.2143,-3.1294,-3.2266,-3.2373,-3.2069,-3.2695,-3.2798,-3.2584,-3.2437,-3.2162,-3.1719,-3.0724,-3.0262,-2.988,-2.8971,-2.8588,-2.8308,-2.7504,-2.7629,-2.8144,-2.8782,-2.9866,-3.089,-3.1146,-3.1128,-3.0937,-3.0626,-3.0271,-2.9984,-2.9919,-2.9961,-2.9875,-2.9443,-2.9226,-2.9005,-2.8676,-2.8057,-2.758,-2.7411,-2.6318,-2.5481,-2.5312,-2.5158,-2.5389,-2.6227,-2.6911,-2.757,-2.818,-2.8137,-2.843,-2.9128,-2.8647,-2.8295,-2.8135,-2.7336,-2.6419,-2.5471,-2.4772,-2.4258,-2.3935,-2.3559,-2.3102,-1.9568,-1.9672,-1.9913,-2.1206,0.0,0.0,-2.1362,0.0,0.0,0.0,0.0,0.0,0.0,0.0,0.0,0.0,0.0,0.0,-2.6334,0.0,-2.664,-2.6725,-2.6908,-2.7071,-2.7228,-2.7478,-2.7751,-2.8028,-2.7401,-2.7041,-2.7124,-2.6347,-2.5808,-2.5592,-2.5658,-2.5658,-2.5592,-2.5778,-2.6816,-2.86,-2.8489,-2.838,-2.8331,-2.8955,-2.9262,-2.9396,-3.0838,-3.1058,-3.0464,-3.1156,-3.051,-2.9251,-3.0765,-3.1717,-3.2281,-3.2351,-3.2231,-3.2039,-3.1823,-3.1656,-3.138,-3.044,-3.0017,-2.9732,-2.8669,-2.8226,-2.7909,-2.6864,-2.7567,-2.8661,-2.8715,-2.9536,-3.0347,-3.0302,-3.0087,-2.9918,-2.9874,-2.9946,-3.0038,-3.0146,-3.0427,-3.0562,-3.0259,-2.9966,-2.9626,-2.936,-2.8765,-2.8104,-2.7473,-2.6765,-2.6057,-2.5358,-2.4748,-2.4875,-2.6107,-2.6717,-2.7219,-2.763,-2.7765,-2.794,-2.8193,-2.8024,-2.7675,-2.7127,-2.6378,-2.568,-2.5046,-2.3887,-2.3397,-2.3516,-2.3193,-2.2753,-1.8788,-1.9048,-1.9464,-2.0409,0.0,0.0,0.0,0.0,0.0,0.0,0.0,0.0,0.0,0.0,0.0,0.0,0.0,0.0,-2.5578,-2.6028,-2.6363,-2.6399,-2.6486,-2.6657,-2.6874,-2.7021,-2.7227,-2.7535,-2.6874,-2.6521,-2.6619,-2.5805,-2.5261,-2.515,-2.5185,-2.5185,-2.515,-2.5302,-2.58,-2.6623,-2.7157,-2.7348,-2.728,-2.7935,-2.8431,-2.8862,-2.9934,-3.0201,-2.9942,-3.0677,-3.0034,-2.8682,-2.9742,-3.0907,-3.2002,-3.2002,-3.1858,-3.1674,-3.1507,-3.1351,-3.112,-3.0732,-3.0379,-3.007,-2.9617,-2.927,-2.8838,-2.7938,-2.841,-2.9016,-2.8261,-2.9298,-3.0486,-3.0209,-3.0172,-3.0149,-3.0002,-3.0225,-3.0467,-3.0563,-3.1056,-3.1308,-3.0862,-3.0633,-3.0376,-3.0053,-2.9433,-2.8935,-2.8688,-2.7303,-2.6257,-2.601,-2.5364,-2.5063,-2.5429,-2.6148,-2.6579,-2.6598,-2.7123,-2.7473,-2.7554,-2.7216,-2.6784,-2.6199,-2.5506,-2.4664,-2.3691,-2.2946,-2.2444,-2.2174,-2.1992,-2.158,-1.8236,-1.8413,-1.8851,0.0,0.0,0.0,0.0,0.0,0.0,0.0,0.0,0.0,0.0,0.0,0.0,0.0,-2.4431,-2.4745,-2.4728,-2.5176,-2.5507,-2.5472,-2.556,-2.5681,-2.5915,-2.6014,-2.6159,-2.6473,-2.5779,-2.5421,-2.5547,-2.4753,-2.4257,-2.4204,-2.4204,-2.4204,-2.4204,-2.4327,-2.4433,-2.455,-2.5396,-2.5935,-2.6184,-2.6797,-2.7269,-2.7709,-2.873,-2.9006,-2.8817,-2.9558,-2.9351,-2.8647,-2.9145,-3.0276,-3.1614,-3.1614,-3.1502,-3.1312,-3.112,-3.0942,-3.0707,-3.0347,-3.0166,-3.0005,-2.9637,-2.9456,-2.9198,-2.8335,-2.8749,-2.9215,-2.8198,-2.9201,-3.0432,-3.0117,-3.0148,-3.0212,-2.9895,-3.025,-3.0642,-3.0771,-3.1436,-3.1862,-3.1442,-3.123,-3.1026,-3.0746,-3.0166,-2.9633,-2.9417,-2.7948,-2.6642,-2.5977,-2.5229,-2.4748,-2.4709,-2.5325,-2.5716,-2.5676,-2.6269,-2.6658,-2.6719,-2.6469,-2.5981,-2.5253,-2.4801,-2.3984,-2.2909,-2.2359,-2.1882,-2.1482,-2.1285,-2.0871,-1.8009,-1.78,0.0,0.0,0.0,0.0,0.0,0.0,0.0,0.0,0.0,0.0,0.0,0.0,0.0,-2.3984,-2.3984,-2.3968,-2.3902,-2.3951,-2.3968,-2.3902,-2.4,-2.4146,-2.4273,-2.4352,-2.4477,-2.4677,-2.3949,-2.3548,-2.3684,-2.2932,-2.2501,-2.2501,-2.2501,-2.2501,-2.2501,-2.2552,-2.2619,-2.2703,-2.3375,-2.4141,-2.5,-2.5596,-2.5784,-2.5677,-2.7148,-2.7367,-2.6742,-2.7486,-2.8281,-2.8993,-2.8993,-2.9907,-3.119,-3.119,-3.1112,-3.0955,-3.0601,-3.0414,-3.0136,-2.9116,-2.9162,-2.9399,-2.8408,-2.8469,-2.8685,-2.7697,-2.8365,-2.9258,-2.8596,-2.9262,-3.0085,-2.994,-2.9948,-2.9871,-2.9418,-2.9893,-3.0496,-3.0741,-3.1565,-3.2147,-3.2034,-3.1773,-3.1573,-3.1424,-3.0843,-3.0156,-2.9464,-2.8688,-2.7311,-2.5048,-2.4073,-2.374,-2.4057,-2.4346,-2.4658,-2.4964,-2.5244,-2.5467,-2.566,-2.5834,-2.5399,-2.4305,-2.4244,-2.377,-2.2891,-2.2242,-2.1839,-2.1694,-2.136,-2.0807,-1.7889,-1.7726,0.0,0.0,0.0,0.0,0.0,0.0,0.0,0.0,0.0,0.0,0.0,0.0,0.0,-2.3222,-2.3191,-2.3143,-2.3127,-2.3556,-2.3885,-2.3885,-2.3473,-2.3421,-2.4032,-2.3632,-2.358,-2.416,-2.351,-2.3122,-2.3194,-2.249,-2.2101,-2.2144,-2.2158,-2.2158,-2.2158,-2.2172,-2.2231,-2.2352,-2.2558,-2.3119,-2.4039,-2.4643,-2.515,-2.5579,-2.6505,-2.6756,-2.6571,-2.679,-2.763,-2.879,-2.879,-2.9698,-3.0992,-3.0992,-3.0777,-3.0477,-3.0342,-3.007,-2.968,-2.8802,-2.8846,-2.9085,-2.8223,-2.8302,-2.8622,-2.8198,-2.8396,-2.8873,-2.9602,-3.0068,-3.0185,-2.9679,-2.971,-2.9742,-2.9248,-3.0196,-3.1102,-3.1014,-3.1956,-3.2656,-3.235,-3.2214,-3.216,-3.209,-3.152,-3.0442,-2.8646,-2.7931,-2.6872,-2.5059,-2.435,-2.4009,-2.3954,-2.4163,-2.428,-2.4285,-2.4583,-2.4893,-2.5202,-2.543,-2.5144,-2.4331,-2.4368,-2.404,-2.3256,-2.2962,-2.2678,-2.2392,-2.2292,-2.1857,-1.7687,0.0,0.0,0.0,0.0,0.0,0.0,0.0,0.0,0.0,0.0,0.0,0.0,-2.2352,0.0,-2.2305,-2.2243,-2.2196,-2.2133,-2.2443,-2.2703,-2.2785,-2.241,-2.2246,-2.252,-2.2373,-2.234,-2.252,-2.2388,-2.2368,-2.2491,-2.2059,-2.1855,-2.1911,-2.1882,-2.1853,-2.1792,-2.1853,-2.1915,-2.1993,-2.2022,-2.2341,-2.2924,-2.3684,-2.4181,-2.451,-2.5344,-2.5853,-2.61,-2.61,-2.6813,-2.7855,-2.7855,-2.8585,-2.9669,-2.9669,-2.9469,-2.9205,-2.9031,-2.8774,-2.8385,-2.7474,-2.774,-2.8294,-2.75,-2.7845,-2.8517,-2.842,-2.8596,-2.8972,-2.9787,-3.0202,-3.0294,-2.9879,-2.9964,-2.9909,-2.9194,-3.0148,-3.1142,-3.1036,-3.2014,-3.2753,-3.2453,-3.2398,-3.2398,-3.2398,-3.1747,-3.0659,-2.8997,-2.7935,-2.6794,-2.5408,-2.4657,-2.4084,-2.3616,-2.3863,-2.4001,-2.3877,-2.4188,-2.4469,-2.471,-2.4962,-2.4888,-2.4488,-2.4221,-2.3899,-2.361,-2.3372,-2.3294,-2.3317,-2.3317,-2.2896,0.0,0.0,0.0,0.0,0.0,0.0,0.0,0.0,0.0,0.0,0.0,0.0,0.0,-2.1449,-2.1496,-2.1386,-2.1277,-2.1183,-2.1055,-2.0974,-2.0942,-2.1023,-2.1023,-2.0845,-2.0357,-2.081,-2.0907,-2.0356,-2.0952,-2.1433,-2.1632,-2.1648,-2.1694,-2.1753,-2.1678,-2.157,-2.1447,-2.1572,-2.1617,-2.1617,-2.1693,-2.1721,-2.1769,-2.2705,-2.3024,-2.2909,-2.4009,-2.4825,-2.5403,-2.5449,-2.5904,-2.6568,-2.6568,-2.7044,-2.7753,-2.7753,-2.7672,-2.7504,-2.719,-2.6998,-2.6694,-2.5642,-2.6257,-2.7257,-2.6511,-2.728,-2.8411,-2.8411,-2.8842,-2.931,-2.9371,-2.9848,-3.0309,-3.0309,-3.0397,-3.0179,-2.9084,-2.9873,-3.0791,-3.0851,-3.1793,-3.2551,-3.2425,-3.2398,-3.2398,-3.237,-3.1588,-3.0749,-3.0026,-2.8494,-2.7015,-2.5896,-2.4998,-2.4109,-2.3245,-2.3581,-2.3792,-2.3721,-2.3911,-2.4094,-2.4256,-2.4487,-2.4626,-2.4651,-2.3911,-2.3669,-2.3921,-2.3652,-2.3786,-2.4258,-2.4258,-2.3855,0.0,0.0,0.0,0.0,0.0,0.0,0.0,0.0,0.0,0.0,0.0,0.0,-2.0879,-2.1071,-2.1055,-2.1087,-2.091,-2.0697,-2.0499,-2.0414,-2.0398,-2.0465,-2.0013,-1.9922,-2.0412,-2.0066,-2.0003,-2.0412,-2.0749,-2.1007,-2.1213,-2.1293,-2.1341,-2.1402,-2.1245,-2.1087,-2.0942,-2.0974,-2.1007,-2.1071,-2.1087,-2.1119,-2.1182,-2.172,-2.2145,-2.2508,-2.3727,-2.4347,-2.4521,-2.5048,-2.5705,-2.6366,-2.6366,-2.6824,-2.7492,-2.7492,-2.7363,-2.7179,-2.6998,-2.6782,-2.6439,-2.5577,-2.6257,-2.7257,-2.6511,-2.728,-2.8411,-2.8411,-2.8504,-2.875,-2.9248,-2.9494,-2.9602,-2.9602,-2.9627,-2.9446,-2.8662,-2.9558,-3.049,-3.05,-3.157,-3.2425,-3.2398,-3.2398,-3.2315,-3.2122,-3.1474,-3.0615,-2.9595,-2.8471,-2.7244,-2.5805,-2.5181,-2.4596,-2.3929,-2.3995,-2.3974,-2.3842,-2.3666,-2.3644,-2.3817,-2.4381,-2.4566,-2.4328,-2.4447,-2.4389,-2.4136,-2.4418,-2.4648,-2.4751,-2.4751,-2.4352,0.0,0.0,0.0,0.0,0.0,0.0,0.0,0.0,0.0,0.0,0.0,0.0,-2.0538,-2.068,-2.0647,-2.0615,-2.0446,-2.0239,-2.0035,-1.9965,-1.9997,-2.0054,-1.9749,-1.9599,-1.9716,-1.9716,-1.9699,-1.9716,-2.0225,-2.0598,-2.0845,-2.0925,-2.099,-2.1055,-2.0877,-2.0696,-2.0561,-2.0595,-2.0629,-2.0663,-2.068,-2.0697,-2.0714,-2.0958,-2.1358,-2.1905,-2.2436,-2.3033,-2.3655,-2.4014,-2.4561,-2.5206,-2.5206,-2.5446,-2.5764,-2.5764,-2.5712,-2.56,-2.5536,-2.5413,-2.5222,-2.4799,-2.5632,-2.6757,-2.6366,-2.7257,-2.8411,-2.8411,-2.8411,-2.8488,-2.8842,-2.8935,-2.891,-2.8845,-2.9362,-2.9694,-2.9002,-2.9935,-3.0889,-3.0889,-3.1651,-3.2287,-3.2219,-3.2064,-3.1851,-3.1466,-3.0999,-3.0304,-2.9339,-2.856,-2.7624,-2.6361,-2.5722,-2.5145,-2.457,-2.4223,-2.392,-2.3684,-2.3343,-2.3188,-2.323,-2.3721,-2.4023,-2.4083,-2.4365,-2.4533,-2.4545,-2.4786,-2.5038,-2.5302,-2.5543,-2.5097,0.0,0.0,0.0,0.0,0.0,0.0,0.0,0.0,0.0,0.0,0.0,-1.9441,-2.0148,-2.0256,-2.0189,-2.0087,-1.9942,-1.9777,-1.9599,-1.9581,-1.9603,-1.9678,-1.9678,-1.9444,-1.8833,-1.9333,-1.9439,-1.8818,-1.9476,-2.0051,-2.0447,-2.0512,-2.0594,-2.0678,-2.0478,-2.0323,-2.02,-2.0239,-2.0273,-2.0291,-2.034,-2.0325,-2.0291,-2.0344,-2.0638,-2.1157,-2.1023,-2.1671,-2.2788,-2.2894,-2.3349,-2.394,-2.394,-2.394,-2.394,-2.3961,-2.3961,-2.394,-2.3961,-2.4037,-2.4106,-2.4106,-2.5097,-2.6306,-2.6329,-2.7294,-2.8372,-2.8387,-2.8411,-2.8411,-2.8411,-2.8372,-2.8354,-2.8388,-2.9353,-3.0098,-2.9465,-3.038,-3.1328,-3.1328,-3.1689,-3.1951,-3.1796,-3.1451,-3.1058,-3.0644,-3.0238,-2.9732,-2.9053,-2.8495,-2.7845,-2.6952,-2.6319,-2.5702,-2.5127,-2.4386,-2.3812,-2.3482,-2.2989,-2.2677,-2.2511,-2.2885,-2.3301,-2.3768,-2.4069,-2.4384,-2.4711,-2.4803,-2.5123,-2.56,-2.6062,-2.5627,0.0,0.0,0.0,0.0,0.0,0.0,0.0,0.0,0.0,0.0,-1.9169,-1.9386,-1.9729,-1.9654,-1.9545,-1.9603,-1.9384,-1.9191,-1.9111,-1.9093,-1.913,-1.9195,-1.918,-1.8947,-1.8352,-1.8381,-1.8396,-1.8308,-1.8499,-1.9011,-1.9864,-1.9927,-1.9997,-2.0187,-1.9997,-1.9856,-1.978,-1.9797,-1.9782,-1.9782,-1.98,-1.98,-1.9782,-1.98,-1.995,-2.021,-2.0697,-2.128,-2.1934,-2.2504,-2.3104,-2.3653,-2.3653,-2.3653,-2.3674,-2.3782,-2.3739,-2.3674,-2.3797,-2.413,-2.4515,-2.4515,-2.5506,-2.6747,-2.6858,-2.7518,-2.8235,-2.8372,-2.8411,-2.8411,-2.8411,-2.8323,-2.8388,-2.8945,-2.9427,-2.966,-2.9169,-3.0107,-3.1049,-3.1049,-3.1116,-3.1102,-3.0911,-3.0405,-2.995,-2.969,-2.9156,-2.8661,-2.843,-2.7941,-2.7367,-2.6804,-2.6641,-2.6257,-2.5514,-2.4653,-2.4026,-2.3679,-2.2651,-2.1987,-2.1851,-2.2434,-2.281,-2.2879,-2.3754,-2.415,-2.4025,-2.4505,-2.4895,-2.52,-2.5267,-2.5125,0.0,0.0,0.0,0.0,0.0,0.0,0.0,0.0,0.0,0.0,-1.8743,-1.9101,-1.9325,-1.9265,-1.9172,-1.9161,-1.903,-1.8912,-1.8827,-1.8851,-1.8889,-1.887,-1.887,-1.8607,-1.7941,-1.7902,-1.7942,-1.8029,-1.8193,-1.8673,-1.9579,-1.9675,-1.9764,-1.9927,-1.9764,-1.9672,-1.9632,-1.9578,-1.9527,-1.9527,-1.9614,-1.9596,-1.9527,-1.9527,-1.9614,-1.9771,-1.9857,-2.0381,-2.1196,-2.1314,-2.191,-2.2748,-2.2748,-2.2838,-2.3009,-2.3224,-2.3326,-2.3326,-2.329,-2.362,-2.4017,-2.3777,-2.4776,-2.61,-2.6327,-2.7076,-2.7915,-2.8128,-2.8192,-2.8192,-2.8192,-2.8402,-2.8703,-2.8915,-2.9595,-2.9998,-2.9413,-3.0332,-3.1217,-3.0947,-3.0749,-3.051,-3.0133,-2.9701,-2.931,-2.9058,-2.8643,-2.8421,-2.8505,-2.7933,-2.7529,-2.7661,-2.6967,-2.6311,-2.5703,-2.4861,-2.4131,-2.3583,-2.2965,-2.2521,-2.2271,-2.2787,-2.304,-2.2936,-2.375,-2.4091,-2.3897,-2.4002,-2.4078,-2.4102,-2.4293,-2.4109,0.0,0.0,0.0,0.0,0.0,0.0,0.0,0.0,0.0,0.0,-1.8374,-1.876,-1.8855,-1.8903,-1.8903,-1.887,-1.8779,-1.8721,-1.8692,-1.8683,-1.863,-1.8548,-1.8503,-1.8103,-1.7195,-1.7218,-1.7345,-1.7526,-1.7737,-1.8298,-1.9339,-1.945,-1.9527,-1.966,-1.9545,-1.9465,-1.9417,-1.9358,-1.9339,-1.9376,-1.9446,-1.9395,-1.9269,-1.9195,-1.9195,-1.9265,-1.9101,-1.9636,-2.0599,-2.0323,-2.0943,-2.2025,-2.2025,-2.2165,-2.2411,-2.2694,-2.2938,-2.3082,-2.3045,-2.3392,-2.3822,-2.3497,-2.4416,-2.5698,-2.6006,-2.6779,-2.76,-2.7905,-2.7995,-2.805,-2.8192,-2.8551,-2.8927,-2.9181,-2.9737,-3.0086,-2.9755,-3.0397,-3.0881,-3.0494,-3.0117,-2.9718,-2.9341,-2.8944,-2.8619,-2.836,-2.817,-2.8219,-2.856,-2.8088,-2.7868,-2.8265,-2.7359,-2.6491,-2.5946,-2.5012,-2.4207,-2.3593,-2.324,-2.2979,-2.2707,-2.3132,-2.3301,-2.3089,-2.372,-2.3934,-2.3666,-2.3568,-2.3466,-2.3346,-2.3671,-2.3469,0.0,0.0,0.0,0.0,0.0,0.0,0.0,0.0,0.0,0.0,-1.8215,-1.8459,-1.8268,-1.8498,-1.8711,-1.8711,-1.8595,-1.8556,-1.8673,-1.8489,-1.8285,-1.8145,-1.7954,-1.7307,-1.5928,-1.5973,-1.6226,-1.6547,-1.675,-1.7534,-1.9029,-1.912,-1.9176,-1.9321,-1.9195,-1.9053,-1.893,-1.9068,-1.9176,-1.9302,-1.9176,-1.9068,-1.8912,-1.8674,-1.8481,-1.8383,-1.8688,-1.9324,-2.013,-2.0049,-2.0739,-2.1817,-2.1817,-2.1888,-2.2077,-2.2397,-2.2762,-2.3146,-2.3297,-2.3931,-2.4618,-2.4471,-2.5184,-2.6135,-2.6544,-2.7004,-2.7503,-2.788,-2.7995,-2.8156,-2.8794,-2.8755,-2.8835,-3.012,-2.9883,-2.9534,-3.0139,-2.9919,-2.9549,-2.9421,-2.8949,-2.8546,-2.8384,-2.7941,-2.7603,-2.757,-2.7556,-2.7766,-2.8342,-2.8394,-2.8278,-2.8144,-2.778,-2.7177,-2.6267,-2.5036,-2.422,-2.3966,-2.3178,-2.2719,-2.2719,-2.3132,-2.3301,-2.3089,-2.3455,-2.3446,-2.3038,-2.3221,-2.3374,-2.3484,-2.369,-2.3665,0.0,0.0,0.0,0.0,0.0,0.0,0.0,0.0,0.0,-1.6704,-1.6927,-1.7089,-1.6884,-1.7631,-1.8234,-1.8189,-1.8143,-1.8123,-1.8183,-1.8036,-1.7848,-1.7666,-1.7503,-1.687,-1.5508,-1.5522,-1.5603,-1.5612,-1.5789,-1.6393,-1.7505,-1.7548,-1.777,-1.8262,-1.811,-1.8182,-1.8505,-1.8693,-1.8779,-1.8774,-1.8779,-1.8693,-1.8505,-1.8358,-1.8214,-1.8049,-1.8082,-1.8686,-1.9632,-1.9387,-2.0014,-2.1082,-2.1082,-2.1204,-2.1385,-2.1698,-2.218,-2.2719,-2.2705,-2.3312,-2.4055,-2.3767,-2.4448,-2.5495,-2.5973,-2.6496,-2.7151,-2.8113,-2.8402,-2.8527,-2.9215,-2.952,-2.9739,-3.0148,-2.9499,-2.8813,-2.8971,-2.9153,-2.9166,-2.8894,-2.8592,-2.8287,-2.8039,-2.7656,-2.7369,-2.7369,-2.7268,-2.742,-2.801,-2.8027,-2.8029,-2.802,-2.754,-2.6825,-2.5841,-2.4921,-2.4235,-2.3758,-2.3455,-2.3281,-2.3281,-2.3426,-2.3444,-2.3226,-2.3519,-2.3498,-2.3183,-2.2678,-2.2499,-2.2594,-2.2219,-2.2103,-1.4224,0.0,0.0,0.0,0.0,0.0,0.0,0.0,0.0,-1.6033,-1.6213,-1.6312,-1.6046,-1.6621,-1.7127,-1.7141,-1.7121,-1.7188,-1.7364,-1.7257,-1.7082,-1.6857,-1.6685,-1.6072,-1.4765,-1.4752,-1.482,-1.4831,-1.5014,-1.553,-1.6421,-1.648,-1.6759,-1.739,-1.7372,-1.7577,-1.8028,-1.8167,-1.824,-1.8268,-1.8299,-1.8226,-1.8088,-1.7935,-1.7788,-1.7666,-1.757,-1.8195,-1.9278,-1.9002,-1.9614,-2.0699,-2.0699,-2.0917,-2.1264,-2.1549,-2.2173,-2.289,-2.2824,-2.3313,-2.3908,-2.3596,-2.4144,-2.502,-2.5577,-2.6122,-2.684,-2.8068,-2.8434,-2.8628,-2.9548,-3.0008,-3.0148,-2.974,-2.9012,-2.8384,-2.8189,-2.8379,-2.8509,-2.8249,-2.8118,-2.7941,-2.7689,-2.7335,-2.71,-2.7019,-2.6794,-2.6848,-2.7404,-2.7468,-2.7452,-2.7492,-2.7126,-2.6408,-2.527,-2.4728,-2.4189,-2.353,-2.3564,-2.3549,-2.342,-2.3694,-2.3718,-2.3327,-2.3607,-2.362,-2.3364,-2.2594,-2.2177,-2.207,-2.1551,-2.1148,0.0,0.0,0.0,0.0,0.0,0.0,0.0,0.0,-1.623,-1.602,-1.6168,-1.6231,-1.5823,-1.5509,-1.5378,-1.5488,-1.5552,-1.577,-1.6297,-1.621,-1.6002,-1.5713,-1.5521,-1.4898,-1.3621,-1.3612,-1.384,-1.4228,-1.4448,-1.4968,-1.5856,-1.5946,-1.6199,-1.6723,-1.707,-1.734,-1.7449,-1.7482,-1.7598,-1.7767,-1.772,-1.77,-1.7679,-1.7352,-1.7199,-1.7199,-1.7199,-1.793,-1.9074,-1.8957,-1.9614,-2.0699,-2.0699,-2.1103,-2.1732,-2.1975,-2.2764,-2.3683,-2.3767,-2.4002,-2.4263,-2.4128,-2.4419,-2.4892,-2.5412,-2.5906,-2.6533,-2.7749,-2.8074,-2.8383,-2.9734,-3.0044,-2.9839,-2.898,-2.8514,-2.8189,-2.7842,-2.7656,-2.749,-2.749,-2.749,-2.7469,-2.7302,-2.6964,-2.6611,-2.6427,-2.6104,-2.6081,-2.6574,-2.666,-2.6636,-2.6493,-2.6537,-2.6032,-2.4641,-2.4459,-2.4093,-2.3375,-2.3536,-2.3465,-2.2997,-2.3852,-2.4057,-2.3386,-2.3633,-2.3697,-2.3481,-2.2946,-2.249,-2.2059,-2.1769,-2.1038,-1.42,0.0,0.0,0.0,0.0,0.0,0.0,0.0,0.0,-1.5528,-1.5251,-1.4911,-1.4509,-1.4163,-1.3849,-1.3552,-1.4393,-1.5286,-1.582,-1.5795,-1.5665,-1.55,-1.5356,-1.4785,-1.3621,-1.3587,-1.3564,-1.3443,-1.3493,-1.3683,-1.4024,-1.455,-1.4912,-1.5058,-1.6003,-1.6511,-1.6564,-1.7051,-1.7323,-1.7372,-1.744,-1.744,-1.7344,-1.724,-1.7199,-1.7199,-1.7199,-1.7874,-1.8957,-1.8911,-1.9614,-2.0699,-2.0699,-2.1053,-2.1564,-2.1628,-2.2365,-2.3336,-2.3351,-2.3717,-2.4157,-2.4112,-2.4319,-2.4666,-2.5048,-2.5398,-2.5952,-2.7414,-2.7798,-2.8068,-2.9227,-2.9247,-2.8853,-2.8514,-2.8072,-2.7689,-2.759,-2.7523,-2.749,-2.749,-2.7436,-2.7268,-2.6918,-2.6577,-2.6233,-2.5873,-2.5629,-2.5454,-2.5457,-2.5865,-2.6066,-2.5884,-2.5922,-2.5743,-2.5273,-2.4398,-2.3897,-2.3883,-2.3171,-2.2842,-2.3056,-2.3158,-2.3065,-2.29,-2.3338,-2.3307,-2.2702,-2.2206,-2.1896,-2.1787,-2.1051,-2.0244,0.0,0.0,0.0,0.0,0.0,0.0,0.0,-1.558,0.0,0.0,-1.4966,-1.4533,-1.4068,-1.3702,-1.334,-1.2855,-1.3471,-1.428,-1.5022,-1.5073,-1.5045,-1.4943,-1.487,-1.4385,-1.3276,-1.3204,-1.3046,-1.2626,-1.2538,-1.2526,-1.2552,-1.3437,-1.3981,-1.4061,-1.5324,-1.599,-1.599,-1.6602,-1.6926,-1.6981,-1.7078,-1.7099,-1.7086,-1.7086,-1.7094,-1.7115,-1.7115,-1.7809,-1.8911,-1.8911,-1.9614,-2.0725,-2.0949,-2.1368,-2.189,-2.2139,-2.2778,-2.3561,-2.3561,-2.3825,-2.4083,-2.4083,-2.4402,-2.4837,-2.517,-2.5563,-2.6246,-2.7799,-2.8405,-2.868,-2.8947,-2.8707,-2.8352,-2.8124,-2.7776,-2.749,-2.749,-2.749,-2.7503,-2.7436,-2.7235,-2.693,-2.6543,-2.6047,-2.5594,-2.53,-2.5004,-2.4778,-2.4563,-2.4759,-2.4957,-2.4932,-2.5081,-2.5083,-2.4927,-2.4371,-2.3914,-2.357,-2.3044,-2.2636,-2.2443,-2.262,-2.2533,-2.2076,-2.2549,-2.2402,-2.149,-2.1575,-2.1222,-2.0483,-1.9821,-1.9233,-1.6202,-1.6435,0.0,0.0,0.0,0.0,-1.5842,-1.5712,-1.5566,0.0,-1.5133,-1.4768,-1.4262,-1.3885,-1.3497,-1.3017,-1.2878,-1.318,-1.4164,-1.4241,-1.4229,-1.4277,-1.4229,-1.3787,-1.277,-1.2656,-1.2435,-1.195,-1.1775,-1.1616,-1.1456,-1.253,-1.3235,-1.3434,-1.4799,-1.5532,-1.5532,-1.6144,-1.65,-1.6611,-1.6654,-1.674,-1.6833,-1.6854,-1.6897,-1.696,-1.6981,-1.77,-1.8888,-1.8911,-1.9614,-2.0739,-2.1289,-2.1877,-2.2479,-2.2986,-2.3561,-2.4083,-2.4083,-2.4083,-2.4083,-2.4083,-2.4593,-2.5233,-2.5538,-2.6146,-2.6999,-2.8502,-2.9328,-2.9537,-2.8785,-2.84,-2.8124,-2.7842,-2.7623,-2.749,-2.749,-2.749,-2.7436,-2.7268,-2.6918,-2.6508,-2.6117,-2.5406,-2.485,-2.4682,-2.4345,-2.4043,-2.3861,-2.3686,-2.3724,-2.3985,-2.4264,-2.4371,-2.4247,-2.4378,-2.4025,-2.3014,-2.3056,-2.2659,-2.1614,-2.2239,-2.2158,-2.1171,-2.1501,-2.1098,-2.0051,-2.0885,-2.0431,-1.874,-1.8559,-1.8275,-1.6139,-1.641,-1.6686,-1.622,0.0,0.0,-1.5913,-1.5813,-1.5726,0.0,-1.5329,-1.5041,-1.4721,-1.4294,-1.3822,-1.3319,-1.3121,-1.3336,-1.4184,-1.3927,-1.3819,-1.4241,-1.3826,-1.3216,-1.2526,-1.2365,-1.2229,-1.2082,-1.1791,-1.1472,-1.1119,-1.1786,-1.2258,-1.247,-1.3797,-1.4489,-1.4489,-1.5566,-1.611,-1.6132,-1.6362,-1.647,-1.65,-1.6543,-1.6629,-1.6761,-1.6854,-1.7639,-1.8835,-1.8865,-1.9614,-2.0739,-2.1289,-2.1877,-2.2479,-2.2986,-2.3561,-2.4083,-2.4083,-2.4083,-2.4083,-2.4083,-2.4534,-2.5144,-2.5603,-2.6204,-2.6965,-2.8158,-2.8588,-2.8654,-2.8481,-2.8044,-2.7656,-2.7556,-2.7523,-2.749,-2.749,-2.7436,-2.7235,-2.6897,-2.6496,-2.6022,-2.5358,-2.4743,-2.4225,-2.3897,-2.3787,-2.3629,-2.3446,-2.3577,-2.3777,-2.4061,-2.4307,-2.4612,-2.4944,-2.4554,-2.4167,-2.3948,-2.3118,-2.2474,-2.2063,-2.173,-2.1327,-2.096,-2.0351,-1.9765,-1.9241,-1.9722,-1.9496,-1.8559,-1.8335,-1.7967,-1.7731,-1.7448,-1.7185,-1.6757,0.0,0.0,0.0,0.0,-1.5813,-1.5726,-1.5507,-1.5269,-1.4967,-1.4564,-1.4117,-1.3539,-1.3276,-1.3332,-1.384,-1.3662,-1.359,-1.3867,-1.3517,-1.2997,-1.2316,-1.2102,-1.18,-1.1331,-1.101,-1.0787,-1.0602,-1.1364,-1.1886,-1.2095,-1.3369,-1.4083,-1.4157,-1.5013,-1.5467,-1.5546,-1.5691,-1.5758,-1.5758,-1.579,-1.5935,-1.6154,-1.6371,-1.7273,-1.8603,-1.8776,-1.9593,-2.0739,-2.1289,-2.1864,-2.2452,-2.3014,-2.3561,-2.4083,-2.4083,-2.4083,-2.4083,-2.4083,-2.47,-2.5511,-2.6073,-2.7249,-2.8464,-2.8739,-2.8865,-2.88,-2.8499,-2.7954,-2.749,-2.749,-2.749,-2.7503,-2.7403,-2.7335,-2.7134,-2.6543,-2.5896,-2.524,-2.4779,-2.4082,-2.3519,-2.3335,-2.3298,-2.3224,-2.3038,-2.3237,-2.3491,-2.3775,-2.4049,-2.4388,-2.4829,-2.4545,-2.4179,-2.3721,-2.3182,-2.2517,-2.1713,-2.1164,-2.0507,-1.9775,-1.9044,-1.8502,-1.8191,-1.8179,-1.797,-1.7592,-1.7415,-1.7162,0.0,0.0,0.0,0.0,0.0,-1.6262,0.0,0.0,0.0,0.0,0.0,0.0,0.0,0.0,0.0,0.0,0.0,0.0,0.0,-1.3373,0.0,-1.3481,-1.321,-1.2749,-1.2112,-1.1792,-1.1282,-1.0489,-1.027,-1.0182,-1.0147,-1.1011,-1.1595,-1.1783,-1.3007,-1.3706,-1.3858,-1.4474,-1.4869,-1.4994,-1.5017,-1.5028,-1.5028,-1.5028,-1.5187,-1.5524,-1.579,-1.6835,-1.8333,-1.8626,-1.951,-2.0714,-2.1289,-2.1864,-2.2467,-2.3014,-2.3561,-2.4083,-2.4083,-2.4083,-2.4083,-2.4083,-2.501,-2.625,-2.6974,-2.8556,-3.0022,-2.9706,-2.9401,-2.9048,-2.8682,-2.8012,-2.7469,-2.7469,-2.7436,-2.7369,-2.7268,-2.7201,-2.6998,-2.6336,-2.5323,-2.4528,-2.4348,-2.3497,-2.2889,-2.2889,-2.2889,-2.2847,-2.2794,-2.2994,-2.3277,-2.3591,-2.3857,-2.4146,-2.4466,-2.4497,-2.4115,-2.3246,-2.3267,-2.2713,-2.1245,-2.0582,-1.9666,-1.8435,-1.7892,-1.7497,-1.727,-1.6853,-1.6607,-1.6574,-1.643,-1.64,0.0,0.0,0.0,0.0,-1.7147,0.0,0.0,0.0,-1.6041,-1.5913,0.0,0.0,0.0,0.0,0.0,0.0,0.0,0.0,-1.3034,-1.2976,-1.3106,-1.3464,-1.2803,-1.2189,-1.1877,-1.133,-1.0766,-1.0193,-1.0392,-1.035,-0.9957,-1.0484,-1.0874,-1.1008,-1.2139,-1.2807,-1.2945,-1.3948,-1.4512,-1.4673,-1.472,-1.4755,-1.4755,-1.4755,-1.4903,-1.5176,-1.5501,-1.6528,-1.7989,-1.8437,-1.9378,-2.0601,-2.1238,-2.1877,-2.2465,-2.3014,-2.3561,-2.4083,-2.4083,-2.4083,-2.4083,-2.4083,-2.5545,-2.7516,-2.8647,-2.9523,-3.0192,-3.0673,-2.9666,-2.8616,-2.9087,-2.8256,-2.7302,-2.7302,-2.718,-2.7045,-2.7045,-2.6897,-2.6645,-2.6267,-2.5099,-2.4131,-2.3995,-2.315,-2.2478,-2.2478,-2.2478,-2.26,-2.3015,-2.3287,-2.3652,-2.4073,-2.4325,-2.4445,-2.4497,-2.4497,-2.4115,-2.3246,-2.3567,-2.3042,-2.1265,-1.9871,-1.8736,-1.7799,-1.7392,-1.7057,-1.6779,-1.6566,-1.6319,-1.6177,-1.6216,-1.6119,0.0,0.0,0.0,0.0,0.0,0.0,-1.6242,0.0,-1.6188,0.0,0.0,0.0,0.0,0.0,0.0,0.0,-1.4315,0.0,0.0,0.0,-1.2893,0.0,0.0,-1.1963,-1.1348,-1.0603,-1.0165,-1.0207,-1.0091,-1.0044,-1.0132,-1.0567,-1.0835,-1.0895,-1.1851,-1.2481,-1.267,-1.3348,-1.3823,-1.4022,-1.4059,-1.4071,-1.4071,-1.4071,-1.4222,-1.4477,-1.4789,-1.5835,-1.7363,-1.7869,-1.8855,-2.0131,-2.0566,-2.1407,-2.244,-2.2635,-2.3315,-2.4083,-2.4083,-2.4083,-2.42,-2.4853,-2.6425,-2.8177,-2.9026,-2.968,-3.014,-3.0424,-2.947,-2.8438,-2.856,-2.7958,-2.7268,-2.7146,-2.7045,-2.6977,-2.6841,-2.676,-2.6577,-2.6107,-2.4992,-2.4114,-2.4123,-2.3188,-2.2471,-2.2471,-2.2702,-2.2953,-2.3142,-2.3501,-2.3825,-2.4023,-2.4323,-2.4497,-2.4497,-2.4497,-2.4228,-2.3629,-2.3268,-2.2432,-2.0917,-1.9891,-1.8783,-1.7554,-1.7098,-1.6689,-1.6335,-1.6312,-1.6201,-1.6012,-1.6132,-1.621,-1.9726,0.0,0.0,0.0,0.0,0.0,0.0,0.0,0.0,0.0,0.0,0.0,0.0,0.0,0.0,0.0,0.0,-1.3989,0.0,-1.3012,0.0,0.0,0.0,0.0,-1.0916,-1.0216,-0.9941,-1.0273,-1.0098,-1.0108,-1.0459,-1.0859,-1.1035,-1.0897,-1.165,-1.2073,-1.219,-1.2755,-1.3155,-1.3387,-1.3535,-1.3597,-1.3597,-1.3597,-1.375,-1.402,-1.4314,-1.5308,-1.6736,-1.7472,-1.8474,-1.961,-2.0042,-2.0991,-2.2125,-2.2282,-2.3078,-2.4083,-2.4083,-2.4217,-2.4543,-2.568,-2.7,-2.8255,-2.8856,-2.9409,-2.9832,-2.9975,-2.9249,-2.8473,-2.8479,-2.8022,-2.7576,-2.7416,-2.7334,-2.7265,-2.7113,-2.7066,-2.6939,-2.6459,-2.536,-2.4511,-2.4505,-2.3384,-2.2542,-2.2666,-2.2977,-2.3236,-2.336,-2.367,-2.3929,-2.4043,-2.4353,-2.4497,-2.4411,-2.4368,-2.4139,-2.3695,-2.259,-2.1541,-2.0555,-1.9648,-1.8551,-1.7229,-1.6812,-1.6448,-1.6141,-1.6164,-1.6158,-1.6038,-1.6292,-1.6455,0.0,0.0,0.0,-1.7627,0.0,0.0,0.0,0.0,-1.7147,0.0,0.0,0.0,0.0,0.0,0.0,0.0,0.0,0.0,0.0,0.0,0.0,0.0,0.0,0.0,0.0,-1.0457,-1.0283,-1.0303,-1.0645,-1.0849,-1.0889,-1.132,-1.1369,-1.0918,-1.1369,-1.1463,-1.1153,-1.213,-1.2686,-1.2832,-1.3356,-1.3597,-1.3597,-1.3597,-1.375,-1.402,-1.4418,-1.5174,-1.6209,-1.7398,-1.8336,-1.9107,-1.9889,-2.0682,-2.1406,-2.1976,-2.2994,-2.4083,-2.4083,-2.4478,-2.5162,-2.6313,-2.7053,-2.7633,-2.8242,-2.8703,-2.9145,-2.9663,-2.9233,-2.8718,-2.9294,-2.8928,-2.8363,-2.8375,-2.8217,-2.8047,-2.8059,-2.8059,-2.7937,-2.7545,-2.6413,-2.5447,-2.5054,-2.3599,-2.2646,-2.3101,-2.3174,-2.335,-2.3836,-2.3867,-2.4043,-2.4435,-2.4487,-2.4411,-2.4249,-2.397,-2.3614,-2.3159,-2.1508,-2.0501,-2.0307,-1.8854,-1.7644,-1.673,-1.6525,-1.6349,-1.6219,-1.6184,-1.6269,-1.6404,-1.6719,-1.6873,-1.8,-1.7987,-1.7911,-1.756,-1.7124,0.0,0.0,0.0,0.0,0.0,0.0,0.0,0.0,0.0,0.0,0.0,0.0,0.0,0.0,0.0,0.0,0.0,0.0,0.0,0.0,0.0,-1.0088,-1.0654,-1.0576,-1.0742,-1.133,-1.1222,-1.1213,-1.1359,-1.1222,-1.1265,-1.1561,-1.2151,-1.2587,-1.2812,-1.3252,-1.3515,-1.3597,-1.3597,-1.375,-1.402,-1.4337,-1.5046,-1.6055,-1.7183,-1.8069,-1.8809,-1.9623,-2.0437,-2.1248,-2.1936,-2.2747,-2.3629,-2.4413,-2.5053,-2.5654,-2.6457,-2.7314,-2.8169,-2.8664,-2.8883,-2.9083,-2.9479,-2.9136,-2.863,-2.8751,-2.8602,-2.839,-2.8219,-2.8146,-2.8109,-2.8109,-2.8109,-2.8,-2.7594,-2.6725,-2.5981,-2.5752,-2.4679,-2.3799,-2.366,-2.3898,-2.4104,-2.4302,-2.4322,-2.4332,-2.4487,-2.4497,-2.4368,-2.397,-2.3115,-2.235,-2.1667,-2.0985,-2.0271,-1.967,-1.8824,-1.7911,-1.6923,-1.6693,-1.6487,-1.6337,-1.6559,-1.6676,-1.6741,-1.6895,-1.6839,-1.718,-1.7209,-1.7223,-1.7138,-1.6778,-1.645,-1.6355,0.0,-1.7876,0.0,0.0,0.0,0.0,0.0,0.0,0.0,0.0,0.0,0.0,-1.2931,0.0,0.0,0.0,0.0,0.0,0.0,-1.0351,-1.0869,-1.0947,-1.119,-1.1723,-1.148,-1.1439,-1.1653,-1.1157,-1.1045,-1.1414,-1.1935,-1.2265,-1.2465,-1.3087,-1.3443,-1.3539,-1.3586,-1.375,-1.402,-1.4337,-1.4999,-1.5972,-1.7051,-1.7897,-1.8608,-1.9419,-2.0102,-2.0743,-2.1751,-2.2704,-2.3621,-2.487,-2.548,-2.586,-2.6694,-2.7581,-2.8347,-2.8611,-2.8856,-2.9111,-2.9309,-2.9222,-2.9021,-2.8898,-2.8911,-2.8874,-2.8749,-2.8699,-2.8699,-2.8699,-2.8699,-2.8587,-2.8237,-2.7593,-2.6995,-2.6742,-2.575,-2.4815,-2.4315,-2.4396,-2.4497,-2.4497,-2.4497,-2.4454,-2.4411,-2.4325,-2.3884,-2.2984,-2.1961,-2.1105,-2.0458,-2.0058,-1.962,-1.8985,-1.8471,-1.778,-1.6919,-1.6779,-1.6654,-1.6587,-1.68,-1.6961,-1.7026,-1.7105,-1.6858]},{"header":{"parameterUnit":"m.s-1","parameterCategory":1,"la1":30.6,"la2":29.2853,"lo1":-89.7004,"lo2":-87.6739,"dy":0.0162,"dx":0.0183,"nx":112,"ny":82,"refTime":"2026-03-21T12:00:00:Z","depth":0,"parameterNumber":3,"parameterNumberName":"V-component_of_WINDS"},"data":[0.0,0.0,0.0,0.0,0.0,0.0,0.0,0.0,0.0,0.0,0.0,0.0,0.0,0.0,0.0,0.0,0.0,0.0,0.0,0.0,0.0,0.0,0.0,0.0,0.0,0.0,0.0,0.0,0.0,0.0,0.0,0.0,0.0,0.0,0.0,0.0,0.0,0.0,0.0,0.0,0.0,0.0,0.0,0.0,0.0,0.0,0.0,0.0,0.0,0.0,0.0,0.0,0.0,0.0,0.0,0.0,0.0,0.0,0.0,0.0,0.0,0.0,0.0,0.0,0.0,0.0,0.0,0.0,0.0,0.0,0.0,0.0,0.0,0.0,0.0,0.0,0.0,0.0,0.0,0.0,0.0,0.0,0.0,0.0,0.0,0.0,0.0,0.0,0.0,0.0,0.0,-0.1354,-0.143,-0.1673,-0.2,-0.2203,-0.2461,-0.2888,0.0,0.0,0.0,0.0,0.0,0.0,0.0,0.0,0.0,0.0,0.0,0.0,0.0,0.0,0.0,0.0,0.0,0.0,0.0,0.0,0.0,0.0,0.0,0.0,0.0,0.0,0.0,0.0,0.0,0.0,0.0,0.0,0.0,0.0,0.0,0.0,0.0,0.0,0.0,0.0,0.0,0.0,0.0,0.0,0.0,0.0,0.0,0.0,0.0,0.0,0.0,0.0,0.0,0.0,0.0,0.0,0.0,0.0,0.0,0.0,0.0,0.0,0.0,0.0,0.0,0.0,0.0,0.0,0.0,0.0,0.0,0.0,0.0,0.0,0.0,0.0,0.0,0.0,0.0,0.0,0.0,0.0,0.0,0.0,0.0,0.0,0.0,0.0,0.0,0.0,0.0,0.0,0.0,0.0,0.0,0.0,0.0,0.0,0.0,0.0,0.0,0.0,0.0,0.0,-0.1353,-0.1,-0.0868,-0.0907,-0.1233,-0.1293,-0.155,-0.2116,0.0,0.0,0.0,0.0,0.0,0.0,0.0,0.0,0.0,0.0,0.0,0.0,0.0,0.0,0.0,0.0,0.0,0.0,0.0,0.0,0.0,0.0,0.0,0.0,0.0,0.0,0.0,0.0,0.0,0.0,0.0,0.0,0.0,0.0,0.0,0.0,0.0,0.0,0.0,0.0,0.0,0.0,0.0,0.0,0.0,0.0,0.0,0.0,0.0,0.0,0.0,0.0,0.0,0.0,0.0,0.0,0.0,0.0,0.0,0.0,0.0,0.0,0.0,0.0,0.0,0.0,0.0,0.0,0.0,0.0,0.0,0.0,0.0,0.0,0.0,0.0,0.0,0.0,0.0,0.0,0.0,0.0,0.0,0.0,0.0,0.0,0.0,0.0,0.0,0.0,0.0,0.0,0.0,0.0,0.0,0.0,0.0,0.0,0.0,0.0,0.0,0.0,0.0,-0.0904,-0.0751,-0.0741,-0.0654,-0.0767,-0.1116,-0.1118,-0.1342,-0.1894,-0.2903,0.0,0.0,0.0,0.0,0.0,0.0,0.0,0.0,0.0,0.0,0.0,0.0,0.0,0.0,0.0,0.0,0.0,0.0,0.0,0.0,0.0,0.0,0.0,0.0,0.0,0.0,0.0,0.0,0.0,0.0,0.0,0.0,0.0,0.0,0.0,0.0,0.0,0.0,0.0,0.0,0.0,0.0,0.0,0.0,0.0,0.0,0.0,0.0,0.0,0.0,0.0,0.0,0.0,0.0,0.0,0.0,0.0,0.0,0.0,0.0,0.0,0.0,0.0,0.0,0.0,0.0,0.0,0.0,0.0,0.0,0.0,0.0,0.0,0.0,0.0,0.0,0.0,0.0,0.0,0.0,0.0,0.0,0.0,0.0,0.0,0.0,0.0,0.0,0.0,0.0,0.0,0.0,0.0,0.0,0.0,0.0,0.0,0.0,0.0,0.0,0.0,0.0,-0.0363,-0.027,-0.0583,-0.0593,-0.0781,-0.1183,-0.1142,-0.1322,-0.1879,-0.2726,0.0,0.0,0.0,0.0,0.0,0.0,0.0,0.0,0.0,0.0,0.0,0.0,0.0,0.0,0.0,0.0,0.0,0.0,0.0,0.0,0.0,0.0,0.0,0.0,0.0,0.0,0.0,0.0,0.0,0.0,0.0,0.0,0.0,0.0,0.0,0.0,0.0,0.0,0.0,0.0,0.0,0.0,0.0,0.0,0.0,0.0,0.0,0.0,0.0,0.0,0.0,0.0,0.0,0.0,0.0,0.0,0.0,0.0,0.0,0.0,0.0,0.0,0.0,0.0,0.0,0.0,0.0,0.0,0.0,0.0,0.0,0.0,0.0,0.0,0.0,0.0,0.0,0.0,0.0,0.0,0.0,0.0,0.0,0.0,0.0,0.0,0.0,0.0,0.0,0.0,0.0,0.0,0.0,0.0,0.0,0.0,0.0,0.0,0.0,0.0,0.0,0.0,-0.0232,-0.0204,-0.0626,-0.0628,-0.0775,-0.1178,-0.1155,-0.1368,-0.1967,-0.2764,0.0,0.0,0.0,0.0,0.0,0.0,0.0,0.0,0.0,0.0,0.0,0.0,0.0,0.0,0.0,0.0,0.0,0.0,0.0,0.0,0.0,0.0,0.0,0.0,0.0,0.0,0.0,0.0,0.0,0.0,0.0,0.0,0.0,0.0,0.0,0.0,0.0,0.0,0.0,0.0,0.0,0.0,0.0,0.0,0.0,0.0,0.0,0.0,0.0,0.0,0.0,0.0,0.0,0.0,0.0,0.0,0.0,0.0,0.0,0.0,0.0,0.0,0.0,0.0,0.0,0.0,0.0,0.0,0.0,0.0,0.0,0.0,0.0,0.0,0.0,0.0,0.0,0.0,0.0,0.0,0.0,0.0,0.0,0.0,0.0,0.0,0.0,0.0,0.0,0.0,0.0,0.0,0.0,0.0,0.0,0.0,0.0,0.0,0.0,0.0,0.0,0.0,-0.0116,-0.0162,0.0,-0.0613,-0.0761,-0.1154,-0.1145,-0.1291,-0.1795,0.0,0.0,0.0,0.0,0.0,0.0,0.0,0.0,0.0,0.0,0.0,0.0,0.0,0.0,0.0,0.0,0.0,0.0,0.0,0.0,0.0,0.0,0.0,0.0,0.0,0.0,0.0,0.0,0.0,0.0,0.0,0.0,0.0,0.0,0.0,0.0,0.0,0.0,0.0,0.0,0.0,0.0,0.0,0.0,0.0,0.0,0.0,0.0,0.0,0.0,0.0,0.0,0.0,0.0,0.0,0.0,0.0,0.0,0.0,0.0,0.0,0.0,0.0,0.0,0.0,0.0,0.0,0.0,0.0,0.0,0.0,0.0,0.0,0.0,0.0,0.0,0.0,0.0,0.0,0.0,0.0,0.0,0.0,0.0,0.0,0.0,0.0,0.0,0.0,0.0,0.0,0.0,0.0,0.0,0.0,0.0,0.0,0.0,0.0,0.0,0.0,0.0,-0.0249,-0.0077,-0.0163,0.0,-0.061,-0.0754,-0.115,-0.1136,-0.124,-0.1579,0.0,0.0,0.0,0.0,0.0,0.0,0.0,0.0,0.0,0.0,0.0,0.0,0.0,0.0,0.0,0.0,0.0,0.0,0.0,0.0,0.0,0.0,0.0,0.0,0.0,0.0,0.0,0.0,0.0,0.0,0.0,0.0,0.0,0.0,0.0,0.0,0.0,0.0,0.0,0.0,0.0,0.0,0.0,0.0,0.0,0.0,0.0,0.0,0.0,0.0,0.0,0.0,0.0,0.0,0.0,0.0,0.0,0.0,0.0,0.0,0.0,0.0,0.0,0.0,0.0,0.0,0.0,0.0,0.0,0.0,0.0,0.0,0.0,0.0,0.0,0.0,0.0,0.0,0.0,0.0,0.0,0.0,0.0,0.0,0.0,0.0,0.0,0.0,0.0,0.0,0.0,0.0,0.0,0.0,0.0,0.0,0.0,0.0,0.0,0.0,0.0,0.0,-0.0299,-0.0118,-0.0165,-0.0649,-0.0627,-0.0758,-0.1178,-0.1127,-0.118,0.0,0.0,0.0,0.0,0.0,0.0,0.0,0.0,0.0,0.0,0.0,0.0,0.0,0.0,0.0,0.0,0.0,0.0,0.0,0.0,0.0,0.0,0.0,0.0,0.0,0.0,0.0,0.0,0.0,0.0,0.0,0.0,0.0,0.0,0.0,0.0,0.0,0.0,0.0,0.0,0.0,0.0,0.0,0.0,0.0,0.0,0.0,0.0,0.0,0.0,0.0,0.0,0.0,0.0,0.0,0.0,0.0,0.0,0.0,0.0,0.0,0.0,0.0,0.0,0.0,0.0,0.0,0.0,0.0,0.0,0.0,0.0,0.0,0.0,0.0,0.0,0.0,0.0,0.0,0.0,0.0,0.0,0.0,0.0,0.0,0.0,0.0,0.0,0.0,0.0,0.0,0.0,0.0,0.0,0.0,0.0,0.0,0.0,0.0,0.0,0.0,0.0,0.0,-0.0104,-0.0037,-0.0156,-0.0592,-0.0624,-0.0764,-0.1183,-0.1097,-0.1084,-0.1259,0.0,0.0,0.0,0.0,0.0,0.0,0.0,0.0,0.0,0.0,0.0,0.0,0.0,0.0,0.0,0.0,0.0,0.0,0.0,0.0,0.0,0.0,0.0,0.0,0.0,0.0,0.0,0.0,0.0,0.0,0.0,0.0,0.0,0.0,0.0,0.0,0.0,0.0,0.0,0.0,0.0,0.0,0.0,0.0,0.0,0.0,0.0,0.0,0.0,0.0,0.0,0.0,0.0,0.0,0.0,0.0,0.0,0.0,0.0,0.0,0.0,0.0,0.0,0.0,0.0,0.0,0.0,0.0,0.0,0.0,0.0,0.0,0.0,0.0,0.0,0.0,0.0,0.0,0.0,0.0,0.0,0.0,0.0,0.0,0.0,0.0,0.0,0.0,0.0,0.0,0.0,0.0,0.0,0.0,0.0,0.0,0.0,0.0,0.0,0.0,0.0,0.0,0.0,0.0,-0.015,-0.0567,-0.06,-0.0735,-0.1134,-0.1071,-0.1034,-0.1075,0.0,0.0,0.0,0.0,0.0,0.0,0.0,0.0,0.0,0.0,0.0,0.0,0.0,0.0,0.0,0.0,0.0,0.0,0.0,0.0,0.0,0.0,0.0,0.0,0.0,0.0,0.0,0.0,0.0,0.0,0.0,0.0,0.0,0.0,0.0,0.0,0.0,0.0,0.0,0.0,0.0,0.0,0.0,0.0,0.0,0.0,0.0,0.0,0.0,0.0,0.0,0.0,0.0,0.0,0.0,0.0,0.0,0.0,0.0,0.0,0.0,0.0,0.0,0.0,0.0,0.0,0.0,0.0,0.0,0.0,0.0,0.0,0.0,0.0,0.0,0.0,0.0,0.0,0.0,0.0,0.0,0.0,0.0,0.0,0.0,0.0,0.0,0.0,0.0,0.0,0.0,0.0,0.0,0.0,0.0,0.0,0.0,0.0,0.0,0.0,0.0,0.0,0.0033,0.0035,-0.011,-0.0487,-0.0515,-0.0674,-0.1013,-0.098,-0.0926,-0.0871,0.0,0.0,0.0,0.0,0.0,0.0,0.0,0.0,0.0,0.0,0.0,0.0,0.0,0.0,0.0,0.0,0.0,0.0,0.0,0.0,0.0,0.0,0.0,0.0,0.0,0.0,0.0,0.0,0.0,0.0,0.0,0.0,0.0,0.0,0.0,0.0,0.0,0.0,0.0,0.0,0.0,0.0,0.0,0.0,0.0,0.0,0.0,0.0,0.0,0.0,0.0,0.0,0.0,0.0,0.0,0.0,0.0,0.0,0.0,0.0,-0.2099,-0.2318,0.0,0.0,0.0,0.0,0.0,0.0,0.0,0.0,0.0,0.0,0.0,0.0,0.0,0.0,0.0,0.0,0.0,0.0,0.0,0.0,0.0,0.0,0.0,0.0,0.0,0.0,0.0,0.0,0.0,0.0,0.0,0.0,0.0,0.0,0.0,0.0,0.0,0.0,0.0,0.0,0.0375,0.0405,0.0283,0.0071,0.0035,-0.0102,-0.0438,-0.0566,-0.0612,-0.0649,-0.0749,0.0,0.0,0.0,0.0,0.0,0.0,0.0,0.0,0.0,0.0,0.0,0.0,0.0,0.0,0.0,0.0,0.0,0.0,0.0,0.0,0.0,0.0,0.0,0.0,0.0,0.0,0.0,0.0,0.0,0.0,0.0,0.0,0.0,0.0,0.0,0.0,0.0,0.0,0.0,0.0,0.0,0.0,0.0,0.0,0.0,0.0,0.0,0.0,0.0,0.0,0.0,0.0,0.0,0.0,0.0,0.0,0.0,0.0,0.0,-0.1231,-0.1604,0.0,0.0,0.0,0.0,0.0,0.0,0.0,0.0,0.0,0.0,0.0,0.0,0.0,0.0,0.0,0.0,0.0,0.0,0.0,0.0,0.0,0.0,0.0,0.0,0.0,0.0,0.0,0.0,0.0,0.0,0.0,0.0,0.0,0.0,0.0,0.0,0.0,0.0,0.0,0.0,0.0857,0.1117,0.12,0.1029,0.0971,0.0754,0.0356,0.0092,-0.0142,-0.0339,-0.0552,0.0,0.0,0.0,0.0,0.0,0.0,0.0,0.0,0.0,0.0,0.0,0.0,0.0,0.0,0.0,0.0,0.0,0.0,0.0,0.0,0.0,0.0,0.0,0.0,0.0,0.0,0.0,0.0,0.0,0.0,0.0,0.0,0.0,0.0,0.0,0.0,0.0,0.0,0.0,0.0,0.0,0.0,0.0,0.0,0.0,0.0,0.0,0.0,0.0,0.0,0.0,0.0,0.0,0.0475,0.0663,0.068,0.0503,0.0402,0.0336,-0.0537,-0.0957,-0.1079,-0.1079,0.0,0.0,0.0,0.0,0.0,0.0,0.0,0.0,0.0,0.0,0.0,0.0,0.0,0.0,0.0,0.0,0.0,0.0,0.0,0.0,0.0,0.0,0.0528,0.0528,0.0526,0.045,0.018,0.0,0.0,0.0,0.0,0.0,0.0,0.0,0.0,0.0,0.0,0.0,0.1497,0.1944,0.2214,0.2045,0.1919,0.1674,0.1203,0.0773,0.0393,0.0051,-0.0246,-0.0474,0.0,0.0,0.0,0.0,0.0,0.0,0.0,0.0,0.0,0.0,0.0,0.0,0.0,0.0,0.0,0.0,0.0,0.0,0.0,0.0,0.0,0.0,0.0,0.0,0.0,0.0,0.0,0.0,0.0,0.0,0.0,0.0,-0.0025,0.0256,0.0,0.0,0.0,0.0,0.0,0.0,0.0,0.0,0.0,0.0,0.0,0.0,0.0,-0.051,-0.0064,0.0067,0.0276,0.052,0.062,0.068,0.0697,0.0475,0.0405,0.0372,0.0,0.0,-0.0174,-0.0174,0.0,0.0,0.0,0.0,0.0,0.0,0.0,0.0,0.0,0.0,0.0,0.0,0.0,0.0,0.0,0.0,0.0,0.0,0.0,0.0,0.0,0.0,0.2187,0.2187,0.2183,0.2189,0.2112,0.1012,0.0061,0.0182,0.0231,0.0332,0.0,0.0,0.0,0.0,0.0,0.0,0.2326,0.2657,0.282,0.2619,0.2461,0.2254,0.191,0.1341,0.0885,0.061,0.0179,-0.0074,-0.0095,-0.0091,0.0,0.0,0.0,0.0,0.0,0.0,0.0,0.0,0.0,0.0,0.0,0.0,0.0,0.0,0.0,0.0,0.0,0.0,0.0,0.0,0.0,0.0,0.0,0.0,0.0,0.0,0.0,0.0,0.0,0.0365,0.0508,0.0674,0.0571,0.0505,0.0,0.0,0.0,0.0,0.0,0.0,0.0,0.0,0.0,0.0155,0.023,0.0338,0.0541,0.0703,0.083,0.0953,0.1002,0.1039,0.1023,0.0879,0.0813,0.0785,0.0511,0.0412,0.0357,0.0114,-0.0036,-0.0104,0.0,0.0,0.0,0.0,-0.0371,-0.0276,-0.0272,-0.0134,0.0066,0.0126,0.0,0.0,0.0,0.0,0.0,0.0,0.0,0.1667,0.2009,0.2467,0.2822,0.2822,0.2836,0.2812,0.2805,0.2352,0.1849,0.1498,0.1357,0.141,0.1701,0.1848,0.0,0.0,0.0,0.366,0.3781,0.4018,0.409,0.3889,0.3536,0.3166,0.2864,0.2324,0.1845,0.1518,0.1126,0.086,0.0739,0.0724,0.0612,0.0,0.0,0.0,0.0,0.0,0.0,0.0,0.0,0.0,0.0,0.0,0.0,0.0,0.0,0.0,0.0,0.0,0.0,0.0,0.0,0.0,0.0,0.0,0.0,0.0,0.0,0.0,0.0,0.0887,0.092,0.0955,0.0962,0.0926,0.0,0.0,0.0,0.0,0.0,0.0,0.0727,0.0645,0.0609,0.0659,0.0835,0.0929,0.0966,0.1138,0.1239,0.1224,0.1277,0.1318,0.1307,0.1164,0.11,0.1074,0.0825,0.0689,0.0693,0.0328,0.0195,0.0149,0.0,-0.0072,-0.0146,-0.0317,-0.0249,-0.0037,0.0109,0.0431,0.0745,0.0887,0.1001,0.1082,0.1019,0.0,0.0,0.0,0.0,0.2418,0.2838,0.3285,0.3583,0.3583,0.3583,0.3602,0.3575,0.3797,0.3727,0.2766,0.2535,0.2582,0.2871,0.3016,0.0,0.0,0.0,0.4941,0.5081,0.5216,0.5225,0.5098,0.4528,0.406,0.3812,0.3247,0.2798,0.246,0.2065,0.1754,0.1545,0.1526,0.1354,0.0961,0.0,0.0,0.0,0.0,0.0,0.0,0.0,0.0,0.0,0.0,0.0,0.0,0.0,0.0,0.0,0.0,0.0,0.0,0.0,0.0,0.0,0.0,0.0,0.0,0.0,0.0,0.0,0.0,0.0,0.1087,0.1099,0.0,0.0,0.0,0.0,0.0907,0.0763,0.0724,0.08,0.066,0.068,0.0871,0.0881,0.0981,0.1169,0.1276,0.1293,0.1295,0.1287,0.1318,0.1307,0.1077,0.1056,0.1076,0.0805,0.0708,0.0695,0.0678,0.0662,0.0646,0.0433,0.0385,0.034,0.0075,0.0113,0.0379,0.1006,0.1382,0.1617,0.2216,0.2397,0.2392,0.2394,0.2407,0.0,0.0,0.3193,0.3719,0.3891,0.4413,0.489,0.489,0.489,0.4965,0.5148,0.543,0.5223,0.3638,0.3434,0.3682,0.4215,0.0,0.459,0.5116,0.5628,0.5923,0.5938,0.5842,0.5797,0.5837,0.5245,0.4776,0.4574,0.3947,0.3479,0.3333,0.2834,0.2425,0.2161,0.2156,0.191,0.1385,0.1369,0.0,0.0,0.0,0.0,0.0,0.0,0.0,0.0,0.0,0.0,0.0,0.0,0.0,0.0,0.0,0.0,0.0,0.0,0.0,0.0,0.0,0.0,0.0,0.0,0.0,0.0,0.0,0.0,0.1293,0.1244,0.0,0.1165,0.1045,0.096,0.0971,0.0975,0.0973,0.0993,0.0985,0.1023,0.1105,0.1143,0.1202,0.128,0.1291,0.1296,0.1297,0.1288,0.1308,0.1279,0.1283,0.1266,0.1275,0.1204,0.1161,0.1153,0.1144,0.1066,0.0893,0.0833,0.0742,0.0696,0.0457,0.0612,0.1009,0.1368,0.1793,0.2239,0.2734,0.2843,0.2833,0.2806,0.2833,0.2908,0.322,0.3619,0.3999,0.4298,0.4639,0.4898,0.5047,0.5098,0.5223,0.5479,0.5911,0.6107,0.5656,0.5538,0.556,0.5891,0.6026,0.6268,0.6726,0.6881,0.7007,0.713,0.6816,0.658,0.6611,0.611,0.573,0.5521,0.5088,0.4753,0.4578,0.4268,0.3893,0.3493,0.3369,0.2999,0.2368,0.2156,0.1886,0.0,0.0,0.0,0.0,0.0,0.0,0.0,0.0,0.0,0.0,0.0,0.0,0.0,0.0,0.0,0.0,0.0,0.0,0.0,0.0,0.0,0.0,0.0,0.0,0.0,0.0,0.1522,0.1511,0.1466,0.139,0.1298,0.1174,0.1085,0.1003,0.1048,0.1118,0.114,0.1173,0.1216,0.1227,0.1286,0.1296,0.1296,0.1296,0.1296,0.1297,0.1288,0.1348,0.1442,0.1582,0.1658,0.1671,0.1649,0.1653,0.1642,0.1597,0.1631,0.1626,0.1491,0.1399,0.1307,0.1121,0.1277,0.1688,0.2233,0.2937,0.3595,0.384,0.3931,0.3883,0.3883,0.3883,0.392,0.4214,0.4418,0.4581,0.4804,0.4946,0.5047,0.5186,0.5401,0.562,0.5979,0.6533,0.6983,0.7202,0.7014,0.6861,0.7078,0.7177,0.7357,0.7729,0.7769,0.7849,0.8107,0.772,0.744,0.7495,0.706,0.6725,0.6597,0.617,0.5853,0.568,0.5386,0.5015,0.4549,0.4289,0.3877,0.3308,0.2932,0.2616,0.2382,0.0,0.0,0.0,0.0,0.0,0.0,0.0,0.0,0.0,0.0,0.0,0.0,0.0,0.0,0.0,0.0,0.0,0.0,0.0,0.0,0.0,0.0,0.0,0.1519,0.1678,0.1793,0.1704,0.1696,0.1606,0.1332,0.1302,0.1224,0.1034,0.1063,0.1138,0.1198,0.1195,0.1226,0.1294,0.1295,0.1295,0.1296,0.1296,0.1296,0.1297,0.1288,0.144,0.1723,0.1978,0.2154,0.2196,0.2243,0.2172,0.213,0.2042,0.2372,0.2892,0.2495,0.2317,0.2225,0.2017,0.2078,0.243,0.3679,0.4774,0.5598,0.5598,0.5598,0.5598,0.5598,0.5595,0.5592,0.5592,0.5589,0.5556,0.5422,0.5386,0.5424,0.5475,0.5868,0.6326,0.6714,0.7346,0.7894,0.8102,0.7755,0.7513,0.7703,0.7743,0.7846,0.8191,0.8242,0.0,0.8801,0.8508,0.8342,0.8549,0.8093,0.7792,0.7783,0.7228,0.6817,0.6692,0.6167,0.569,0.5254,0.4859,0.4488,0.4159,0.3688,0.3423,0.3358,0.0,0.0,0.0,0.0,0.0,0.0,0.0,0.0,0.0,0.0,0.0,0.0,0.0,0.0,0.0,0.0,0.0,0.0,0.0,0.0,0.0,0.1948,0.1808,0.1658,0.1765,0.1864,0.1852,0.1789,0.1766,0.1739,0.1479,0.1297,0.13,0.123,0.1175,0.1134,0.1183,0.1215,0.1224,0.1224,0.1235,0.1296,0.1296,0.1296,0.1297,0.1288,0.151,0.193,0.2389,0.2612,0.263,0.2671,0.2658,0.2522,0.2475,0.2876,0.3537,0.327,0.311,0.3044,0.2827,0.3013,0.3482,0.4265,0.5012,0.5598,0.5598,0.5598,0.5598,0.5598,0.5529,0.545,0.545,0.538,0.5295,0.5255,0.5177,0.5168,0.5447,0.6097,0.6717,0.7025,0.8005,0.8802,0.8761,0.8838,0.8815,0.8493,0.8579,0.8805,0.9028,0.8909,0.0,0.9668,0.9519,0.9514,0.9978,0.9788,0.9633,0.9604,0.9198,0.8763,0.8245,0.7608,0.6981,0.6396,0.5988,0.5628,0.5328,0.4863,0.4666,0.0,0.0,0.0,0.0,0.0,0.0,0.0,0.0,0.0,0.0,0.0,0.0,0.0,0.0,0.0,0.0,0.0,0.0,0.0,0.0,0.0,0.0,0.2155,0.2031,0.1856,0.188,0.1911,0.197,0.2082,0.2099,0.2044,0.1856,0.1683,0.1523,0.1454,0.134,0.1248,0.1296,0.1294,0.123,0.1218,0.1226,0.1296,0.1284,0.1284,0.1297,0.1314,0.1531,0.2034,0.2529,0.2784,0.2872,0.2993,0.306,0.3043,0.3082,0.3514,0.4166,0.0,0.0,0.0,0.0,0.4066,0.4377,0.4893,0.544,0.5912,0.5912,0.5912,0.586,0.5797,0.5724,0.5644,0.5584,0.5507,0.5428,0.5374,0.5342,0.5418,0.5707,0.6602,0.7453,0.7817,0.8848,0.9652,0.9656,0.9813,0.0,0.9554,0.9373,0.9378,0.9726,0.9658,0.9756,1.04,1.038,1.0431,1.0738,1.0711,1.0639,1.0601,1.0294,0.0,0.0,0.0,0.7843,0.7093,0.6812,0.0,0.0,0.0,0.0,0.0,0.0,0.0,0.0,0.5412,0.5705,0.0,0.0,0.0,0.0,0.0,0.0,0.0,0.0,0.0,0.0,0.0,0.0,0.0,0.0,0.0,0.0,0.2343,0.2291,0.2168,0.2078,0.2025,0.2106,0.2405,0.2531,0.2316,0.2389,0.2241,0.1806,0.1732,0.1624,0.1404,0.0,0.0,0.0,0.0,0.1216,0.1286,0.122,0.1222,0.1291,0.1295,0.155,0.2033,0.2496,0.2818,0.307,0.3276,0.3481,0.3612,0.3857,0.433,0.4922,0.5063,0.5118,0.5104,0.5118,0.5123,0.5162,0.556,0.0,0.0,0.6351,0.6351,0.632,0.6129,0.603,0.5986,0.5871,0.5817,0.5772,0.5682,0.5743,0.5912,0.6236,0.7272,0.8321,0.886,0.977,1.0528,1.0653,1.0736,1.0749,1.0714,1.0118,0.9843,1.0333,1.0401,1.0577,1.1045,1.1111,1.1135,1.117,1.1178,0.0,1.117,1.0953,1.0536,0.9959,0.9223,0.8479,0.7644,0.7542,0.7493,0.7478,0.7319,0.7238,0.7276,0.8106,0.8679,0.8904,0.783,0.7719,0.0,0.0,0.0,0.0,0.0,0.0,0.0,0.0,0.0,0.0,0.0,0.0,0.0,0.0,0.0,0.3215,0.3246,0.3209,0.3069,0.2836,0.2588,0.2211,0.2514,0.2803,0.2919,0.2704,0.2491,0.2344,0.1904,0.159,0.1488,0.1455,0.1391,0.1398,0.1213,0.1153,0.122,0.1215,0.1191,0.1221,0.1284,0.0,0.2033,0.2536,0.2982,0.3362,0.3693,0.4016,0.434,0.462,0.5331,0.6112,0.582,0.5734,0.5722,0.5834,0.5876,0.5914,0.6157,0.6406,0.6617,0.6617,0.6617,0.6586,0.6434,0.6344,0.0,0.6027,0.5895,0.5832,0.5951,0.6036,0.623,0.6907,0.7888,0.8784,0.9279,1.0545,1.1476,1.116,1.1478,1.1716,1.1454,1.101,1.0793,1.1083,1.1119,1.1291,1.1803,1.1844,1.1926,1.2251,1.2151,1.2112,1.2274,1.2089,1.1753,1.1263,1.0257,0.9417,0.8867,0.8787,0.8868,0.9139,0.8848,0.877,0.8946,0.9597,1.0302,1.0983,0.9869,0.9648,0.0,0.0,0.0,0.0,0.0,0.0,0.0,0.0,0.0,0.0,0.0,0.253,0.2764,0.0,0.3605,0.3724,0.4056,0.4194,0.394,0.3719,0.3388,0.2865,0.3108,0.3343,0.3433,0.329,0.3094,0.2828,0.236,0.2016,0.185,0.1762,0.1622,0.1394,0.1306,0.1242,0.1203,0.1203,0.1182,0.1212,0.1227,0.1484,0.1959,0.2423,0.2963,0.3491,0.3974,0.4428,0.4777,0.5252,0.5848,0.6481,0.6353,0.6301,0.6307,0.6382,0.6411,0.6411,0.6529,0.6615,0.6702,0.6702,0.6702,0.6671,0.6559,0.6463,0.6375,0.6186,0.6091,0.6088,0.6155,0.6489,0.6937,0.7466,0.8502,0.9479,1.0019,1.1215,1.2088,1.1863,1.2218,1.2494,1.215,1.1934,1.1771,1.1709,1.1698,1.1867,1.2382,1.2492,1.2625,1.2926,1.2911,1.2942,1.3033,1.274,1.2309,1.1731,1.1071,1.0459,0.9932,0.9841,0.9914,1.0149,0.9922,0.9915,1.0158,1.0952,1.1798,1.2635,1.2659,1.2614,0.0,0.0,0.0,0.0,0.0,0.0,0.0,0.0,0.2755,0.2713,0.2817,0.297,0.3206,0.384,0.4328,0.4282,0.4895,0.5207,0.4803,0.4627,0.438,0.391,0.3932,0.3991,0.3999,0.3981,0.3753,0.335,0.2917,0.2576,0.2343,0.2116,0.1827,0.1507,0.1407,0.1339,0.123,0.1194,0.1176,0.1212,0.1212,0.1458,0.1925,0.2315,0.2901,0.3604,0.4307,0.4851,0.5279,0.5786,0.6182,0.6528,0.6641,0.6719,0.6749,0.6776,0.6787,0.6787,0.6787,0.6787,0.6787,0.6787,0.6787,0.6759,0.6607,0.6563,0.6529,0.6426,0.6385,0.6386,0.6457,0.7004,0.768,0.802,0.9068,1.0143,1.0775,1.1747,1.2487,1.2448,1.2869,1.3116,1.2786,1.2744,1.2621,1.2251,1.2189,1.2336,1.2775,1.2981,1.3186,1.342,1.3601,1.3683,1.3683,1.3346,1.2865,1.2237,1.1978,1.1564,1.0889,1.0828,1.0845,1.0941,1.0938,1.1063,1.1353,1.2302,1.3158,1.3992,1.5221,1.5436,0.2473,0.2654,0.2802,0.2706,0.2778,0.2898,0.0,0.0,0.305,0.3318,0.3354,0.3491,0.3966,0.4667,0.5174,0.5223,0.5864,0.6156,0.5643,0.5555,0.5532,0.5451,0.4945,0.4639,0.4763,0.4574,0.4339,0.4083,0.3318,0.2865,0.2822,0.2232,0.1896,0.1834,0.1489,0.1335,0.1372,0.1196,0.1155,0.1212,0.1212,0.1457,0.1921,0.2314,0.2979,0.3841,0.4973,0.5715,0.6141,0.6219,0.6342,0.6528,0.6641,0.6783,0.6876,0.7001,0.7048,0.7048,0.7048,0.7048,0.7048,0.7048,0.7048,0.7021,0.6879,0.6836,0.6848,0.6695,0.6651,0.6695,0.694,0.7466,0.8103,0.8713,0.9556,1.0368,1.1149,1.2131,1.282,1.2696,1.3253,1.3607,1.3272,1.3208,1.3064,1.2621,1.2529,1.2652,1.2928,1.3246,1.3571,1.389,1.421,1.438,1.438,1.4335,1.4134,1.3686,1.3323,1.2714,1.1877,1.183,1.1837,1.1861,1.2239,1.2612,1.2941,1.3654,1.4335,1.4991,1.6424,1.6819,0.3311,0.0,0.0,0.0,0.3388,0.3475,0.3622,0.3755,0.386,0.4042,0.4272,0.4583,0.506,0.5704,0.6157,0.0,0.6774,0.7103,0.663,0.6568,0.6559,0.6584,0.6062,0.5583,0.5337,0.5074,0.4839,0.4626,0.3978,0.3487,0.3259,0.2702,0.2285,0.2087,0.1845,0.1594,0.1401,0.1337,0.1298,0.1212,0.123,0.1478,0.1924,0.2315,0.3212,0.454,0.5285,0.587,0.63,0.63,0.6436,0.661,0.6675,0.6844,0.7014,0.7075,0.7095,0.7095,0.7095,0.7095,0.7095,0.7095,0.7095,0.7085,0.7024,0.7007,0.6994,0.693,0.6913,0.6987,0.7162,0.7943,0.8746,0.9076,0.9981,1.0887,1.1446,1.2268,1.2912,1.2989,1.3716,1.4197,1.3825,1.3982,1.397,1.3325,1.2979,1.2906,1.3291,1.3411,1.3622,1.4185,1.4352,1.457,1.4887,1.4618,1.4414,1.4313,1.3852,1.3314,1.273,1.2628,1.2719,1.2968,1.3227,1.3642,1.4253,1.4806,1.5607,1.6638,1.7837,1.8723,0.3824,0.0,0.0,0.3848,0.3924,0.4015,0.4129,0.4342,0.4515,0.4675,0.5007,0.5397,0.5841,0.6467,0.6893,0.6879,0.7433,0.7717,0.7391,0.7307,0.7232,0.7119,0.6698,0.6262,0.5773,0.5544,0.534,0.5185,0.4693,0.4229,0.388,0.322,0.2696,0.2415,0.2151,0.1871,0.1612,0.1525,0.1444,0.1301,0.1286,0.1492,0.1924,0.255,0.3641,0.5004,0.544,0.587,0.63,0.63,0.6426,0.6586,0.6668,0.6831,0.6987,0.7065,0.7095,0.7095,0.7095,0.7095,0.7095,0.7095,0.7095,0.7095,0.7095,0.7095,0.7095,0.7187,0.7231,0.725,0.7533,0.8382,0.9249,0.9407,1.0282,1.1223,1.1669,1.2409,1.3092,1.3377,1.4239,1.4824,1.453,1.4808,1.4863,1.4194,1.3678,1.3454,1.3689,1.3781,1.3975,1.4437,1.459,1.4881,1.5392,1.4962,1.4826,1.5178,1.4465,1.385,1.343,1.3338,1.3478,1.3897,1.4165,1.4829,1.5907,1.6335,1.7248,1.8595,1.9535,2.0644,0.0,0.0,0.4,0.3988,0.4243,0.4494,0.456,0.4629,0.481,0.5201,0.5353,0.5563,0.6078,0.6747,0.7221,0.727,0.7688,0.7933,0.7718,0.7582,0.7332,0.6878,0.6671,0.6465,0.0,0.5952,0.5865,0.5856,0.5389,0.4967,0.4776,0.3749,0.3123,0.2969,0.2346,0.2013,0.2079,0.1703,0.1533,0.157,0.1375,0.1492,0.196,0.3175,0.4229,0.5004,0.544,0.587,0.63,0.63,0.6306,0.634,0.659,0.6705,0.6749,0.6991,0.7095,0.7095,0.7095,0.7095,0.7095,0.7095,0.7095,0.7095,0.7095,0.7095,0.7143,0.7415,0.7507,0.7607,0.8117,0.8878,0.9571,0.9839,1.0519,1.126,1.1855,1.2622,1.336,1.3964,1.4822,1.5482,1.5452,1.564,1.5633,1.5231,1.4814,1.4407,1.4051,1.4503,1.4811,1.4697,1.5107,1.5563,1.6036,1.5638,1.5765,1.6683,1.5436,1.4461,1.3994,1.3962,1.4137,1.4464,1.5184,1.6428,1.8184,1.847,1.9368,2.0817,2.1491,2.241,0.0,0.0,0.4904,0.5029,0.528,0.5522,0.5633,0.5895,0.6168,0.6425,0.6824,0.7262,0.7713,0.7889,0.7978,0.7922,0.7909,0.7816,0.7541,0.75,0.7389,0.7088,0.69,0.0,0.0,0.0,0.0,0.5919,0.5747,0.5432,0.5017,0.4317,0.3804,0.354,0.3172,0.2863,0.262,0.2327,0.2024,0.1804,0.161,0.1727,0.2117,0.2978,0.3798,0.4616,0.5165,0.575,0.63,0.63,0.6354,0.646,0.662,0.6763,0.6832,0.7024,0.7095,0.7095,0.7095,0.7095,0.7095,0.7095,0.7095,0.7095,0.7095,0.7095,0.7143,0.7415,0.7808,0.8277,0.8679,0.9729,1.0721,1.0852,1.1492,1.2189,1.2487,1.3224,1.4014,1.4541,1.5661,1.648,1.6284,1.6785,1.6835,1.5748,1.4873,1.4231,1.3909,1.4188,1.4451,1.4504,1.4633,1.4925,1.5401,1.5086,1.5173,1.5884,1.5255,1.4794,1.4731,1.4986,1.5291,1.5625,1.6409,1.7482,1.8907,1.9261,2.016,2.1569,2.2214,2.3087,0.0,0.5358,0.5596,0.5833,0.6062,0.6228,0.6311,0.6587,0.6929,0.7188,0.7547,0.7897,0.8265,0.8365,0.8316,0.8148,0.8132,0.8028,0.7721,0.7634,0.7458,0.7207,0.6988,0.6728,0.0,0.0,0.0,0.6077,0.6091,0.5921,0.5517,0.4984,0.4573,0.4318,0.4048,0.3721,0.3318,0.2919,0.2392,0.1804,0.1713,0.1783,0.1974,0.2607,0.3358,0.4118,0.4806,0.549,0.6136,0.6136,0.6183,0.6329,0.6485,0.6668,0.6865,0.6967,0.7051,0.7095,0.7095,0.7095,0.7095,0.7095,0.7095,0.7095,0.7095,0.7095,0.7187,0.7632,0.8197,0.8804,0.9389,1.0465,1.1487,1.1761,1.2273,1.2798,1.315,1.3863,1.4579,1.5182,1.6376,1.7225,1.6941,1.7164,1.7034,1.5966,1.5074,1.4398,1.4063,1.4314,1.4488,1.4418,1.456,1.4832,1.5298,1.4909,1.4987,1.5817,1.5382,1.5187,1.5345,1.5812,1.6309,1.6828,1.7658,1.8807,2.0281,2.0648,2.1455,2.2686,2.3311,2.408,0.5675,0.5895,0.6163,0.6422,0.6575,0.6696,0.6669,0.6857,0.7115,0.7463,0.7518,0.7568,0.0,0.0,0.825,0.8056,0.8282,0.8425,0.8215,0.7912,0.7575,0.0,0.0,0.0,0.0,0.0,0.0,0.6423,0.0,0.635,0.6214,0.5712,0.5346,0.5218,0.4859,0.4512,0.4176,0.3477,0.2665,0.1689,0.1802,0.1742,0.1589,0.2322,0.2983,0.3561,0.4362,0.5123,0.5813,0.5813,0.5905,0.602,0.6259,0.6494,0.6719,0.6836,0.698,0.7095,0.7095,0.7095,0.7095,0.7095,0.7095,0.7095,0.7095,0.7095,0.7272,0.8021,0.8588,0.9244,1.0378,1.116,1.1887,1.2527,1.2863,1.3212,1.3918,1.4509,1.5181,1.5892,1.6957,1.7656,1.7499,1.6934,1.6334,1.5876,1.5397,1.493,1.4462,1.4799,1.493,1.4484,1.4854,1.5309,1.5767,1.5178,1.5273,1.6423,1.5928,1.5706,1.5869,1.6481,1.7207,1.8069,1.8894,2.0279,2.2176,2.241,2.3074,2.4073,2.4681,2.5259,0.6834,0.7071,0.7306,0.7486,0.7723,0.791,0.7809,0.8131,0.8403,0.8158,0.8393,0.8628,0.0,0.0,0.0,0.8392,0.8476,0.0,0.8237,0.8041,0.0,0.0,0.0,0.6979,0.6626,0.675,0.0,0.0,0.667,0.6511,0.6214,0.5918,0.5704,0.5506,0.5485,0.5309,0.491,0.4211,0.3483,0.2702,0.2717,0.2649,0.2646,0.3018,0.3451,0.3921,0.4579,0.5252,0.5936,0.5936,0.6061,0.6265,0.6488,0.6634,0.6732,0.6947,0.7065,0.7095,0.7095,0.7095,0.7095,0.7095,0.7095,0.7095,0.7095,0.7231,0.7544,0.8241,0.9283,1.0361,1.1209,1.2306,1.3271,1.3618,1.4255,1.4854,1.5125,1.599,1.6771,1.6883,1.7298,1.7779,1.8263,1.7333,1.6334,1.5876,1.5397,1.493,1.4462,1.4799,1.5061,1.493,1.5331,1.568,1.58,1.5886,1.6054,1.6253,1.6824,1.708,1.7003,1.79,1.8685,1.9265,1.9633,2.0479,2.1837,2.1692,2.2247,2.3446,2.4037,2.4874,0.7325,0.7503,0.7753,0.8027,0.8221,0.8335,0.826,0.8465,0.8608,0.8349,0.8514,0.0,0.0,0.0,0.0,0.0,0.0,0.0,0.8326,0.8075,0.7786,0.0,0.7252,0.0,0.6815,0.6948,0.7006,0.0,0.6767,0.6609,0.6441,0.6218,0.6053,0.5951,0.6103,0.5912,0.5294,0.4868,0.4289,0.36,0.3587,0.358,0.3503,0.3803,0.4094,0.4387,0.4856,0.5433,0.5993,0.5993,0.6156,0.6409,0.6536,0.6764,0.6986,0.7113,0.7304,0.7452,0.7452,0.7452,0.7408,0.7183,0.7095,0.7139,0.7363,0.7588,0.7984,0.8851,0.998,1.1106,1.2015,1.3088,1.4033,1.4664,1.5276,1.5801,1.6182,1.6807,1.7386,1.7713,1.7672,1.7822,1.8566,1.7671,1.6623,1.5909,1.5621,1.5257,1.4565,1.502,1.5484,1.568,1.5942,1.6203,1.6448,1.6695,1.7023,1.7392,1.819,1.8683,1.8847,1.9656,2.0335,2.0871,2.1002,2.1492,2.2367,2.1976,2.2267,2.321,2.3836,2.4723,0.7542,0.7663,0.7895,0.8275,0.8369,0.8375,0.8341,0.8347,0.8335,0.8299,0.0,0.0,0.8334,0.0,0.8617,0.8539,0.0,0.8509,0.8438,0.8089,0.7726,0.738,0.7285,0.7147,0.6882,0.7078,0.7169,0.698,0.6813,0.6708,0.6708,0.6515,0.6395,0.6453,0.6577,0.6282,0.5503,0.5491,0.5086,0.4354,0.4504,0.4482,0.4287,0.4597,0.4775,0.4879,0.5199,0.5623,0.6023,0.6023,0.6234,0.6545,0.6606,0.6898,0.7311,0.7375,0.7603,0.79,0.79,0.79,0.7808,0.7363,0.7187,0.7272,0.776,0.8109,0.8636,0.9724,1.0722,1.1709,1.2833,1.3688,1.4538,1.5526,1.6057,1.6489,1.7071,1.72,1.7478,1.832,1.7999,1.7811,1.8479,1.7886,1.695,1.5953,1.5917,1.5687,1.4838,1.5367,1.6015,1.6409,1.6644,1.694,1.7417,1.7639,1.8134,1.9044,1.9647,2.0206,2.0716,2.129,2.1864,2.2493,2.2454,2.2664,2.3134,2.2678,2.2691,2.3162,2.3823,2.475,0.8232,0.8257,0.8358,0.8629,0.8726,0.8676,0.8565,0.8543,0.0,0.0,0.0,0.854,0.8532,0.8759,0.0,0.8761,0.0,0.0,0.0,0.0,0.7943,0.0,0.0,0.0,0.0,0.0,0.0,0.0,0.7055,0.6811,0.6708,0.6515,0.6481,0.6627,0.6527,0.6282,0.5911,0.5902,0.565,0.5192,0.5454,0.538,0.5092,0.5308,0.5346,0.5234,0.5448,0.583,0.6259,0.6259,0.6393,0.6716,0.7049,0.7218,0.7325,0.7676,0.783,0.79,0.79,0.79,0.79,0.7808,0.7764,0.7852,0.8241,0.8846,0.954,1.0549,1.1585,1.2619,1.3392,1.4356,1.5311,1.5891,1.687,1.7662,1.7622,1.7783,1.8029,1.8349,1.7966,1.7707,1.8067,1.7649,1.695,1.5953,1.5917,1.5834,1.5402,1.5789,1.6165,1.6243,1.7399,1.8187,1.8277,1.9011,1.9497,1.9562,2.0434,2.0939,2.095,2.161,2.2328,2.3054,2.2733,2.2657,2.287,2.2791,2.2791,2.2897,2.3879,2.4954,0.8345,0.824,0.8203,0.8469,0.8537,0.8537,0.8453,0.0,0.0,0.0,0.0,0.8543,0.8332,0.0,0.0,0.0,0.0,0.0,0.0,0.0,0.0,0.0,0.0,0.0,0.0,0.0,0.0,0.7489,0.7232,0.6975,0.6811,0.6548,0.6457,0.6538,0.6537,0.6491,0.6362,0.6481,0.6416,0.6233,0.6376,0.6291,0.6035,0.6134,0.611,0.598,0.6089,0.6411,0.6853,0.6853,0.7039,0.7325,0.753,0.769,0.7784,0.7998,0.8164,0.8256,0.8256,0.8256,0.83,0.856,0.8424,0.8328,0.9026,0.9763,1.0539,1.1456,1.2363,1.3215,1.3899,1.4817,1.5726,1.6419,1.7419,1.8179,1.8096,1.821,1.8333,1.8251,1.8132,1.8052,1.8094,1.7765,1.7169,1.6159,1.612,1.5991,1.538,1.602,1.6692,1.7149,1.8107,1.893,1.9442,2.0044,2.0582,2.0936,2.1614,2.2018,2.2087,2.2525,2.3007,2.3482,2.3121,2.3039,2.3284,2.2937,2.2951,2.3284,2.4122,2.5102,0.8291,0.8099,0.7961,0.8225,0.8291,0.8319,0.8347,0.8229,0.0,0.0,0.0,0.0,0.0,0.0,0.0,0.0,0.0,0.0,0.0,0.0,0.0,0.0,0.0,0.0,0.0,0.0,0.0,0.7489,0.733,0.7106,0.6881,0.6581,0.6387,0.6387,0.6558,0.6656,0.6696,0.6865,0.6951,0.6988,0.7029,0.6935,0.6692,0.6733,0.6721,0.6599,0.667,0.6965,0.748,0.7555,0.7831,0.811,0.8189,0.8248,0.8376,0.842,0.8556,0.874,0.8784,0.8872,0.8951,0.9383,0.9174,0.8973,0.9846,1.0651,1.1454,1.2216,1.2878,1.3519,1.4205,1.5085,1.6088,1.722,1.8009,1.8556,1.8639,1.8644,1.8587,1.8275,1.8302,1.8321,1.8125,1.7902,1.7418,1.6429,1.6387,1.616,1.5303,1.6172,1.721,1.8035,1.8732,1.9483,2.0268,2.082,2.14,2.212,2.2469,2.2757,2.3047,2.3241,2.348,2.378,2.3571,2.3538,2.3766,2.3446,2.3446,2.3794,2.4518,2.5389,0.8291,0.8099,0.7961,0.8225,0.8291,0.8347,0.8543,0.0,0.0,0.0,0.8426,0.8453,0.8533,0.0,0.0,0.0,0.0,0.0,0.0,0.0,0.0,0.0,0.0,0.0,0.0,0.0,0.0,0.7489,0.733,0.7068,0.6741,0.6515,0.6387,0.6387,0.6403,0.6526,0.6692,0.6712,0.6833,0.6992,0.7123,0.7017,0.6718,0.6886,0.6833,0.6599,0.6849,0.7231,0.7713,0.8151,0.85,0.8832,0.9057,0.9043,0.8867,0.9126,0.9218,0.9262,0.9432,0.9646,0.9918,1.0069,0.9961,0.9908,1.061,1.1469,1.2212,1.2423,1.2841,1.3387,1.4129,1.5277,1.6708,1.8647,1.9029,1.9022,1.943,1.9153,1.8828,1.86,1.8458,1.8254,1.7823,1.7805,1.7568,1.6697,1.6687,1.6452,1.5575,1.6456,1.7419,1.8103,1.9282,2.003,2.0112,2.1143,2.197,2.2347,2.242,2.2574,2.2909,2.3047,2.3335,2.3771,2.4053,2.4161,2.4068,2.4542,2.4529,2.4082,2.5108,2.5932,0.8333,0.8213,0.8123,0.8069,0.8139,0.8296,0.8533,0.0,0.0,0.8597,0.8594,0.848,0.8369,0.8384,0.0,0.0,0.0,0.0,0.0,0.0,0.0,0.0,0.0,0.0,0.0,0.0,0.0,0.8084,0.7917,0.7717,0.7493,0.6905,0.6515,0.642,0.6387,0.6558,0.6882,0.6886,0.7029,0.731,0.7346,0.7192,0.6878,0.6955,0.6891,0.6689,0.7155,0.7712,0.8341,0.889,0.949,1.0102,0.9899,0.9713,0.9515,0.9646,0.9689,0.9733,1.0077,1.0463,1.0816,1.101,1.1168,1.1321,1.129,1.1787,1.2497,1.2796,1.3114,1.3576,1.436,1.5795,1.7395,1.8924,1.9145,1.9184,1.9817,1.9555,1.9137,1.8901,1.883,1.8677,1.8272,1.818,1.8109,1.7851,1.7576,1.7078,1.6149,1.6717,1.7325,1.7676,1.9036,2.0187,2.0842,2.1392,2.1989,2.2671,2.2696,2.2757,2.2878,2.3017,2.3275,2.3666,2.4002,2.433,2.4652,2.4883,2.4883,2.4666,2.5827,2.6662,0.8481,0.8433,0.8373,0.8163,0.8286,0.8497,0.0,0.0,0.8358,0.878,0.87,0.8507,0.8367,0.8416,0.8466,0.0,0.0,0.0,0.0,0.0,0.0,0.0,0.0,0.0,0.0,0.0,0.8361,0.8759,0.8657,0.8522,0.8398,0.7809,0.7256,0.6745,0.6679,0.6764,0.7043,0.7016,0.7126,0.7407,0.7407,0.7277,0.7069,0.7101,0.7103,0.7053,0.7655,0.8346,0.9099,0.9743,1.0426,1.1029,1.0757,1.0446,1.0206,1.0356,1.0337,1.0366,1.0775,1.1177,1.1595,1.1694,1.1996,1.2277,1.1994,1.2244,1.2654,1.2882,1.3374,1.4019,1.4973,1.6308,1.7661,1.884,1.9187,1.9459,2.0436,2.0189,1.972,1.9437,1.9264,1.9029,1.858,1.864,1.879,1.8915,1.8507,1.7796,1.6812,1.7027,1.7302,1.7387,1.8554,1.9844,2.1055,2.1397,2.1939,2.2841,2.2848,2.2878,2.2969,2.3138,2.3395,2.3666,2.4031,2.4478,2.5005,2.5005,2.5005,2.5018,2.6245,2.744,0.8704,0.8704,0.8667,0.8605,0.8809,0.9001,0.0,0.8884,0.8826,0.8966,0.8684,0.8456,0.8651,0.854,0.8565,0.9021,0.0,0.0,0.0,0.0,0.0,0.0,0.0,0.0,0.0,0.0,0.8856,0.9436,0.9486,0.9416,0.9276,0.9276,0.8737,0.7521,0.7297,0.7196,0.7193,0.6992,0.7012,0.7191,0.7191,0.7187,0.722,0.7405,0.7619,0.7835,0.8428,0.9146,0.9938,1.0594,1.1128,1.151,1.1578,1.1311,1.0926,1.1198,1.1278,1.1289,1.1525,1.1898,1.2269,1.214,1.2235,1.2452,1.2783,1.2855,1.2768,1.2658,1.3526,1.4777,1.6063,1.675,1.7366,1.8461,1.9221,2.0049,2.1415,2.1162,2.0603,2.0336,1.9788,1.9206,1.8608,1.9106,1.9645,1.9769,1.9324,1.8602,1.7544,1.7387,1.7387,1.7387,1.7893,1.8855,2.047,2.1091,2.1831,2.2841,2.2769,2.283,2.3078,2.342,2.3662,2.38,2.425,2.4666,2.5005,2.5005,2.5005,2.5018,2.6245,2.8152,0.8548,0.863,0.8733,0.8619,0.8797,0.9017,0.905,0.8994,0.8928,0.8933,0.8656,0.8425,0.8487,0.8658,0.886,0.9016,0.0,0.0,0.0,0.0,0.0,0.0,0.0,0.0,0.0,0.0,0.9643,1.0212,1.0263,1.0168,1.0002,0.997,0.9486,0.8355,0.8037,0.7791,0.753,0.7262,0.7081,0.7077,0.7167,0.7159,0.7082,0.7526,0.7842,0.8117,0.8943,0.9776,1.056,1.1198,1.1803,1.235,1.2062,1.1912,1.1839,1.1705,1.1781,1.2022,1.2172,1.2531,1.2875,1.2757,1.3044,1.3436,1.3492,1.3294,1.3174,1.3645,1.446,1.5399,1.6368,1.6898,1.7358,1.8098,1.8676,1.9327,2.0392,2.0237,1.9869,1.9876,1.9512,1.9227,1.9329,1.9471,1.99,2.0763,2.0117,1.9302,1.8578,1.8181,1.7953,1.7953,1.8097,1.8698,1.9953,2.0624,2.1389,2.2288,2.2745,2.3108,2.3442,2.3688,2.3923,2.4134,2.4366,2.4666,2.5005,2.5005,2.5654,2.6957,2.814,2.9608,0.0,0.8896,0.9073,0.8998,0.9083,0.9186,0.9226,0.9094,0.8957,0.8901,0.864,0.8433,0.8569,0.8798,0.9051,0.9298,0.0,0.0,0.0,0.0,0.0,0.0,0.0,0.0,0.0,1.0015,1.0418,1.0944,1.0965,1.0933,1.0807,1.0776,1.0446,0.9697,0.9032,0.8467,0.8017,0.7717,0.7487,0.7272,0.7357,0.7425,0.7564,0.8043,0.8473,0.8871,0.9699,1.0456,0.0,1.163,1.2144,1.2579,1.2214,1.2048,1.2007,1.1796,1.1945,1.2221,1.2303,1.2635,1.3064,1.3058,1.3688,1.4419,1.4501,1.4266,1.4129,1.4867,1.548,1.6078,1.6812,1.7169,1.7456,1.798,1.8392,1.8964,1.993,1.9813,1.9486,1.9514,1.9295,1.9201,1.9533,1.9795,2.0293,2.126,2.0658,1.9829,1.9083,1.853,1.8205,1.8205,1.8205,1.8554,1.9408,2.0056,2.0885,2.1968,2.2412,2.2924,2.3501,2.3822,2.4086,2.4292,2.4551,2.4793,2.5005,2.5236,2.629,2.8174,2.916,3.0293,0.0,0.9357,0.9568,0.9591,0.9541,0.9486,0.9486,0.9175,0.0,0.8874,0.8624,0.8497,0.8802,0.8927,0.9174,0.9811,0.0,0.0,0.0,0.0,0.0,0.0,0.0,0.0,1.0812,1.088,1.1125,1.1569,1.1591,1.1591,1.1591,1.1591,1.1498,1.1303,1.0218,0.9294,0.8613,0.8393,0.8116,0.7783,0.7797,0.802,0.8487,0.89,0.9395,1.003,1.0625,1.1186,1.1744,1.1929,1.212,1.2268,1.2103,1.188,1.1651,1.1626,1.1834,1.2113,1.2026,1.2335,1.2817,1.3147,1.4127,1.5261,1.5729,1.5579,1.5444,1.6132,1.649,1.6786,1.7358,1.7505,1.7599,1.7979,1.8357,1.8887,1.9844,1.9726,1.9387,1.9204,1.9164,1.9227,1.9443,2.0131,2.0839,2.1373,2.0983,2.0249,1.9239,1.8614,1.8253,1.8253,1.8253,1.8458,1.8951,1.9495,2.0354,2.1665,2.1829,2.2308,2.3255,2.3796,2.4144,2.4358,2.4872,2.5141,2.5141,2.5724,2.6937,2.8737,2.9347,3.0308,0.868,0.0,0.9354,0.9535,0.9471,0.9331,0.0,0.9086,0.8826,0.0,0.0,0.0,0.0,0.0,0.0,0.0,0.0,0.0,0.0,0.0,0.0,0.0,0.0,0.0,1.0907,1.1084,1.133,1.1569,1.1591,1.1591,1.1591,1.1591,1.1498,1.1303,1.1014,1.0471,0.9671,0.9352,0.8931,0.8473,0.8626,0.8796,0.905,0.9589,1.0205,1.085,1.1298,1.1744,1.2157,1.2224,1.2261,1.2305,1.2231,1.2201,1.2094,1.1913,1.2012,1.2223,1.2005,1.2128,1.258,1.3625,1.4498,1.5274,1.6013,1.6251,1.6324,1.6682,1.689,1.7132,1.7426,1.7505,1.7523,1.7628,1.7801,1.8095,1.8616,1.8737,1.8772,1.8862,1.9208,1.9628,2.0083,2.061,2.1227,2.1894,2.1211,2.0526,2.0273,1.9396,1.8806,1.8806,1.8806,1.8855,1.8987,1.9495,1.9944,2.0282,2.1168,2.1874,2.2397,2.3149,2.4016,2.4968,2.5907,2.6373,2.6373,2.6986,2.7776,2.8737,2.9792,3.072,0.8389,0.887,0.93,0.9695,0.947,0.9193,0.9275,0.0,0.0,0.0,0.0,0.0,0.0,0.0,0.0,0.0,0.0,0.0,0.0,0.0,0.0,0.0,0.0,1.1912,0.0,1.1571,1.1646,1.1608,1.1591,1.1591,1.1591,1.1591,1.156,1.1428,1.1428,1.1045,1.025,1.0066,0.9709,0.9192,0.9305,0.9472,0.9736,1.0155,1.0713,1.1409,1.1706,1.2003,1.2305,1.2305,1.2305,1.2285,1.2151,1.2104,1.2064,1.1777,1.185,1.2114,1.2067,1.2562,1.3375,1.4196,1.4985,1.5701,1.6251,1.6514,1.6674,1.6793,1.6883,1.7064,1.7374,1.7456,1.7504,1.7696,1.7769,1.7896,1.811,1.8303,1.8506,1.8831,1.9274,1.9824,2.0592,2.1008,2.1381,2.1769,2.1139,2.0526,2.0261,1.9504,1.8987,1.8987,1.9215,1.9387,1.9387,1.9853,2.0165,2.0165,2.1022,2.1757,2.2347,2.3226,2.4347,2.5758,2.6619,2.7204,2.7539,2.7961,2.8636,2.9554,3.0409,3.1175,0.8196,0.8731,0.9306,0.9908,0.9564,0.9152,0.9421,0.0,0.0,0.0,0.0,0.0,0.0,0.0,0.0,0.0,0.0,0.0,0.0,0.0,0.0,0.0,0.0,0.0,1.2251,1.2151,1.1996,1.1654,1.1622,1.1591,1.1591,1.1622,1.1654,1.1685,1.1685,1.1373,1.0737,1.0674,1.0446,1.0028,1.0028,1.0171,1.0439,1.0654,1.1124,1.1753,1.1946,1.2157,1.2342,1.2342,1.2315,1.2291,1.2125,1.1991,1.1883,1.1639,1.1755,1.2055,1.2352,1.335,1.449,1.4787,1.544,1.6186,1.6249,1.6357,1.6502,1.6502,1.6648,1.6882,1.7285,1.7465,1.7635,1.7954,1.8076,1.8076,1.8076,1.8245,1.8496,1.8921,1.9353,1.9987,2.0912,2.1262,2.1448,2.1494,2.1079,2.0538,2.0001,1.9444,1.9083,1.8999,1.9423,1.9724,1.9796,2.0286,2.0646,2.073,2.1163,2.1831,2.2776,2.371,2.4957,2.6568,2.7177,2.7857,2.8638,2.8766,2.9425,3.0614,3.1072,3.1608,0.8226,0.8707,0.916,1.0033,0.9841,0.9506,0.0,0.0,0.0,0.0,0.0,0.0,0.0,0.0,0.0,0.0,0.0,0.0,0.0,0.0,0.0,0.0,0.0,1.3064,1.2744,1.2428,1.212,1.1778,1.1654,1.1591,1.1591,1.1716,1.184,1.2027,1.2027,1.1965,1.1872,1.156,1.1303,1.1083,1.1083,1.1074,1.1062,1.1384,1.1645,1.1879,1.2155,1.2378,1.2562,1.2562,1.2485,1.2415,1.263,1.2437,1.2005,1.2256,1.2368,1.2515,1.3409,1.4327,1.5081,1.519,1.5559,1.5899,1.5639,1.5586,1.5615,1.5615,1.6416,1.7305,1.7363,1.778,1.819,1.8259,1.8347,1.8414,1.8414,1.8573,1.8808,1.9031,1.9584,2.0204,2.0828,2.1328,2.1757,2.2015,2.162,2.1079,2.0543,2.0013,1.9519,1.9035,1.9059,1.9314,1.9772,2.029,2.0808,2.126,2.1356,2.1989,2.3329,2.4526,2.5771,2.709,2.7889,2.879,2.9746,2.9503,2.9988,3.1102,3.145,3.1892,0.829,0.8936,0.9572,1.0336,1.0285,1.0132,1.0475,0.0,0.0,0.0,0.0,0.0,0.0,0.0,0.0,0.0,0.0,0.0,0.0,0.0,0.0,0.0,0.0,1.3593,1.3125,1.2842,1.2444,1.1833,1.1747,1.1685,1.1591,1.184,1.2081,1.2313,1.2328,1.2328,1.2313,1.2019,1.1685,1.1303,1.1397,1.1467,1.1481,1.1727,1.2085,1.2516,1.2621,1.2884,1.3251,1.3251,1.3136,1.3016,1.3389,1.3256,1.288,1.3247,1.3465,1.3729,1.4419,1.5152,1.58,1.5909,1.6305,1.6664,1.6349,1.6326,1.6367,1.6128,1.6354,1.676,1.6973,1.7642,1.8431,1.8992,1.9223,1.9393,1.9731,1.9565,1.9386,1.9584,1.9879,2.0291,2.0912,2.1305,2.1706,2.2123,2.174,2.1308,2.1055,2.0326,1.9712,1.9471,1.9447,1.9652,2.0193,2.0735,2.1247,2.1801,2.1916,2.2622,2.4146,2.514,2.628,2.7552,2.8391,2.9009,2.9334,2.946,2.9896,3.0611,3.0924,3.1301,0.8549,0.9241,0.999,1.0716,0.0,1.0828,1.1208,0.0,0.0,0.0,0.0,0.0,0.0,0.0,0.0,0.0,0.0,0.0,0.0,1.5176,1.5186,1.4765,1.4519,1.4163,1.3623,1.3351,1.2864,1.2143,1.1943,1.1844,1.169,1.1928,1.2177,1.2446,1.244,1.244,1.2446,1.2177,1.1806,1.1373,1.1622,1.1748,1.1847,1.2153,1.2597,1.3084,1.3277,1.3547,1.3884,1.3996,1.3851,1.3648,1.4155,1.4202,1.4069,1.4344,1.4689,1.5065,1.5471,1.6035,1.66,1.6682,1.7034,1.7425,1.7236,1.7305,1.739,1.702,1.689,1.6869,1.6827,1.768,1.8745,1.9557,1.9878,2.0139,2.0609,2.0226,1.9846,1.9944,2.0162,2.0532,2.1147,2.1478,2.1808,2.2303,2.1921,2.1548,2.1416,2.0562,1.9953,1.982,1.97,1.988,2.0583,2.1167,2.1783,2.2365,2.2482,2.3176,2.4659,2.5569,2.6618,2.7769,2.8556,2.8958,2.8917,2.9262,2.969,3.0225,3.0495,3.0867,0.9151,0.9568,1.0092,1.1246,0.0,0.0,1.178,0.0,0.0,0.0,0.0,0.0,0.0,0.0,0.0,0.0,0.0,0.0,1.5823,0.0,1.5575,1.5352,1.5108,1.4813,1.444,1.4001,1.3498,1.2958,1.2451,1.211,1.197,1.1938,1.2035,1.231,1.2307,1.2307,1.231,1.2055,1.1799,1.1591,1.191,1.212,1.2282,1.2854,1.322,1.3397,1.4094,1.4318,1.4206,1.457,1.443,1.403,1.4757,1.5256,1.557,1.5561,1.5851,1.6237,1.6655,1.7054,1.7394,1.7354,1.7462,1.7601,1.7698,1.7853,1.7951,1.7907,1.8507,1.8836,1.751,1.8189,1.9287,1.9538,1.9867,2.0085,2.0151,2.0009,1.9835,1.9671,2.0379,2.1152,2.1583,2.2022,2.2477,2.2887,2.2474,2.1957,2.1464,2.0911,2.0358,1.9856,1.9336,1.9522,2.0673,2.1443,2.2189,2.298,2.2939,2.3341,2.44,2.5792,2.6843,2.7424,2.8225,2.8836,2.926,2.9236,2.9679,3.0577,3.0848,3.1173,0.924,0.981,1.0486,1.1284,0.0,0.0,0.0,0.0,0.0,0.0,0.0,0.0,0.0,0.0,0.0,0.0,0.0,0.0,1.5789,1.5989,1.6116,1.6019,1.5836,1.5507,1.5089,1.4824,1.4401,1.3803,1.3289,1.29,1.2697,1.2586,1.2629,1.2849,1.2867,1.2867,1.2849,1.2546,1.2237,1.1993,1.2233,1.2427,1.2576,1.325,1.3752,1.4116,1.4681,1.4934,1.4928,1.5379,1.518,1.4693,1.5236,1.5876,1.6438,1.6438,1.6673,1.7019,1.7285,1.7647,1.8012,1.8057,1.8344,1.8699,1.8868,1.919,1.9452,1.9246,1.9663,1.9849,1.8485,1.9254,2.0466,2.0908,2.1029,2.1062,2.1203,2.0919,2.0599,2.0421,2.0948,2.1618,2.2217,2.2564,2.2942,2.3427,2.3047,2.2606,2.2414,2.1332,2.0514,2.0322,1.9817,1.9758,2.0364,2.1555,2.2501,2.3019,2.3217,2.3829,2.4974,2.5827,2.6552,2.713,2.7835,2.8248,2.8359,2.8591,2.8987,2.956,2.9721,3.0045,0.9468,1.0049,1.0747,0.0,0.0,0.0,0.0,0.0,0.0,0.0,0.0,0.0,0.0,0.0,0.0,0.0,1.5266,1.55,1.5527,1.577,1.5977,1.6033,1.5817,1.5545,1.5151,1.4981,1.4687,1.4113,1.3671,1.3304,1.3017,1.2851,1.283,1.2971,1.2971,1.2971,1.2971,1.2698,1.2449,1.2173,1.2489,1.272,1.2877,1.3617,1.4195,1.4617,1.5236,1.5423,1.5363,1.5841,1.5854,1.5554,1.5907,1.6524,1.7254,1.7254,1.7417,1.7716,1.8012,1.8317,1.8633,1.8734,1.9171,1.9672,1.9803,2.0245,2.0683,2.0445,2.084,2.1129,2.0067,2.0542,2.1407,2.1881,2.1904,2.175,2.1621,2.1428,2.1208,2.0951,2.1605,2.2362,2.2949,2.3268,2.3539,2.3968,2.3568,2.3204,2.3035,2.1934,2.1003,2.0617,2.0113,1.9996,2.0505,2.1773,2.2752,2.3323,2.3861,2.4535,2.53,2.5954,2.6497,2.6844,2.7605,2.7958,2.779,2.8235,2.8581,2.8834,2.9029,2.9328,0.9932,1.0303,0.0,0.0,0.0,0.0,0.0,0.0,0.0,0.0,0.0,0.0,0.0,0.0,0.0,1.4987,1.4987,1.5049,1.5154,1.5076,1.5049,1.519,1.4961,1.4724,1.4513,1.438,1.4167,1.3855,1.3515,1.3154,1.2826,1.2613,1.2505,1.2505,1.2505,1.2505,1.2505,1.2372,1.2249,1.2135,1.2658,1.3006,1.3223,1.397,1.4477,1.4862,1.5713,1.584,1.5439,1.5909,1.6328,1.6697,1.6697,1.7223,1.8008,1.8008,1.8144,1.8371,1.8844,1.9144,1.9291,1.9317,1.9809,2.0395,2.031,2.0826,2.142,2.1397,2.2161,2.2859,2.2342,2.2051,2.1958,2.2155,2.2211,2.1953,2.1081,2.1323,2.1553,2.1029,2.2308,2.3571,2.3758,2.4106,2.4336,2.4496,2.4097,2.3613,2.3071,2.2667,2.1919,2.0648,2.011,2.0231,2.1237,2.2115,2.3044,2.4055,2.4915,2.5356,2.5216,2.6231,2.6706,2.6525,2.7706,2.814,2.7831,2.8277,2.859,2.8724,2.8998,2.9373,1.0147,1.039,0.0,0.0,0.0,0.0,0.0,0.0,0.0,0.0,0.0,0.0,0.0,0.0,0.0,1.4511,1.4597,1.4673,1.4698,1.5043,1.5253,1.5216,1.4846,1.4671,1.4835,1.4517,1.4414,1.4625,1.4266,1.3927,1.373,1.3347,1.3084,1.3011,1.2987,1.2987,1.2987,1.2963,1.29,1.2808,1.2959,1.308,1.3154,1.3836,1.4447,1.4992,1.5652,1.5879,1.5769,1.5899,1.6397,1.7044,1.7044,1.7581,1.8347,1.8347,1.863,1.9044,1.933,1.9715,2.0019,1.9749,2.0198,2.0842,2.06,2.1086,2.1765,2.1932,2.2185,2.2558,2.318,2.3281,2.3161,2.2825,2.2592,2.2159,2.125,2.1638,2.2185,2.2173,2.3271,2.433,2.4767,2.4943,2.5013,2.5071,2.4626,2.3945,2.294,2.2922,2.2699,2.1783,2.1877,2.2194,2.2681,2.359,2.4333,2.4713,2.5568,2.5947,2.5702,2.6623,2.7319,2.7683,2.8785,2.9489,2.9766,2.9993,3.0232,3.0469,3.0542,3.0855,1.0263,0.0,0.0,0.0,0.0,0.0,0.0,0.0,0.0,0.0,0.0,0.0,0.0,1.4206,0.0,1.4244,1.4376,1.4483,1.458,1.489,1.5098,1.501,1.4728,1.4516,1.4451,1.4391,1.437,1.4451,1.4331,1.4181,1.3986,1.3717,1.3491,1.3362,1.3409,1.3457,1.3518,1.3457,1.343,1.3378,1.333,1.3292,1.3302,1.3743,1.4208,1.4727,1.5684,1.6233,1.6428,1.6428,1.6836,1.749,1.749,1.7906,1.8494,1.8494,1.8774,1.9147,1.9444,1.9822,2.0107,1.987,2.0433,2.1128,2.0723,2.127,2.203,2.2154,2.2342,2.2686,2.3324,2.3649,2.3722,2.3396,2.3096,2.2589,2.1455,2.2004,2.273,2.2808,2.3851,2.485,2.5241,2.5312,2.5312,2.5312,2.4971,2.4551,2.4116,2.407,2.3862,2.3384,2.3501,2.3616,2.3616,2.4443,2.5017,2.5161,2.5995,2.6587,2.679,2.7301,2.7946,2.8735,2.9645,3.0452,3.112,3.1299,3.1624,3.2019,3.2019,3.2322,0.0,0.0,0.0,0.0,0.0,0.0,0.0,0.0,0.0,0.0,0.0,0.0,0.0,1.4163,1.4127,1.4222,1.4385,1.4558,1.4743,1.4789,1.4801,1.4789,1.4686,1.4394,1.3828,1.4169,1.4235,1.3795,1.4099,1.4152,1.3881,1.3858,1.3821,1.3692,1.381,1.3941,1.4095,1.3975,1.3905,1.3905,1.3787,1.3705,1.3702,1.371,1.3937,1.4385,1.5816,1.6705,1.7175,1.7246,1.7514,1.7962,1.7962,1.8199,1.8544,1.8544,1.8665,1.8947,1.9395,1.9661,1.9843,1.9809,2.0514,2.1296,2.0759,2.1361,2.2197,2.2197,2.2534,2.2951,2.2999,2.3372,2.3734,2.3734,2.3589,2.3105,2.1768,2.2409,2.3203,2.309,2.4176,2.5147,2.5276,2.5312,2.5312,2.5347,2.5296,2.5461,2.6101,2.5769,2.5413,2.5227,2.5052,2.4803,2.4388,2.4958,2.5403,2.5549,2.6382,2.7293,2.8213,2.8169,2.8643,2.9771,3.0468,3.1197,3.2034,3.2331,3.2813,3.3388,3.3388,3.3676,0.0,0.0,0.0,0.0,0.0,0.0,0.0,0.0,0.0,0.0,0.0,0.0,1.4552,1.4651,1.4674,1.4594,1.488,1.5175,1.5377,1.5488,1.5511,1.5421,1.5081,1.4876,1.5001,1.478,1.4734,1.5001,1.4937,1.4743,1.4376,1.4396,1.4361,1.4233,1.4398,1.4628,1.4869,1.4823,1.4777,1.4651,1.4628,1.4582,1.4456,1.4105,1.4312,1.5039,1.6269,1.6851,1.7011,1.7417,1.7874,1.8291,1.8291,1.8522,1.8895,1.8895,1.9115,1.9477,1.9661,1.9954,2.015,1.9893,2.0514,2.1296,2.0759,2.1361,2.2197,2.2197,2.227,2.2462,2.2903,2.3095,2.318,2.318,2.3147,2.2903,2.2193,2.2886,2.3661,2.3616,2.4499,2.5276,2.5312,2.5312,2.5418,2.5723,2.6177,2.6555,2.6706,2.7255,2.7363,2.6722,2.6885,2.6841,2.6286,2.6359,2.6509,2.6654,2.7045,2.7683,2.8636,2.9056,2.9867,3.1208,3.2004,3.2587,3.2993,3.3609,3.3925,3.4067,3.4067,3.4378,0.0,0.0,0.0,0.0,0.0,0.0,0.0,0.0,0.0,0.0,0.0,0.0,1.5094,1.5198,1.5243,1.522,1.5512,1.5812,1.6008,1.6095,1.6086,1.5952,1.5709,1.552,1.5404,1.5404,1.5425,1.5404,1.5414,1.5276,1.4903,1.4926,1.4869,1.4743,1.496,1.521,1.5424,1.5379,1.53,1.522,1.5198,1.5175,1.5119,1.4812,1.5059,1.5805,1.6602,1.7239,1.7744,1.8014,1.8424,1.8865,1.8865,1.9001,1.9195,1.9195,1.9331,1.9511,1.9594,1.9721,1.9839,1.9682,2.0297,2.1047,2.0786,2.1391,2.2197,2.2197,2.2197,2.2258,2.2534,2.2606,2.2638,2.2689,2.3043,2.3252,2.271,2.3388,2.4133,2.4133,2.484,2.5453,2.5571,2.5734,2.5965,2.6461,2.6947,2.7466,2.7902,2.856,2.8794,2.8268,2.8194,2.7926,2.7287,2.7021,2.6977,2.7185,2.7452,2.8067,2.9139,2.9822,3.0678,3.1742,3.2629,3.3307,3.3783,3.4115,3.4462,3.4826,3.5157,3.5429,0.0,0.0,0.0,0.0,0.0,0.0,0.0,0.0,0.0,0.0,0.0,1.5499,1.5706,1.579,1.5844,1.5942,1.6185,1.6448,1.6629,1.665,1.6595,1.6475,1.6475,1.6207,1.5628,1.5973,1.606,1.5616,1.5736,1.5736,1.5478,1.5457,1.5413,1.5266,1.5501,1.5736,1.5925,1.5812,1.5768,1.5746,1.5714,1.5702,1.5746,1.5645,1.5872,1.6382,1.6835,1.7588,1.8536,1.8622,1.8992,1.9473,1.9473,1.9473,1.9473,1.9447,1.9447,1.9473,1.9447,1.9508,1.9608,1.9608,2.0278,2.1019,2.099,2.1565,2.2216,2.2228,2.2197,2.2197,2.2197,2.2216,2.2302,2.248,2.3244,2.3781,2.3228,2.3896,2.4587,2.4587,2.5263,2.5873,2.6094,2.6449,2.6879,2.7351,2.7769,2.8338,2.9117,2.9637,2.9795,2.9477,2.9102,2.8607,2.7968,2.7503,2.7332,2.7616,2.7826,2.8381,2.9403,3.037,3.1133,3.1685,3.2751,3.3561,3.4169,3.4295,3.4738,3.5478,3.6036,3.6346,0.0,0.0,0.0,0.0,0.0,0.0,0.0,0.0,0.0,0.0,1.7034,1.6668,1.6445,1.6565,1.6693,1.6595,1.685,1.7128,1.7246,1.7267,1.7225,1.7094,1.7081,1.6873,1.6308,1.6334,1.6347,1.6269,1.6081,1.6023,1.6157,1.6173,1.6086,1.5879,1.6086,1.6259,1.6414,1.6392,1.638,1.638,1.6358,1.6358,1.638,1.6358,1.63,1.6257,1.6835,1.7542,1.8283,1.8758,1.9258,1.9759,1.9759,1.9759,1.9734,1.9604,1.9656,1.9734,1.9617,1.998,2.0525,2.0525,2.1166,2.1902,2.1797,2.2036,2.2359,2.2216,2.2197,2.2197,2.2197,2.2278,2.248,2.2972,2.3776,2.4233,2.3568,2.4271,2.5031,2.5031,2.5936,2.6799,2.6989,2.7557,2.8051,2.8298,2.8903,2.9421,2.9699,3.016,3.0261,2.9638,2.9523,2.929,2.8775,2.8361,2.8256,2.8598,2.8476,2.8525,2.8801,3.0317,3.118,3.1275,3.2619,3.3393,3.3604,3.4197,3.4902,3.574,3.5835,3.6387,0.0,0.0,0.0,0.0,0.0,0.0,0.0,0.0,0.0,0.0,1.71,1.7199,1.6947,1.7044,1.7149,1.7102,1.7248,1.7406,1.7556,1.7502,1.7461,1.7481,1.7481,1.7276,1.673,1.6657,1.6586,1.652,1.631,1.6268,1.6502,1.6509,1.6402,1.6173,1.6402,1.6543,1.662,1.6684,1.6714,1.6714,1.6641,1.6663,1.6714,1.6714,1.6641,1.6516,1.6959,1.7756,1.8753,1.9149,1.9858,2.0708,2.0708,2.0608,2.0446,2.0232,2.0144,2.0144,2.0156,2.0669,2.1342,2.155,2.2162,2.2788,2.2585,2.2669,2.2757,2.2525,2.2475,2.2475,2.2475,2.2744,2.3088,2.3415,2.4342,2.5172,2.5288,2.5564,2.5906,2.6198,2.6848,2.7471,2.7855,2.8371,2.8803,2.9058,2.9467,2.995,3.0568,3.0618,3.0641,3.0654,3.0148,2.9739,2.9699,2.9366,2.9339,2.9781,2.9794,2.9886,3.0097,3.1221,3.1858,3.1933,3.2839,3.3388,3.3503,3.3884,3.4308,3.4743,3.5182,3.5827,0.0,0.0,0.0,0.0,0.0,0.0,0.0,0.0,0.0,0.0,1.7096,1.757,1.7468,1.7474,1.7474,1.7481,1.755,1.7611,1.7699,1.7652,1.7679,1.7794,1.7868,1.7636,1.6972,1.6809,1.6677,1.6487,1.6289,1.6368,1.6811,1.6833,1.6714,1.6497,1.6693,1.6846,1.6842,1.6939,1.696,1.6918,1.6867,1.6897,1.701,1.7094,1.7094,1.7044,1.7199,1.8033,1.9293,1.9583,2.0402,2.1503,2.1503,2.1358,2.1129,2.0795,2.0789,2.0921,2.0933,2.1623,2.2508,2.279,2.3272,2.3703,2.3365,2.3228,2.3108,2.28,2.272,2.2714,2.288,2.3275,2.374,2.4108,2.5118,2.6211,2.685,2.6952,2.7082,2.7517,2.7901,2.8325,2.8771,2.9198,2.9571,2.982,2.9946,3.0328,3.1236,3.1058,3.1019,3.1529,3.0924,3.0542,3.0648,3.041,3.0433,3.0887,3.091,3.0983,3.1182,3.1912,3.2368,3.252,3.3101,3.3477,3.3642,3.3973,3.4304,3.4693,3.5509,3.6226,0.0,0.0,0.0,0.0,0.0,0.0,0.0,0.0,0.0,0.0,1.7323,1.7942,1.8109,1.7902,1.7679,1.7679,1.7801,1.7842,1.772,1.7855,1.8008,1.8066,1.8311,1.804,1.7006,1.6722,1.6476,1.6154,1.6,1.6279,1.7133,1.7178,1.7115,1.6981,1.7094,1.7193,1.7271,1.7206,1.7115,1.7002,1.7115,1.7206,1.7291,1.7605,1.7808,1.7908,1.7618,1.8338,1.9781,1.9919,2.0693,2.1769,2.1769,2.1698,2.1506,2.1115,2.1553,2.2255,2.2011,2.2959,2.4298,2.4418,2.4586,2.4639,2.4111,2.3682,2.3283,2.283,2.272,2.2801,2.3317,2.3704,2.4249,2.533,2.6265,2.7063,2.7617,2.8084,2.8473,2.8661,2.9139,2.956,2.9716,3.016,3.0522,3.0552,3.0538,3.077,3.1408,3.1466,3.1544,3.1741,3.1957,3.1961,3.1653,3.1546,3.1564,3.1732,3.1394,3.1198,3.1198,3.1912,3.2368,3.252,3.3265,3.3797,3.4075,3.4917,3.5822,3.6774,3.7638,3.8619,0.0,0.0,0.0,0.0,0.0,0.0,0.0,0.0,0.0,1.5508,1.6239,1.694,1.7144,1.7669,1.8115,1.8189,1.8262,1.8282,1.8222,1.8313,1.8442,1.8616,1.8769,1.845,1.7338,1.7089,1.6696,1.5957,1.5755,1.5865,1.6395,1.6436,1.657,1.6844,1.7036,1.7329,1.7754,1.7585,1.755,1.7584,1.755,1.7585,1.7754,1.7962,1.8135,1.8327,1.824,1.9015,2.033,2.0564,2.1368,2.2509,2.2509,2.2394,2.2194,2.1888,2.218,2.2719,2.2705,2.3671,2.4964,2.5265,2.5427,2.5384,2.4809,2.4279,2.3811,2.359,2.3517,2.3673,2.419,2.477,2.5568,2.6849,2.7932,2.875,2.9034,2.8962,2.8976,2.9275,2.9543,2.9808,3.0068,3.0447,3.0732,3.0732,3.0821,3.113,3.1729,3.1819,3.2102,3.2807,3.2676,3.2687,3.3075,3.2773,3.2677,3.3002,3.2883,3.279,3.279,3.3071,3.3249,3.3402,3.422,3.4755,3.4942,3.5597,3.6447,3.7418,3.8005,3.8771,0.9437,0.0,0.0,0.0,0.0,0.0,0.0,0.0,0.0,1.4853,1.5657,1.6419,1.6652,1.74,1.7969,1.7984,1.8002,1.8073,1.8337,1.8465,1.86,1.8804,1.8983,1.8611,1.7441,1.7196,1.6825,1.6079,1.5856,1.5873,1.6172,1.6195,1.6469,1.7052,1.7486,1.7887,1.8266,1.8127,1.8082,1.8109,1.8022,1.8068,1.8206,1.8411,1.8581,1.8697,1.876,1.9512,2.0719,2.092,2.1736,2.2888,2.2888,2.2927,2.2953,2.2659,2.3062,2.3755,2.379,2.462,2.5695,2.6035,2.6062,2.5852,2.5245,2.4681,2.422,2.4185,2.4178,2.4343,2.5069,2.5914,2.6908,2.816,2.9075,2.9716,2.9901,2.9775,2.9651,2.9898,3.0021,3.016,3.0417,3.0762,3.0969,3.1014,3.1234,3.1574,3.2229,3.2303,3.2572,3.3276,3.3349,3.3424,3.3611,3.3648,3.3678,3.3761,3.4047,3.4105,3.3838,3.4314,3.451,3.4422,3.5247,3.5941,3.641,3.687,3.7463,3.8227,3.8879,3.9256,0.0,0.0,0.0,0.0,0.0,0.0,0.0,0.0,1.455,1.4809,1.5647,1.6445,1.6784,1.7074,1.7192,1.7014,1.7009,1.7286,1.8021,1.8282,1.849,1.8685,1.887,1.8521,1.7316,1.7074,1.6864,1.6513,1.6294,1.6299,1.6564,1.6585,1.6884,1.7545,1.8425,1.8841,1.8793,1.8789,1.8707,1.8519,1.8592,1.8611,1.863,1.8936,1.9101,1.9101,1.9101,1.9783,2.0907,2.0961,2.1736,2.2888,2.2888,2.3233,2.3664,2.3411,2.4198,2.5397,2.5265,2.5795,2.6537,2.6738,2.6474,2.6002,2.5412,2.4908,2.4527,2.4551,2.4566,2.4836,2.5961,2.7171,2.8254,2.9107,2.9591,2.9901,3.0251,3.0447,3.0598,3.0598,3.0598,3.0642,3.0791,3.1087,3.1365,3.1495,3.1737,3.2135,3.2816,3.2922,3.2967,3.3157,3.4043,3.4234,3.33,3.4133,3.4488,3.4011,3.4729,3.4871,3.4174,3.5529,3.6003,3.5417,3.6306,3.7287,3.8411,3.8665,3.8954,3.9289,4.0408,4.0199,0.9332,0.0,0.0,0.0,0.0,0.0,0.0,0.0,0.0,1.4074,1.46,1.514,1.5525,1.5868,1.6143,1.6367,1.7039,1.7741,1.8441,1.8616,1.8751,1.8887,1.9005,1.8587,1.7316,1.7119,1.6787,1.6128,1.601,1.5951,1.5887,1.623,1.6561,1.6797,1.7891,1.8459,1.8437,1.8813,1.8988,1.8917,1.8908,1.8908,1.8969,1.9064,1.9101,1.9101,1.9101,1.9807,2.0961,2.1003,2.1736,2.2888,2.2888,2.3279,2.3844,2.3759,2.4568,2.5691,2.5651,2.611,2.6712,2.6779,2.6539,2.6163,2.5825,2.5453,2.5281,2.5901,2.6092,2.6404,2.7736,2.8616,2.9233,2.9591,3.0038,3.0417,3.0507,3.0568,3.0598,3.0598,3.0672,3.0821,3.1102,3.1394,3.1682,3.1951,3.2148,3.2361,3.2656,3.3106,3.3741,3.4664,3.4952,3.5351,3.5927,3.5417,3.5263,3.5743,3.5091,3.484,3.5166,3.566,3.5859,3.5687,3.7167,3.822,3.8831,3.905,3.9604,4.0442,4.1094,4.0604,0.0,0.0,0.0,0.0,0.0,0.0,0.0,1.3425,0.0,0.0,1.4078,1.447,1.4922,1.5285,1.5653,1.6053,1.6636,1.7362,1.8345,1.8531,1.8579,1.866,1.8694,1.8206,1.6916,1.6749,1.6401,1.5662,1.5657,1.5642,1.557,1.6336,1.6773,1.6757,1.7863,1.8475,1.8475,1.9056,1.9343,1.9321,1.9261,1.9242,1.9228,1.9228,1.9195,1.9176,1.9176,1.9866,2.1003,2.1003,2.1736,2.2917,2.3215,2.3731,2.4365,2.4588,2.5353,2.6224,2.6224,2.646,2.6806,2.6806,2.6806,2.6751,2.6466,2.6413,2.6592,2.7498,2.7913,2.8246,2.8947,2.9404,2.9747,2.9962,3.0312,3.0598,3.0598,3.0598,3.0612,3.0672,3.0851,3.1117,3.1423,3.1809,3.2176,3.2456,3.266,3.2807,3.2969,3.3383,3.4038,3.5115,3.5489,3.5989,3.6783,3.6474,3.6215,3.6207,3.5826,3.5531,3.5399,3.6464,3.677,3.6202,3.7901,3.8802,3.8869,3.9224,3.9704,4.0309,4.0639,4.0098,1.0446,1.119,0.0,0.0,0.0,0.0,1.3146,1.3301,1.3442,0.0,1.3927,1.423,1.4737,1.5119,1.5492,1.5897,1.601,1.6569,1.8007,1.8146,1.813,1.8192,1.813,1.7607,1.6345,1.6236,1.5987,1.5399,1.5485,1.5556,1.5553,1.6628,1.7171,1.7041,1.8073,1.8633,1.8633,1.9369,1.9708,1.9665,1.9629,1.9556,1.945,1.9431,1.9395,1.9339,1.9321,1.9963,2.1023,2.1003,2.1736,2.2983,2.3644,2.4297,2.4965,2.5585,2.6224,2.6806,2.6806,2.6806,2.6806,2.6806,2.7134,2.7476,2.7326,2.7613,2.8203,2.9195,2.978,3.0122,2.9873,2.9862,2.9962,3.0251,3.0477,3.0598,3.0598,3.0598,3.0672,3.0821,3.1102,3.1452,3.1752,3.2299,3.2753,3.2978,3.3203,3.3398,3.3529,3.3748,3.4198,3.5062,3.5888,3.6474,3.6721,3.7359,3.7262,3.6124,3.6629,3.6439,3.5271,3.7381,3.7995,3.6761,3.8393,3.9061,3.8621,3.9175,3.9458,3.9511,3.9575,3.9191,1.0506,1.1226,1.1957,1.2644,0.0,0.0,1.306,1.3181,1.3284,0.0,1.3711,1.4026,1.4278,1.4705,1.515,1.5594,1.5812,1.6469,1.7992,1.7746,1.7608,1.8146,1.7776,1.7185,1.6435,1.6409,1.6414,1.6328,1.6492,1.6383,1.5843,1.6447,1.6757,1.6624,1.7699,1.8298,1.8298,1.9438,2.0028,2.001,1.9848,1.9759,1.9708,1.9672,1.9599,1.9538,1.9431,2.0069,2.1149,2.1044,2.1736,2.2983,2.3644,2.4297,2.4965,2.5585,2.6224,2.6806,2.6806,2.6806,2.6806,2.6806,2.7188,2.7742,2.8249,2.8785,2.9492,3.0729,3.113,3.1202,3.1149,3.0807,3.0447,3.0538,3.0568,3.0598,3.0598,3.0672,3.0851,3.1146,3.1437,3.1779,3.2312,3.2834,3.3266,3.3503,3.3581,3.3668,3.3797,3.4465,3.525,3.6094,3.6986,3.7719,3.8319,3.8083,3.7844,3.759,3.6728,3.6141,3.6004,3.6706,3.7032,3.6859,3.8375,3.879,3.807,3.8812,3.9318,3.9575,3.9658,3.9311,1.157,1.1992,1.24,1.3004,0.0,0.0,0.0,0.0,1.3181,1.3284,1.351,1.3778,1.4049,1.4438,1.4876,1.5404,1.5682,1.6245,1.7516,1.7408,1.7316,1.7669,1.7496,1.7131,1.6568,1.6581,1.6581,1.641,1.6556,1.6492,1.617,1.7048,1.7497,1.7353,1.8485,1.9076,1.9045,2.0014,2.0479,2.0444,2.0357,2.0306,2.0306,2.0256,2.0168,1.9993,1.9815,2.0359,2.1353,2.1176,2.1808,2.2983,2.3644,2.4283,2.4936,2.556,2.6224,2.6806,2.6806,2.6806,2.6806,2.6806,2.7432,2.8332,2.8956,3.0263,3.1613,3.1917,3.1988,3.1915,3.1582,3.1047,3.0598,3.0598,3.0598,3.0612,3.0702,3.0762,3.094,3.1423,3.1908,3.2379,3.2734,3.3298,3.3745,3.3873,3.3899,3.3949,3.4075,3.4859,3.5745,3.661,3.7479,3.8282,3.8974,3.8807,3.8322,3.7595,3.6919,3.6298,3.5783,3.6472,3.7091,3.7487,3.7885,3.7935,3.7609,3.8113,3.8428,3.8602,3.8661,3.8774,0.0,0.0,0.0,0.0,0.0,1.2907,0.0,0.0,0.0,0.0,0.0,0.0,0.0,0.0,0.0,0.0,0.0,0.0,0.0,1.6964,0.0,1.7178,1.7215,1.7074,1.667,1.6802,1.6726,1.6267,1.6475,1.6575,1.6437,1.7578,1.8156,1.8058,1.9238,1.9849,1.9791,2.0575,2.0942,2.0876,2.086,2.0828,2.0828,2.0828,2.0712,2.0461,2.0256,2.0697,2.156,2.1333,2.1908,2.3006,2.3644,2.4283,2.4897,2.556,2.6224,2.6806,2.6806,2.6806,2.6806,2.6806,2.7837,2.9217,2.9958,3.1714,3.3416,3.2991,3.2582,3.2191,3.1785,3.1179,3.0642,3.0642,3.0672,3.0732,3.0821,3.0881,3.1058,3.1596,3.2339,3.2922,3.3055,3.3713,3.4176,3.4176,3.4176,3.4274,3.452,3.5324,3.6188,3.703,3.7902,3.8642,3.9249,3.9299,3.8685,3.7201,3.7235,3.6705,3.5358,3.6378,3.7279,3.7903,3.7406,3.7204,3.7353,3.7522,3.7631,3.7667,3.79,3.8402,0.0,0.0,0.0,0.0,1.3457,0.0,0.0,0.0,1.2903,1.306,0.0,0.0,0.0,0.0,0.0,0.0,0.0,0.0,1.606,1.6132,1.6403,1.7117,1.6837,1.6662,1.6766,1.7117,1.7063,1.6431,1.7042,1.7182,1.653,1.7192,1.7572,1.7488,1.8782,1.9442,1.9374,2.063,2.1214,2.1151,2.1023,2.0975,2.0975,2.0975,2.0893,2.0745,2.0478,2.0919,2.1822,2.1445,2.1999,2.3133,2.3691,2.4297,2.495,2.556,2.6224,2.6806,2.6806,2.6806,2.6806,2.6806,2.8433,3.0627,3.1816,3.2788,3.3605,3.4066,3.2948,3.1712,3.2234,3.1589,3.0791,3.0791,3.0925,3.1043,3.1043,3.1146,3.1336,3.1653,3.2489,3.3214,3.3408,3.4,3.4448,3.4448,3.4448,3.4718,3.5356,3.6204,3.7037,3.7788,3.8646,3.9216,3.9299,3.9299,3.8685,3.7201,3.7715,3.7236,3.5392,3.6126,3.6771,3.7212,3.7297,3.7429,3.7576,3.7649,3.7757,3.7882,3.8671,3.9156,0.0,0.0,0.0,0.0,0.0,0.0,1.2775,0.0,1.2906,0.0,0.0,0.0,0.0,0.0,0.0,0.0,1.5118,0.0,0.0,0.0,1.6173,0.0,0.0,1.6657,1.7105,1.705,1.7043,1.7199,1.7132,1.7137,1.7244,1.7939,1.8303,1.8267,1.9675,2.0367,2.0227,2.1207,2.1646,2.1541,2.1494,2.1462,2.1462,2.1462,2.1386,2.1262,2.1023,2.1448,2.2274,2.187,2.2372,2.3415,2.3503,2.409,2.4868,2.5139,2.5894,2.6806,2.6806,2.6806,2.6936,2.7663,2.9348,3.1293,3.2237,3.2962,3.3547,3.379,3.273,3.1584,3.1999,3.1462,3.0821,3.0955,3.1043,3.1102,3.122,3.1263,3.1394,3.1811,3.2571,3.3419,3.4133,3.4868,3.5358,3.5358,3.5721,3.6116,3.6413,3.7157,3.776,3.8074,3.8831,3.9299,3.9299,3.9299,3.8868,3.7814,3.7785,3.7334,3.6321,3.6827,3.7164,3.722,3.7411,3.7595,3.7793,3.8313,3.8635,3.8777,3.9066,3.9498,1.378,0.0,0.0,0.0,0.0,0.0,0.0,0.0,0.0,0.0,0.0,0.0,0.0,0.0,0.0,0.0,0.0,1.5367,0.0,1.5926,0.0,0.0,0.0,0.0,1.7384,1.7171,1.7219,1.7749,1.749,1.7551,1.807,1.8809,1.9113,1.8922,2.0179,2.0702,2.0338,2.1228,2.1626,2.1529,2.1713,2.1812,2.1812,2.1812,2.1739,2.1589,2.1372,2.166,2.2311,2.2064,2.2511,2.3319,2.3311,2.3831,2.4626,2.4801,2.5687,2.6806,2.6806,2.6895,2.7258,2.8521,2.9987,3.138,3.2048,3.2733,3.3351,3.3511,3.2771,3.1972,3.2332,3.1953,3.1513,3.1678,3.1723,3.1783,3.1886,3.1901,3.2034,3.2456,3.32,3.4048,3.4915,3.5582,3.6075,3.6274,3.6771,3.7185,3.7384,3.788,3.8295,3.8477,3.8974,3.9299,3.9352,3.9379,3.9199,3.8761,3.7876,3.7405,3.7466,3.7443,3.7411,3.7372,3.754,3.7829,3.8258,3.8904,3.9372,3.9695,3.9823,4.0221,0.0,0.0,0.0,1.3313,0.0,0.0,0.0,0.0,1.3488,0.0,0.0,0.0,0.0,0.0,0.0,0.0,0.0,0.0,0.0,0.0,0.0,0.0,0.0,0.0,0.0,1.7664,1.7766,1.78,1.8437,1.8838,1.886,1.9558,1.9642,1.891,1.9642,1.9656,1.8886,2.0237,2.0905,2.0838,2.1479,2.1812,2.1812,2.1812,2.1739,2.1589,2.1325,2.1372,2.1657,2.1824,2.2194,2.267,2.3133,2.3635,2.4195,2.4785,2.5762,2.6806,2.6806,2.7186,2.7884,2.916,3.0045,3.0757,3.1366,3.2159,3.2942,3.3527,3.3333,3.3109,3.3773,3.3572,3.3208,3.3223,3.3332,3.3425,3.344,3.344,3.3516,3.3864,3.4656,3.5348,3.5699,3.5908,3.6241,3.697,3.7085,3.7367,3.8053,3.8195,3.8477,3.9199,3.9282,3.9352,3.9475,3.9599,3.979,4.0011,3.821,3.7562,3.8597,3.7609,3.72,3.7577,3.7667,3.8169,3.9157,3.9192,3.9643,4.0474,4.1252,4.1632,1.3138,1.3189,1.3193,1.3143,1.2845,0.0,0.0,0.0,0.0,0.0,0.0,0.0,0.0,0.0,0.0,0.0,0.0,0.0,0.0,0.0,0.0,0.0,0.0,0.0,0.0,0.0,1.7473,1.8454,1.8318,1.8606,1.9575,1.9389,1.9372,1.9625,1.9389,1.9364,1.953,2.0474,2.0896,2.0805,2.152,2.184,2.1812,2.1812,2.1739,2.1589,2.1356,2.1438,2.1747,2.1993,2.2413,2.2918,2.3334,2.377,2.4229,2.4794,2.5485,2.6242,2.7113,2.7824,2.8492,2.932,3.0335,3.1353,3.2115,3.2574,3.2945,3.3689,3.3444,3.3081,3.3441,3.3415,3.3314,3.3407,3.3469,3.3499,3.3499,3.3499,3.3591,3.3925,3.4515,3.5273,3.6186,3.6761,3.7268,3.7772,3.8245,3.8669,3.8891,3.8924,3.9033,3.9282,3.9299,3.9379,3.9599,4.0037,4.0424,4.075,4.0204,3.9891,3.9886,3.9688,3.953,3.9389,3.9445,3.968,4.0058,4.0601,4.1017,4.1307,4.2213,4.2341,1.277,1.2763,1.2745,1.2827,1.2557,1.2312,1.2437,0.0,1.347,0.0,0.0,0.0,0.0,0.0,0.0,0.0,0.0,0.0,0.0,1.5968,0.0,0.0,0.0,0.0,0.0,0.0,1.7839,1.8826,1.8961,1.943,2.0408,1.9984,1.9963,2.0493,1.9471,1.913,1.9571,2.0262,2.0565,2.0491,2.1461,2.1884,2.1825,2.1796,2.1739,2.1589,2.1356,2.1471,2.1832,2.2121,2.255,2.3082,2.3504,2.3798,2.4073,2.4802,2.555,2.6407,2.7621,2.836,2.8911,2.9711,3.0699,3.1691,3.2267,3.2832,3.3414,3.394,3.3989,3.3904,3.406,3.4075,3.4107,3.4186,3.4203,3.4203,3.4203,3.4203,3.4296,3.456,3.5002,3.5661,3.6555,3.7379,3.803,3.8444,3.8947,3.9299,3.9299,3.9299,3.9325,3.9352,3.9405,3.9651,4.0112,4.0659,4.1088,4.137,4.124,4.1018,4.0713,4.0648,4.0529,4.0346,4.0383,4.0583,4.0926,4.1451,4.185,4.214,4.2739,4.2795]}]]